<?xml version='1.0' encoding='UTF-8'?><gpx version="1.1" creator="JPX - https://github.com/jenetics/jpx" xmlns="http://www.topografix.com/GPX/1/1"><trk><trkseg><trkpt lat="45.3848986" lon="7.875576"><ele>253.00000000000003</ele><time>2026-04-25T14:34:31.527Z</time></trkpt><trkpt lat="45.3848343" lon="7.8755836"><ele>253.0</ele><time>2026-04-25T14:34:34.527Z</time></trkpt><trkpt lat="45.3847862" lon="7.8756464"><ele>253.00000000000003</ele><time>2026-04-25T14:34:38.527Z</time></trkpt><trkpt lat="45.384763" lon="7.8757556"><ele>253.00000000000003</ele><time>2026-04-25T14:35:19.528Z</time></trkpt><trkpt lat="45.3847345" lon="7.875841"><ele>253.0</ele><time>2026-04-25T14:35:22.529Z</time></trkpt><trkpt lat="45.3847071" lon="7.875934"><ele>253.00000000000003</ele><time>2026-04-25T14:35:25.528Z</time></trkpt><trkpt lat="45.3846869" lon="7.8760455"><ele>253.00000000000003</ele><time>2026-04-25T14:35:28.528Z</time></trkpt><trkpt lat="45.3846759" lon="7.876136"><ele>251.83333333333331</ele><time>2026-04-25T14:35:31.529Z</time></trkpt><trkpt lat="45.3846419" lon="7.8762523"><ele>250.66666666666666</ele><time>2026-04-25T14:35:34.529Z</time></trkpt><trkpt lat="45.3846084" lon="7.8763556"><ele>249.5</ele><time>2026-04-25T14:35:37.529Z</time></trkpt><trkpt lat="45.384568" lon="7.8764512"><ele>248.33333333333331</ele><time>2026-04-25T14:35:40.53Z</time></trkpt><trkpt lat="45.3845489" lon="7.8765431"><ele>247.16666666666666</ele><time>2026-04-25T14:35:43.529Z</time></trkpt><trkpt lat="45.3845276" lon="7.8766523"><ele>246.0</ele><time>2026-04-25T14:35:46.529Z</time></trkpt><trkpt lat="45.3845044" lon="7.876743"><ele>246.28571428571433</ele><time>2026-04-25T14:35:49.529Z</time></trkpt><trkpt lat="45.3844716" lon="7.8768288"><ele>246.57142857142858</ele><time>2026-04-25T14:35:52.529Z</time></trkpt><trkpt lat="45.3844307" lon="7.8768989"><ele>246.8571428571429</ele><time>2026-04-25T14:35:55.529Z</time></trkpt><trkpt lat="45.384367" lon="7.8769823"><ele>247.14285714285717</ele><time>2026-04-25T14:35:58.529Z</time></trkpt><trkpt lat="45.3843403" lon="7.8770713"><ele>247.42857142857144</ele><time>2026-04-25T14:36:00.529Z</time></trkpt><trkpt lat="45.3843091" lon="7.8771904"><ele>247.71428571428572</ele><time>2026-04-25T14:36:03.53Z</time></trkpt><trkpt lat="45.3842827" lon="7.8772738"><ele>248.0</ele><time>2026-04-25T14:36:05.529Z</time></trkpt><trkpt lat="45.3842624" lon="7.8773635"><ele>248.0</ele><time>2026-04-25T14:36:07.529Z</time></trkpt><trkpt lat="45.3842469" lon="7.8774633"><ele>248.00000000000003</ele><time>2026-04-25T14:36:09.529Z</time></trkpt><trkpt lat="45.3842414" lon="7.8775651"><ele>248.0</ele><time>2026-04-25T14:36:11.529Z</time></trkpt><trkpt lat="45.3842445" lon="7.8776709"><ele>248.0</ele><time>2026-04-25T14:36:13.529Z</time></trkpt><trkpt lat="45.3842397" lon="7.877783"><ele>248.00000000000003</ele><time>2026-04-25T14:36:15.53Z</time></trkpt><trkpt lat="45.3842316" lon="7.8778871"><ele>248.0</ele><time>2026-04-25T14:36:17.53Z</time></trkpt><trkpt lat="45.384242" lon="7.8779909"><ele>248.0</ele><time>2026-04-25T14:36:19.53Z</time></trkpt><trkpt lat="45.3842226" lon="7.8780868"><ele>248.33333333333334</ele><time>2026-04-25T14:36:21.53Z</time></trkpt><trkpt lat="45.3841938" lon="7.878189"><ele>248.66666666666669</ele><time>2026-04-25T14:36:23.53Z</time></trkpt><trkpt lat="45.3841821" lon="7.8782929"><ele>249.0</ele><time>2026-04-25T14:36:25.53Z</time></trkpt><trkpt lat="45.3841728" lon="7.8783981"><ele>249.33333333333331</ele><time>2026-04-25T14:36:27.53Z</time></trkpt><trkpt lat="45.3841875" lon="7.878501"><ele>249.66666666666666</ele><time>2026-04-25T14:36:29.53Z</time></trkpt><trkpt lat="45.384194" lon="7.8785975"><ele>250.0</ele><time>2026-04-25T14:36:31.531Z</time></trkpt><trkpt lat="45.3841799" lon="7.8787218"><ele>250.16666666666666</ele><time>2026-04-25T14:36:34.53Z</time></trkpt><trkpt lat="45.3841001" lon="7.8787619"><ele>250.33333333333331</ele><time>2026-04-25T14:36:37.53Z</time></trkpt><trkpt lat="45.3840161" lon="7.878796"><ele>250.5</ele><time>2026-04-25T14:36:39.53Z</time></trkpt><trkpt lat="45.3839444" lon="7.8788139"><ele>250.66666666666669</ele><time>2026-04-25T14:36:41.53Z</time></trkpt><trkpt lat="45.3838599" lon="7.8788275"><ele>250.83333333333334</ele><time>2026-04-25T14:36:43.53Z</time></trkpt><trkpt lat="45.3837746" lon="7.8788504"><ele>251.0</ele><time>2026-04-25T14:36:45.53Z</time></trkpt><trkpt lat="45.3836933" lon="7.8788656"><ele>250.33333333333334</ele><time>2026-04-25T14:36:48.53Z</time></trkpt><trkpt lat="45.3836472" lon="7.8789342"><ele>249.66666666666669</ele><time>2026-04-25T14:36:50.53Z</time></trkpt><trkpt lat="45.3836214" lon="7.8790591"><ele>249.0</ele><time>2026-04-25T14:36:52.53Z</time></trkpt><trkpt lat="45.3835978" lon="7.8791906"><ele>248.33333333333331</ele><time>2026-04-25T14:36:54.53Z</time></trkpt><trkpt lat="45.3835685" lon="7.8793234"><ele>247.66666666666666</ele><time>2026-04-25T14:36:56.53Z</time></trkpt><trkpt lat="45.3835344" lon="7.8794419"><ele>247.0</ele><time>2026-04-25T14:36:58.53Z</time></trkpt><trkpt lat="45.3834986" lon="7.8795652"><ele>247.0</ele><time>2026-04-25T14:37:00.53Z</time></trkpt><trkpt lat="45.383461" lon="7.8796949"><ele>247.0</ele><time>2026-04-25T14:37:02.53Z</time></trkpt><trkpt lat="45.3834213" lon="7.8798257"><ele>247.0</ele><time>2026-04-25T14:37:04.531Z</time></trkpt><trkpt lat="45.3833896" lon="7.879948"><ele>247.0</ele><time>2026-04-25T14:37:06.531Z</time></trkpt><trkpt lat="45.3833609" lon="7.8800713"><ele>247.0</ele><time>2026-04-25T14:37:08.531Z</time></trkpt><trkpt lat="45.3833285" lon="7.8801966"><ele>247.66666666666666</ele><time>2026-04-25T14:37:10.531Z</time></trkpt><trkpt lat="45.3832779" lon="7.880301"><ele>248.33333333333331</ele><time>2026-04-25T14:37:12.531Z</time></trkpt><trkpt lat="45.3832239" lon="7.8804194"><ele>249.0</ele><time>2026-04-25T14:37:14.531Z</time></trkpt><trkpt lat="45.3831774" lon="7.8805271"><ele>249.66666666666669</ele><time>2026-04-25T14:37:16.532Z</time></trkpt><trkpt lat="45.3831504" lon="7.8806381"><ele>250.33333333333334</ele><time>2026-04-25T14:37:18.531Z</time></trkpt><trkpt lat="45.383121" lon="7.8807369"><ele>251.0</ele><time>2026-04-25T14:37:20.531Z</time></trkpt><trkpt lat="45.3830857" lon="7.8808422"><ele>251.33333333333334</ele><time>2026-04-25T14:37:22.531Z</time></trkpt><trkpt lat="45.3830784" lon="7.8809491"><ele>251.66666666666669</ele><time>2026-04-25T14:37:24.532Z</time></trkpt><trkpt lat="45.383086" lon="7.8810501"><ele>252.0</ele><time>2026-04-25T14:37:26.531Z</time></trkpt><trkpt lat="45.3831035" lon="7.8811731"><ele>252.33333333333331</ele><time>2026-04-25T14:37:29.531Z</time></trkpt><trkpt lat="45.3831234" lon="7.8812852"><ele>252.66666666666666</ele><time>2026-04-25T14:37:32.531Z</time></trkpt><trkpt lat="45.38311" lon="7.8813994"><ele>253.0</ele><time>2026-04-25T14:37:35.532Z</time></trkpt><trkpt lat="45.3830556" lon="7.8814729"><ele>251.83333333333331</ele><time>2026-04-25T14:37:38.531Z</time></trkpt><trkpt lat="45.3829764" lon="7.8815435"><ele>250.66666666666666</ele><time>2026-04-25T14:37:41.532Z</time></trkpt><trkpt lat="45.3829523" lon="7.8816294"><ele>249.5</ele><time>2026-04-25T14:37:43.531Z</time></trkpt><trkpt lat="45.3829068" lon="7.8817218"><ele>248.33333333333331</ele><time>2026-04-25T14:37:45.531Z</time></trkpt><trkpt lat="45.3828683" lon="7.8817984"><ele>247.16666666666666</ele><time>2026-04-25T14:37:47.532Z</time></trkpt><trkpt lat="45.3828194" lon="7.881902"><ele>246.0</ele><time>2026-04-25T14:37:50.532Z</time></trkpt><trkpt lat="45.3827791" lon="7.8820148"><ele>246.0</ele><time>2026-04-25T14:37:53.532Z</time></trkpt><trkpt lat="45.3827375" lon="7.8821269"><ele>246.0</ele><time>2026-04-25T14:37:56.532Z</time></trkpt><trkpt lat="45.3827017" lon="7.8822152"><ele>246.0</ele><time>2026-04-25T14:37:58.532Z</time></trkpt><trkpt lat="45.3826706" lon="7.8823065"><ele>246.0</ele><time>2026-04-25T14:38:00.532Z</time></trkpt><trkpt lat="45.3826468" lon="7.8823966"><ele>246.0</ele><time>2026-04-25T14:38:02.532Z</time></trkpt><trkpt lat="45.3826045" lon="7.8824867"><ele>246.0</ele><time>2026-04-25T14:38:04.533Z</time></trkpt><trkpt lat="45.3825374" lon="7.8825773"><ele>245.60000000000002</ele><time>2026-04-25T14:38:06.532Z</time></trkpt><trkpt lat="45.3824643" lon="7.8826536"><ele>245.20000000000002</ele><time>2026-04-25T14:38:08.532Z</time></trkpt><trkpt lat="45.3823793" lon="7.8827399"><ele>244.79999999999998</ele><time>2026-04-25T14:38:10.532Z</time></trkpt><trkpt lat="45.38232" lon="7.882771"><ele>244.39999999999998</ele><time>2026-04-25T14:38:11.532Z</time></trkpt><trkpt lat="45.3822284" lon="7.8828756"><ele>244.0</ele><time>2026-04-25T14:38:13.532Z</time></trkpt><trkpt lat="45.3821583" lon="7.8829877"><ele>243.6</ele><time>2026-04-25T14:38:15.532Z</time></trkpt><trkpt lat="45.3820836" lon="7.8831021"><ele>243.2</ele><time>2026-04-25T14:38:17.532Z</time></trkpt><trkpt lat="45.382006" lon="7.8832182"><ele>242.79999999999998</ele><time>2026-04-25T14:38:19.532Z</time></trkpt><trkpt lat="45.3819286" lon="7.8833342"><ele>242.39999999999998</ele><time>2026-04-25T14:38:21.532Z</time></trkpt><trkpt lat="45.3818778" lon="7.8834592"><ele>242.0</ele><time>2026-04-25T14:38:23.532Z</time></trkpt><trkpt lat="45.3818402" lon="7.8835818"><ele>241.39999999999998</ele><time>2026-04-25T14:38:25.532Z</time></trkpt><trkpt lat="45.3818103" lon="7.8837069"><ele>240.79999999999998</ele><time>2026-04-25T14:38:27.532Z</time></trkpt><trkpt lat="45.3817903" lon="7.8838391"><ele>240.2</ele><time>2026-04-25T14:38:29.532Z</time></trkpt><trkpt lat="45.3817703" lon="7.8839745"><ele>239.6</ele><time>2026-04-25T14:38:31.532Z</time></trkpt><trkpt lat="45.3817586" lon="7.8840985"><ele>239.0</ele><time>2026-04-25T14:38:33.533Z</time></trkpt><trkpt lat="45.3817436" lon="7.8842143"><ele>239.14285714285717</ele><time>2026-04-25T14:38:35.532Z</time></trkpt><trkpt lat="45.3817368" lon="7.8843244"><ele>239.28571428571428</ele><time>2026-04-25T14:38:37.532Z</time></trkpt><trkpt lat="45.3817142" lon="7.8844358"><ele>239.42857142857144</ele><time>2026-04-25T14:38:39.534Z</time></trkpt><trkpt lat="45.3817032" lon="7.8845285"><ele>239.57142857142858</ele><time>2026-04-25T14:38:41.533Z</time></trkpt><trkpt lat="45.3817053" lon="7.8846265"><ele>239.71428571428572</ele><time>2026-04-25T14:39:27.534Z</time></trkpt><trkpt lat="45.381683" lon="7.8847357"><ele>239.85714285714286</ele><time>2026-04-25T14:39:30.535Z</time></trkpt><trkpt lat="45.3816569" lon="7.884825"><ele>240.0</ele><time>2026-04-25T14:39:32.534Z</time></trkpt><trkpt lat="45.3816102" lon="7.8849073"><ele>240.0</ele><time>2026-04-25T14:39:34.534Z</time></trkpt><trkpt lat="45.3815773" lon="7.8850215"><ele>240.0</ele><time>2026-04-25T14:39:36.534Z</time></trkpt><trkpt lat="45.3815512" lon="7.8851317"><ele>240.0</ele><time>2026-04-25T14:39:38.534Z</time></trkpt><trkpt lat="45.3815172" lon="7.8852524"><ele>240.0</ele><time>2026-04-25T14:39:40.535Z</time></trkpt><trkpt lat="45.3814771" lon="7.885396"><ele>240.0</ele><time>2026-04-25T14:39:42.534Z</time></trkpt><trkpt lat="45.3814389" lon="7.8855576"><ele>239.5</ele><time>2026-04-25T14:39:44.534Z</time></trkpt><trkpt lat="45.381379" lon="7.8856975"><ele>239.0</ele><time>2026-04-25T14:39:46.534Z</time></trkpt><trkpt lat="45.3812967" lon="7.8858336"><ele>238.5</ele><time>2026-04-25T14:39:48.534Z</time></trkpt><trkpt lat="45.3812154" lon="7.8859641"><ele>238.0</ele><time>2026-04-25T14:39:50.534Z</time></trkpt><trkpt lat="45.381142" lon="7.8860816"><ele>237.60000000000002</ele><time>2026-04-25T14:39:52.534Z</time></trkpt><trkpt lat="45.3810795" lon="7.8862055"><ele>237.20000000000002</ele><time>2026-04-25T14:39:54.534Z</time></trkpt><trkpt lat="45.3810202" lon="7.8863207"><ele>236.8</ele><time>2026-04-25T14:39:56.534Z</time></trkpt><trkpt lat="45.3809822" lon="7.8864417"><ele>236.4</ele><time>2026-04-25T14:39:58.534Z</time></trkpt><trkpt lat="45.380949" lon="7.8865803"><ele>236.0</ele><time>2026-04-25T14:40:00.535Z</time></trkpt><trkpt lat="45.3809109" lon="7.8867251"><ele>235.60000000000002</ele><time>2026-04-25T14:40:02.535Z</time></trkpt><trkpt lat="45.3808811" lon="7.8868743"><ele>235.20000000000002</ele><time>2026-04-25T14:40:04.535Z</time></trkpt><trkpt lat="45.3808439" lon="7.8870244"><ele>234.79999999999998</ele><time>2026-04-25T14:40:06.534Z</time></trkpt><trkpt lat="45.3808325" lon="7.887176"><ele>234.39999999999998</ele><time>2026-04-25T14:40:08.534Z</time></trkpt><trkpt lat="45.3808156" lon="7.8873257"><ele>234.0</ele><time>2026-04-25T14:40:10.535Z</time></trkpt><trkpt lat="45.3808097" lon="7.8874664"><ele>233.83333333333334</ele><time>2026-04-25T14:40:12.535Z</time></trkpt><trkpt lat="45.3808023" lon="7.8875954"><ele>233.66666666666669</ele><time>2026-04-25T14:40:14.535Z</time></trkpt><trkpt lat="45.3808" lon="7.8877141"><ele>233.5</ele><time>2026-04-25T14:40:16.535Z</time></trkpt><trkpt lat="45.3807873" lon="7.8878155"><ele>233.33333333333334</ele><time>2026-04-25T14:40:18.535Z</time></trkpt><trkpt lat="45.3807702" lon="7.887921"><ele>233.16666666666669</ele><time>2026-04-25T14:40:20.535Z</time></trkpt><trkpt lat="45.3807588" lon="7.8880369"><ele>233.0</ele><time>2026-04-25T14:40:22.535Z</time></trkpt><trkpt lat="45.3807482" lon="7.8881684"><ele>233.0</ele><time>2026-04-25T14:40:24.535Z</time></trkpt><trkpt lat="45.3807205" lon="7.8883024"><ele>233.0</ele><time>2026-04-25T14:40:26.535Z</time></trkpt><trkpt lat="45.3806636" lon="7.8884059"><ele>233.0</ele><time>2026-04-25T14:40:28.535Z</time></trkpt><trkpt lat="45.3805882" lon="7.8884834"><ele>233.0</ele><time>2026-04-25T14:40:30.535Z</time></trkpt><trkpt lat="45.3805004" lon="7.8885304"><ele>233.0</ele><time>2026-04-25T14:40:32.535Z</time></trkpt><trkpt lat="45.3804097" lon="7.8885742"><ele>233.33333333333334</ele><time>2026-04-25T14:40:34.535Z</time></trkpt><trkpt lat="45.3803162" lon="7.8886121"><ele>233.66666666666669</ele><time>2026-04-25T14:40:36.535Z</time></trkpt><trkpt lat="45.3802319" lon="7.8886246"><ele>234.0</ele><time>2026-04-25T14:40:38.535Z</time></trkpt><trkpt lat="45.3801584" lon="7.8886403"><ele>234.33333333333331</ele><time>2026-04-25T14:40:40.535Z</time></trkpt><trkpt lat="45.3800922" lon="7.8886588"><ele>234.66666666666666</ele><time>2026-04-25T14:40:42.535Z</time></trkpt><trkpt lat="45.3800054" lon="7.8886904"><ele>235.0</ele><time>2026-04-25T14:40:45.535Z</time></trkpt><trkpt lat="45.3799167" lon="7.8887166"><ele>234.99999999999997</ele><time>2026-04-25T14:40:48.535Z</time></trkpt><trkpt lat="45.379852" lon="7.8887384"><ele>235.0</ele><time>2026-04-25T14:40:50.535Z</time></trkpt><trkpt lat="45.3797916" lon="7.8887738"><ele>235.0</ele><time>2026-04-25T14:40:52.536Z</time></trkpt><trkpt lat="45.3797062" lon="7.8888351"><ele>235.0</ele><time>2026-04-25T14:40:55.535Z</time></trkpt><trkpt lat="45.379635" lon="7.8888653"><ele>234.99999999999997</ele><time>2026-04-25T14:40:57.536Z</time></trkpt><trkpt lat="45.3795613" lon="7.8889032"><ele>235.0</ele><time>2026-04-25T14:40:59.536Z</time></trkpt><trkpt lat="45.3794936" lon="7.8889414"><ele>234.57142857142856</ele><time>2026-04-25T14:41:01.536Z</time></trkpt><trkpt lat="45.3794255" lon="7.8889903"><ele>234.1428571428571</ele><time>2026-04-25T14:41:03.536Z</time></trkpt><trkpt lat="45.3793529" lon="7.8890287"><ele>233.71428571428572</ele><time>2026-04-25T14:41:05.536Z</time></trkpt><trkpt lat="45.3792652" lon="7.8890577"><ele>233.28571428571428</ele><time>2026-04-25T14:41:08.536Z</time></trkpt><trkpt lat="45.3792064" lon="7.8890946"><ele>232.85714285714286</ele><time>2026-04-25T14:41:10.537Z</time></trkpt><trkpt lat="45.3791414" lon="7.8891292"><ele>232.42857142857144</ele><time>2026-04-25T14:41:12.537Z</time></trkpt><trkpt lat="45.3790807" lon="7.8891711"><ele>232.00000000000003</ele><time>2026-04-25T14:41:14.537Z</time></trkpt><trkpt lat="45.3790156" lon="7.8892023"><ele>231.99999999999997</ele><time>2026-04-25T14:41:16.537Z</time></trkpt><trkpt lat="45.378948" lon="7.8892271"><ele>232.0</ele><time>2026-04-25T14:41:18.536Z</time></trkpt><trkpt lat="45.3788816" lon="7.8892709"><ele>232.0</ele><time>2026-04-25T14:41:20.536Z</time></trkpt><trkpt lat="45.3788167" lon="7.8893074"><ele>232.0</ele><time>2026-04-25T14:41:22.537Z</time></trkpt><trkpt lat="45.3787553" lon="7.88934"><ele>231.99999999999997</ele><time>2026-04-25T14:41:24.536Z</time></trkpt><trkpt lat="45.3786658" lon="7.8893797"><ele>232.0</ele><time>2026-04-25T14:41:27.536Z</time></trkpt><trkpt lat="45.3785839" lon="7.8894095"><ele>232.14285714285717</ele><time>2026-04-25T14:41:30.536Z</time></trkpt><trkpt lat="45.3785159" lon="7.8894213"><ele>232.28571428571428</ele><time>2026-04-25T14:41:33.537Z</time></trkpt><trkpt lat="45.3784308" lon="7.8894383"><ele>232.42857142857144</ele><time>2026-04-25T14:41:37.536Z</time></trkpt><trkpt lat="45.3783728" lon="7.8894856"><ele>232.57142857142858</ele><time>2026-04-25T14:41:40.536Z</time></trkpt><trkpt lat="45.3783111" lon="7.889556"><ele>232.71428571428572</ele><time>2026-04-25T14:41:43.537Z</time></trkpt><trkpt lat="45.378251" lon="7.8895907"><ele>232.85714285714286</ele><time>2026-04-25T14:41:45.537Z</time></trkpt><trkpt lat="45.3781749" lon="7.8895885"><ele>233.0</ele><time>2026-04-25T14:41:47.538Z</time></trkpt><trkpt lat="45.3780927" lon="7.8895823"><ele>233.00000000000003</ele><time>2026-04-25T14:41:49.538Z</time></trkpt><trkpt lat="45.3780244" lon="7.8895813"><ele>233.0</ele><time>2026-04-25T14:41:51.537Z</time></trkpt><trkpt lat="45.3779439" lon="7.8895724"><ele>233.0</ele><time>2026-04-25T14:41:53.537Z</time></trkpt><trkpt lat="45.3778593" lon="7.8895835"><ele>233.0</ele><time>2026-04-25T14:41:55.538Z</time></trkpt><trkpt lat="45.3777698" lon="7.8895961"><ele>233.00000000000003</ele><time>2026-04-25T14:41:57.537Z</time></trkpt><trkpt lat="45.3776707" lon="7.8896003"><ele>233.0</ele><time>2026-04-25T14:41:59.537Z</time></trkpt><trkpt lat="45.3775719" lon="7.8895902"><ele>232.8</ele><time>2026-04-25T14:42:01.538Z</time></trkpt><trkpt lat="45.3774696" lon="7.8895777"><ele>232.60000000000002</ele><time>2026-04-25T14:42:03.538Z</time></trkpt><trkpt lat="45.3773667" lon="7.8895701"><ele>232.39999999999998</ele><time>2026-04-25T14:42:05.537Z</time></trkpt><trkpt lat="45.3772487" lon="7.8895688"><ele>232.2</ele><time>2026-04-25T14:42:07.537Z</time></trkpt><trkpt lat="45.377137" lon="7.889578"><ele>232.0</ele><time>2026-04-25T14:42:09.538Z</time></trkpt><trkpt lat="45.3770286" lon="7.889595"><ele>231.5</ele><time>2026-04-25T14:42:11.538Z</time></trkpt><trkpt lat="45.376921" lon="7.8895845"><ele>231.0</ele><time>2026-04-25T14:42:13.538Z</time></trkpt><trkpt lat="45.3768073" lon="7.8895739"><ele>230.5</ele><time>2026-04-25T14:42:15.537Z</time></trkpt><trkpt lat="45.3766899" lon="7.8895793"><ele>230.0</ele><time>2026-04-25T14:42:17.537Z</time></trkpt><trkpt lat="45.3765757" lon="7.8895858"><ele>230.0</ele><time>2026-04-25T14:42:19.537Z</time></trkpt><trkpt lat="45.3764586" lon="7.8895825"><ele>230.0</ele><time>2026-04-25T14:42:21.538Z</time></trkpt><trkpt lat="45.376348" lon="7.8895897"><ele>230.0</ele><time>2026-04-25T14:42:23.537Z</time></trkpt><trkpt lat="45.3762366" lon="7.8895911"><ele>230.0</ele><time>2026-04-25T14:42:25.537Z</time></trkpt><trkpt lat="45.3761224" lon="7.8895947"><ele>230.2</ele><time>2026-04-25T14:42:27.538Z</time></trkpt><trkpt lat="45.3760131" lon="7.8895927"><ele>230.4</ele><time>2026-04-25T14:42:29.538Z</time></trkpt><trkpt lat="45.3759116" lon="7.8895872"><ele>230.60000000000002</ele><time>2026-04-25T14:42:31.538Z</time></trkpt><trkpt lat="45.3758183" lon="7.8895874"><ele>230.8</ele><time>2026-04-25T14:42:33.539Z</time></trkpt><trkpt lat="45.3757303" lon="7.8895935"><ele>231.0</ele><time>2026-04-25T14:42:35.538Z</time></trkpt><trkpt lat="45.3756508" lon="7.8895836"><ele>231.0</ele><time>2026-04-25T14:42:37.538Z</time></trkpt><trkpt lat="45.3755632" lon="7.8895823"><ele>231.0</ele><time>2026-04-25T14:42:39.538Z</time></trkpt><trkpt lat="45.375484" lon="7.8895743"><ele>231.0</ele><time>2026-04-25T14:42:41.538Z</time></trkpt><trkpt lat="45.3753992" lon="7.8895698"><ele>231.0</ele><time>2026-04-25T14:42:43.538Z</time></trkpt><trkpt lat="45.3753151" lon="7.8895582"><ele>231.0</ele><time>2026-04-25T14:42:45.538Z</time></trkpt><trkpt lat="45.3752292" lon="7.8895533"><ele>231.0</ele><time>2026-04-25T14:42:47.538Z</time></trkpt><trkpt lat="45.3751467" lon="7.8895655"><ele>230.83333333333334</ele><time>2026-04-25T14:42:49.538Z</time></trkpt><trkpt lat="45.3750634" lon="7.8895916"><ele>230.66666666666669</ele><time>2026-04-25T14:42:51.538Z</time></trkpt><trkpt lat="45.3749877" lon="7.8896163"><ele>230.5</ele><time>2026-04-25T14:42:53.539Z</time></trkpt><trkpt lat="45.3749247" lon="7.8896351"><ele>230.33333333333334</ele><time>2026-04-25T14:42:55.539Z</time></trkpt><trkpt lat="45.3748496" lon="7.8897034"><ele>230.16666666666669</ele><time>2026-04-25T14:42:58.538Z</time></trkpt><trkpt lat="45.374793" lon="7.8897626"><ele>230.0</ele><time>2026-04-25T14:43:01.538Z</time></trkpt><trkpt lat="45.3747283" lon="7.8897528"><ele>230.1428571428571</ele><time>2026-04-25T14:43:53.539Z</time></trkpt><trkpt lat="45.3746634" lon="7.8897544"><ele>230.28571428571428</ele><time>2026-04-25T14:43:55.539Z</time></trkpt><trkpt lat="45.3745839" lon="7.8897606"><ele>230.42857142857142</ele><time>2026-04-25T14:43:57.539Z</time></trkpt><trkpt lat="45.3745041" lon="7.8897613"><ele>230.57142857142856</ele><time>2026-04-25T14:43:59.539Z</time></trkpt><trkpt lat="45.3744313" lon="7.8897733"><ele>230.71428571428572</ele><time>2026-04-25T14:44:01.539Z</time></trkpt><trkpt lat="45.3743692" lon="7.8898114"><ele>230.85714285714286</ele><time>2026-04-25T14:44:03.539Z</time></trkpt><trkpt lat="45.3743" lon="7.8898412"><ele>231.0</ele><time>2026-04-25T14:44:05.539Z</time></trkpt><trkpt lat="45.3742241" lon="7.8898496"><ele>231.0</ele><time>2026-04-25T14:44:07.539Z</time></trkpt><trkpt lat="45.3741557" lon="7.8898876"><ele>231.0</ele><time>2026-04-25T14:44:09.539Z</time></trkpt><trkpt lat="45.3740896" lon="7.8899216"><ele>231.0</ele><time>2026-04-25T14:44:11.539Z</time></trkpt><trkpt lat="45.3740146" lon="7.8899327"><ele>231.0</ele><time>2026-04-25T14:44:13.539Z</time></trkpt><trkpt lat="45.3739343" lon="7.889962"><ele>231.0</ele><time>2026-04-25T14:44:15.539Z</time></trkpt><trkpt lat="45.3738558" lon="7.8899782"><ele>231.0</ele><time>2026-04-25T14:44:17.54Z</time></trkpt><trkpt lat="45.373774" lon="7.8900036"><ele>231.0</ele><time>2026-04-25T14:44:19.54Z</time></trkpt><trkpt lat="45.3736971" lon="7.8900358"><ele>231.0</ele><time>2026-04-25T14:44:21.54Z</time></trkpt><trkpt lat="45.3736247" lon="7.8900687"><ele>231.0</ele><time>2026-04-25T14:44:23.541Z</time></trkpt><trkpt lat="45.3735867" lon="7.8901587"><ele>231.0</ele><time>2026-04-25T14:44:25.54Z</time></trkpt><trkpt lat="45.3735864" lon="7.890279"><ele>231.0</ele><time>2026-04-25T14:44:27.54Z</time></trkpt><trkpt lat="45.3736043" lon="7.8904144"><ele>231.0</ele><time>2026-04-25T14:44:29.54Z</time></trkpt><trkpt lat="45.3736204" lon="7.8905345"><ele>231.0</ele><time>2026-04-25T14:44:31.541Z</time></trkpt><trkpt lat="45.3736271" lon="7.890643"><ele>231.0</ele><time>2026-04-25T14:44:33.54Z</time></trkpt><trkpt lat="45.3736488" lon="7.8907447"><ele>231.0</ele><time>2026-04-25T14:44:35.54Z</time></trkpt><trkpt lat="45.3736627" lon="7.8908475"><ele>231.0</ele><time>2026-04-25T14:44:37.54Z</time></trkpt><trkpt lat="45.3736793" lon="7.890944"><ele>231.0</ele><time>2026-04-25T14:44:39.54Z</time></trkpt><trkpt lat="45.3736972" lon="7.8910462"><ele>231.0</ele><time>2026-04-25T14:44:41.54Z</time></trkpt><trkpt lat="45.3737114" lon="7.8911441"><ele>231.0</ele><time>2026-04-25T14:44:43.541Z</time></trkpt><trkpt lat="45.373729" lon="7.8912483"><ele>231.0</ele><time>2026-04-25T14:44:45.54Z</time></trkpt><trkpt lat="45.3737486" lon="7.8913552"><ele>231.0</ele><time>2026-04-25T14:44:47.541Z</time></trkpt><trkpt lat="45.3737654" lon="7.8914618"><ele>231.0</ele><time>2026-04-25T14:44:49.54Z</time></trkpt><trkpt lat="45.3737848" lon="7.8915785"><ele>231.0</ele><time>2026-04-25T14:44:51.541Z</time></trkpt><trkpt lat="45.373804" lon="7.8916962"><ele>231.0</ele><time>2026-04-25T14:44:53.54Z</time></trkpt><trkpt lat="45.3738205" lon="7.891811"><ele>231.0</ele><time>2026-04-25T14:44:55.54Z</time></trkpt><trkpt lat="45.3738345" lon="7.8919304"><ele>231.0</ele><time>2026-04-25T14:44:57.54Z</time></trkpt><trkpt lat="45.3738566" lon="7.892052"><ele>231.0</ele><time>2026-04-25T14:44:59.54Z</time></trkpt><trkpt lat="45.3738795" lon="7.8921702"><ele>231.0</ele><time>2026-04-25T14:45:01.54Z</time></trkpt><trkpt lat="45.373899" lon="7.8922908"><ele>231.0</ele><time>2026-04-25T14:45:03.541Z</time></trkpt><trkpt lat="45.3739201" lon="7.8924098"><ele>231.0</ele><time>2026-04-25T14:45:05.541Z</time></trkpt><trkpt lat="45.37394" lon="7.8925288"><ele>231.0</ele><time>2026-04-25T14:45:07.541Z</time></trkpt><trkpt lat="45.3739571" lon="7.8926496"><ele>230.83333333333334</ele><time>2026-04-25T14:45:09.541Z</time></trkpt><trkpt lat="45.3739797" lon="7.892774"><ele>230.66666666666669</ele><time>2026-04-25T14:45:11.541Z</time></trkpt><trkpt lat="45.3739992" lon="7.8928891"><ele>230.5</ele><time>2026-04-25T14:45:13.541Z</time></trkpt><trkpt lat="45.3740173" lon="7.893013"><ele>230.33333333333334</ele><time>2026-04-25T14:45:15.541Z</time></trkpt><trkpt lat="45.3740378" lon="7.8931276"><ele>230.16666666666669</ele><time>2026-04-25T14:45:17.541Z</time></trkpt><trkpt lat="45.3740545" lon="7.8932404"><ele>230.0</ele><time>2026-04-25T14:45:19.541Z</time></trkpt><trkpt lat="45.3740715" lon="7.8933455"><ele>230.16666666666669</ele><time>2026-04-25T14:45:21.541Z</time></trkpt><trkpt lat="45.374091" lon="7.8934436"><ele>230.33333333333334</ele><time>2026-04-25T14:45:23.541Z</time></trkpt><trkpt lat="45.3741054" lon="7.8935488"><ele>230.5</ele><time>2026-04-25T14:45:25.541Z</time></trkpt><trkpt lat="45.3741218" lon="7.8936572"><ele>230.66666666666669</ele><time>2026-04-25T14:45:27.542Z</time></trkpt><trkpt lat="45.3741374" lon="7.8937649"><ele>230.83333333333334</ele><time>2026-04-25T14:45:29.541Z</time></trkpt><trkpt lat="45.3741544" lon="7.8938669"><ele>231.0</ele><time>2026-04-25T14:45:31.542Z</time></trkpt><trkpt lat="45.3741696" lon="7.8939702"><ele>231.0</ele><time>2026-04-25T14:45:33.541Z</time></trkpt><trkpt lat="45.3741797" lon="7.8940707"><ele>231.0</ele><time>2026-04-25T14:45:35.541Z</time></trkpt><trkpt lat="45.3741885" lon="7.8941691"><ele>231.0</ele><time>2026-04-25T14:45:37.541Z</time></trkpt><trkpt lat="45.3741901" lon="7.8943059"><ele>231.0</ele><time>2026-04-25T14:45:40.542Z</time></trkpt><trkpt lat="45.3741835" lon="7.8944065"><ele>231.0</ele><time>2026-04-25T14:45:42.541Z</time></trkpt><trkpt lat="45.3741912" lon="7.89451"><ele>231.0</ele><time>2026-04-25T14:45:44.541Z</time></trkpt><trkpt lat="45.374205" lon="7.8946051"><ele>231.0</ele><time>2026-04-25T14:45:46.541Z</time></trkpt><trkpt lat="45.3742184" lon="7.8947076"><ele>231.14285714285714</ele><time>2026-04-25T14:45:48.541Z</time></trkpt><trkpt lat="45.3742284" lon="7.8948076"><ele>231.28571428571428</ele><time>2026-04-25T14:45:50.542Z</time></trkpt><trkpt lat="45.374226" lon="7.8948979"><ele>231.42857142857144</ele><time>2026-04-25T14:45:52.542Z</time></trkpt><trkpt lat="45.3742494" lon="7.8949915"><ele>231.57142857142858</ele><time>2026-04-25T14:45:54.543Z</time></trkpt><trkpt lat="45.3742792" lon="7.8951112"><ele>231.71428571428572</ele><time>2026-04-25T14:45:57.543Z</time></trkpt><trkpt lat="45.3742941" lon="7.8952036"><ele>231.8571428571429</ele><time>2026-04-25T14:45:59.542Z</time></trkpt><trkpt lat="45.3743064" lon="7.8953006"><ele>232.00000000000003</ele><time>2026-04-25T14:46:01.542Z</time></trkpt><trkpt lat="45.3743246" lon="7.8954318"><ele>232.0</ele><time>2026-04-25T14:46:04.542Z</time></trkpt><trkpt lat="45.3743328" lon="7.8955359"><ele>232.0</ele><time>2026-04-25T14:46:07.542Z</time></trkpt><trkpt lat="45.3742927" lon="7.8956442"><ele>232.0</ele><time>2026-04-25T14:46:11.542Z</time></trkpt><trkpt lat="45.3741942" lon="7.8956779"><ele>232.0</ele><time>2026-04-25T14:46:14.542Z</time></trkpt><trkpt lat="45.3740986" lon="7.8956819"><ele>232.0</ele><time>2026-04-25T14:46:16.542Z</time></trkpt><trkpt lat="45.3739985" lon="7.8956991"><ele>232.0</ele><time>2026-04-25T14:46:18.542Z</time></trkpt><trkpt lat="45.3739" lon="7.8957323"><ele>232.0</ele><time>2026-04-25T14:46:20.542Z</time></trkpt><trkpt lat="45.3738001" lon="7.895762"><ele>232.0</ele><time>2026-04-25T14:46:22.542Z</time></trkpt><trkpt lat="45.373697" lon="7.8957999"><ele>232.0</ele><time>2026-04-25T14:46:24.543Z</time></trkpt><trkpt lat="45.3735961" lon="7.8958475"><ele>232.0</ele><time>2026-04-25T14:46:26.543Z</time></trkpt><trkpt lat="45.3734921" lon="7.8958934"><ele>232.0</ele><time>2026-04-25T14:46:28.542Z</time></trkpt><trkpt lat="45.373388" lon="7.8959443"><ele>232.0</ele><time>2026-04-25T14:46:30.542Z</time></trkpt><trkpt lat="45.3732765" lon="7.896006"><ele>232.0</ele><time>2026-04-25T14:46:32.542Z</time></trkpt><trkpt lat="45.3731658" lon="7.8960643"><ele>232.0</ele><time>2026-04-25T14:46:34.543Z</time></trkpt><trkpt lat="45.3730597" lon="7.8961258"><ele>232.0</ele><time>2026-04-25T14:46:36.543Z</time></trkpt><trkpt lat="45.3729649" lon="7.8961949"><ele>232.0</ele><time>2026-04-25T14:46:38.544Z</time></trkpt><trkpt lat="45.3728769" lon="7.8962606"><ele>232.0</ele><time>2026-04-25T14:46:40.543Z</time></trkpt><trkpt lat="45.3727913" lon="7.8963245"><ele>232.0</ele><time>2026-04-25T14:46:42.543Z</time></trkpt><trkpt lat="45.3727071" lon="7.8963949"><ele>232.0</ele><time>2026-04-25T14:46:44.543Z</time></trkpt><trkpt lat="45.3726232" lon="7.8964626"><ele>232.0</ele><time>2026-04-25T14:46:46.543Z</time></trkpt><trkpt lat="45.3725422" lon="7.8965346"><ele>232.0</ele><time>2026-04-25T14:46:48.544Z</time></trkpt><trkpt lat="45.3724588" lon="7.8966054"><ele>232.0</ele><time>2026-04-25T14:46:50.543Z</time></trkpt><trkpt lat="45.3723819" lon="7.8966807"><ele>232.0</ele><time>2026-04-25T14:46:52.543Z</time></trkpt><trkpt lat="45.3723044" lon="7.8967645"><ele>232.0</ele><time>2026-04-25T14:46:54.543Z</time></trkpt><trkpt lat="45.3722208" lon="7.8968465"><ele>232.0</ele><time>2026-04-25T14:46:56.543Z</time></trkpt><trkpt lat="45.3721376" lon="7.8969372"><ele>232.0</ele><time>2026-04-25T14:46:58.543Z</time></trkpt><trkpt lat="45.372058" lon="7.8970303"><ele>232.0</ele><time>2026-04-25T14:47:00.543Z</time></trkpt><trkpt lat="45.3719815" lon="7.8971258"><ele>232.0</ele><time>2026-04-25T14:47:02.543Z</time></trkpt><trkpt lat="45.3719031" lon="7.8972242"><ele>232.0</ele><time>2026-04-25T14:47:04.543Z</time></trkpt><trkpt lat="45.3718258" lon="7.8973259"><ele>232.0</ele><time>2026-04-25T14:47:06.543Z</time></trkpt><trkpt lat="45.3717508" lon="7.8974375"><ele>232.0</ele><time>2026-04-25T14:47:08.543Z</time></trkpt><trkpt lat="45.3716799" lon="7.8975398"><ele>232.0</ele><time>2026-04-25T14:47:10.543Z</time></trkpt><trkpt lat="45.3716061" lon="7.8976562"><ele>232.0</ele><time>2026-04-25T14:47:12.544Z</time></trkpt><trkpt lat="45.3715356" lon="7.8977656"><ele>232.0</ele><time>2026-04-25T14:47:14.543Z</time></trkpt><trkpt lat="45.3714659" lon="7.8978787"><ele>232.0</ele><time>2026-04-25T14:47:16.543Z</time></trkpt><trkpt lat="45.3713914" lon="7.8979838"><ele>232.0</ele><time>2026-04-25T14:47:18.543Z</time></trkpt><trkpt lat="45.3713218" lon="7.8980876"><ele>232.0</ele><time>2026-04-25T14:47:20.544Z</time></trkpt><trkpt lat="45.3712474" lon="7.8981842"><ele>232.0</ele><time>2026-04-25T14:47:22.544Z</time></trkpt><trkpt lat="45.3711631" lon="7.8982838"><ele>232.0</ele><time>2026-04-25T14:47:24.544Z</time></trkpt><trkpt lat="45.3710757" lon="7.8983824"><ele>232.0</ele><time>2026-04-25T14:47:26.544Z</time></trkpt><trkpt lat="45.3709892" lon="7.8984767"><ele>232.0</ele><time>2026-04-25T14:47:28.544Z</time></trkpt><trkpt lat="45.3709067" lon="7.8985726"><ele>232.0</ele><time>2026-04-25T14:47:30.544Z</time></trkpt><trkpt lat="45.3708278" lon="7.8986538"><ele>232.0</ele><time>2026-04-25T14:47:32.545Z</time></trkpt><trkpt lat="45.3707385" lon="7.8987335"><ele>232.0</ele><time>2026-04-25T14:47:34.544Z</time></trkpt><trkpt lat="45.3706475" lon="7.8988149"><ele>232.0</ele><time>2026-04-25T14:47:36.545Z</time></trkpt><trkpt lat="45.3705595" lon="7.8988952"><ele>232.0</ele><time>2026-04-25T14:47:38.544Z</time></trkpt><trkpt lat="45.3704704" lon="7.8989695"><ele>232.0</ele><time>2026-04-25T14:47:40.544Z</time></trkpt><trkpt lat="45.3703806" lon="7.8990467"><ele>232.0</ele><time>2026-04-25T14:47:42.544Z</time></trkpt><trkpt lat="45.3702895" lon="7.8991219"><ele>232.0</ele><time>2026-04-25T14:47:44.544Z</time></trkpt><trkpt lat="45.3702022" lon="7.8991884"><ele>231.8</ele><time>2026-04-25T14:47:46.544Z</time></trkpt><trkpt lat="45.3701095" lon="7.8992463"><ele>231.6</ele><time>2026-04-25T14:47:48.544Z</time></trkpt><trkpt lat="45.3700192" lon="7.8993049"><ele>231.40000000000003</ele><time>2026-04-25T14:47:50.544Z</time></trkpt><trkpt lat="45.3699247" lon="7.8993634"><ele>231.20000000000002</ele><time>2026-04-25T14:47:52.544Z</time></trkpt><trkpt lat="45.3698293" lon="7.8994117"><ele>231.0</ele><time>2026-04-25T14:47:54.544Z</time></trkpt><trkpt lat="45.3697317" lon="7.8994614"><ele>230.8</ele><time>2026-04-25T14:47:56.544Z</time></trkpt><trkpt lat="45.3696395" lon="7.8995054"><ele>230.60000000000002</ele><time>2026-04-25T14:47:58.544Z</time></trkpt><trkpt lat="45.369546" lon="7.8995446"><ele>230.4</ele><time>2026-04-25T14:48:00.544Z</time></trkpt><trkpt lat="45.3694462" lon="7.8995881"><ele>230.2</ele><time>2026-04-25T14:48:02.545Z</time></trkpt><trkpt lat="45.3693461" lon="7.899632"><ele>230.0</ele><time>2026-04-25T14:48:04.545Z</time></trkpt><trkpt lat="45.3692484" lon="7.8996728"><ele>230.0</ele><time>2026-04-25T14:48:06.545Z</time></trkpt><trkpt lat="45.3691425" lon="7.8997168"><ele>230.0</ele><time>2026-04-25T14:48:08.545Z</time></trkpt><trkpt lat="45.3690372" lon="7.899761"><ele>230.0</ele><time>2026-04-25T14:48:10.546Z</time></trkpt><trkpt lat="45.3689319" lon="7.8998053"><ele>230.0</ele><time>2026-04-25T14:48:12.545Z</time></trkpt><trkpt lat="45.3688247" lon="7.8998511"><ele>230.0</ele><time>2026-04-25T14:48:14.545Z</time></trkpt><trkpt lat="45.3687194" lon="7.8999021"><ele>230.0</ele><time>2026-04-25T14:48:16.545Z</time></trkpt><trkpt lat="45.3686138" lon="7.8999463"><ele>230.0</ele><time>2026-04-25T14:48:18.545Z</time></trkpt><trkpt lat="45.3685109" lon="7.8999858"><ele>230.0</ele><time>2026-04-25T14:48:20.545Z</time></trkpt><trkpt lat="45.3684126" lon="7.9000282"><ele>230.0</ele><time>2026-04-25T14:48:22.545Z</time></trkpt><trkpt lat="45.3683105" lon="7.9000737"><ele>230.0</ele><time>2026-04-25T14:48:24.546Z</time></trkpt><trkpt lat="45.3682068" lon="7.9001201"><ele>230.0</ele><time>2026-04-25T14:48:26.545Z</time></trkpt><trkpt lat="45.3681039" lon="7.9001595"><ele>230.0</ele><time>2026-04-25T14:48:28.545Z</time></trkpt><trkpt lat="45.3680002" lon="7.9002068"><ele>230.0</ele><time>2026-04-25T14:48:30.545Z</time></trkpt><trkpt lat="45.3678922" lon="7.9002462"><ele>230.0</ele><time>2026-04-25T14:48:32.545Z</time></trkpt><trkpt lat="45.3677889" lon="7.9002925"><ele>230.0</ele><time>2026-04-25T14:48:34.545Z</time></trkpt><trkpt lat="45.3676848" lon="7.9003431"><ele>230.0</ele><time>2026-04-25T14:48:36.545Z</time></trkpt><trkpt lat="45.3675837" lon="7.9003875"><ele>230.0</ele><time>2026-04-25T14:48:38.545Z</time></trkpt><trkpt lat="45.3674833" lon="7.9004314"><ele>230.0</ele><time>2026-04-25T14:48:40.545Z</time></trkpt><trkpt lat="45.3673841" lon="7.9004731"><ele>230.0</ele><time>2026-04-25T14:48:42.545Z</time></trkpt><trkpt lat="45.3672826" lon="7.9005188"><ele>230.0</ele><time>2026-04-25T14:48:44.545Z</time></trkpt><trkpt lat="45.3671813" lon="7.900556"><ele>230.0</ele><time>2026-04-25T14:48:46.545Z</time></trkpt><trkpt lat="45.3670799" lon="7.9005992"><ele>230.0</ele><time>2026-04-25T14:48:48.545Z</time></trkpt><trkpt lat="45.3669839" lon="7.9006453"><ele>230.0</ele><time>2026-04-25T14:48:50.547Z</time></trkpt><trkpt lat="45.3668907" lon="7.9006811"><ele>230.0</ele><time>2026-04-25T14:48:52.546Z</time></trkpt><trkpt lat="45.3667912" lon="7.9007316"><ele>230.0</ele><time>2026-04-25T14:48:54.547Z</time></trkpt><trkpt lat="45.3666865" lon="7.9007805"><ele>230.0</ele><time>2026-04-25T14:48:56.547Z</time></trkpt><trkpt lat="45.3665788" lon="7.90083"><ele>230.0</ele><time>2026-04-25T14:48:58.546Z</time></trkpt><trkpt lat="45.3664722" lon="7.9008893"><ele>230.0</ele><time>2026-04-25T14:49:00.547Z</time></trkpt><trkpt lat="45.3663604" lon="7.9009494"><ele>230.0</ele><time>2026-04-25T14:49:02.546Z</time></trkpt><trkpt lat="45.3662502" lon="7.9010158"><ele>229.75</ele><time>2026-04-25T14:49:04.547Z</time></trkpt><trkpt lat="45.3661442" lon="7.9010817"><ele>229.5</ele><time>2026-04-25T14:49:06.546Z</time></trkpt><trkpt lat="45.3660357" lon="7.9011487"><ele>229.25</ele><time>2026-04-25T14:49:08.546Z</time></trkpt><trkpt lat="45.3659386" lon="7.9012253"><ele>229.0</ele><time>2026-04-25T14:49:10.546Z</time></trkpt><trkpt lat="45.3658338" lon="7.9012949"><ele>229.0</ele><time>2026-04-25T14:49:12.546Z</time></trkpt><trkpt lat="45.3657298" lon="7.9013594"><ele>229.0</ele><time>2026-04-25T14:49:14.546Z</time></trkpt><trkpt lat="45.3656262" lon="7.9014267"><ele>229.0</ele><time>2026-04-25T14:49:16.546Z</time></trkpt><trkpt lat="45.3655201" lon="7.9014957"><ele>229.0</ele><time>2026-04-25T14:49:18.547Z</time></trkpt><trkpt lat="45.3654159" lon="7.9015642"><ele>229.0</ele><time>2026-04-25T14:49:20.546Z</time></trkpt><trkpt lat="45.3653108" lon="7.9016359"><ele>228.99999999999997</ele><time>2026-04-25T14:49:22.546Z</time></trkpt><trkpt lat="45.3652119" lon="7.9017047"><ele>228.99999999999997</ele><time>2026-04-25T14:49:24.546Z</time></trkpt><trkpt lat="45.3651094" lon="7.9017734"><ele>229.0</ele><time>2026-04-25T14:49:26.546Z</time></trkpt><trkpt lat="45.3650101" lon="7.901836"><ele>229.0</ele><time>2026-04-25T14:49:28.546Z</time></trkpt><trkpt lat="45.3649096" lon="7.9019009"><ele>229.0</ele><time>2026-04-25T14:49:30.546Z</time></trkpt><trkpt lat="45.3648123" lon="7.9019643"><ele>228.99999999999997</ele><time>2026-04-25T14:49:32.546Z</time></trkpt><trkpt lat="45.3647137" lon="7.9020353"><ele>228.99999999999997</ele><time>2026-04-25T14:49:34.547Z</time></trkpt><trkpt lat="45.3646268" lon="7.9021041"><ele>229.0</ele><time>2026-04-25T14:49:36.547Z</time></trkpt><trkpt lat="45.3645464" lon="7.9021764"><ele>229.0</ele><time>2026-04-25T14:49:38.547Z</time></trkpt><trkpt lat="45.3644564" lon="7.9022525"><ele>228.79999999999998</ele><time>2026-04-25T14:49:40.547Z</time></trkpt><trkpt lat="45.3643654" lon="7.9023395"><ele>228.59999999999997</ele><time>2026-04-25T14:49:42.547Z</time></trkpt><trkpt lat="45.3642781" lon="7.9024307"><ele>228.4</ele><time>2026-04-25T14:49:44.547Z</time></trkpt><trkpt lat="45.3641961" lon="7.9025145"><ele>228.2</ele><time>2026-04-25T14:49:46.547Z</time></trkpt><trkpt lat="45.3641212" lon="7.9026037"><ele>228.0</ele><time>2026-04-25T14:49:48.547Z</time></trkpt><trkpt lat="45.3640443" lon="7.9027094"><ele>228.0</ele><time>2026-04-25T14:49:50.547Z</time></trkpt><trkpt lat="45.3639664" lon="7.9028085"><ele>228.0</ele><time>2026-04-25T14:49:52.548Z</time></trkpt><trkpt lat="45.3638995" lon="7.9029146"><ele>228.0</ele><time>2026-04-25T14:49:54.547Z</time></trkpt><trkpt lat="45.3638237" lon="7.9030258"><ele>228.0</ele><time>2026-04-25T14:49:56.547Z</time></trkpt><trkpt lat="45.3637561" lon="7.9031464"><ele>228.0</ele><time>2026-04-25T14:49:58.547Z</time></trkpt><trkpt lat="45.3636892" lon="7.9032704"><ele>228.0</ele><time>2026-04-25T14:50:00.547Z</time></trkpt><trkpt lat="45.3636236" lon="7.9033894"><ele>228.0</ele><time>2026-04-25T14:50:02.547Z</time></trkpt><trkpt lat="45.3635656" lon="7.9035024"><ele>228.0</ele><time>2026-04-25T14:50:04.548Z</time></trkpt><trkpt lat="45.3635109" lon="7.9036108"><ele>228.0</ele><time>2026-04-25T14:50:06.548Z</time></trkpt><trkpt lat="45.3634619" lon="7.9037414"><ele>228.0</ele><time>2026-04-25T14:50:08.547Z</time></trkpt><trkpt lat="45.3634046" lon="7.9038774"><ele>228.0</ele><time>2026-04-25T14:50:10.547Z</time></trkpt><trkpt lat="45.3633537" lon="7.904003"><ele>228.0</ele><time>2026-04-25T14:50:12.547Z</time></trkpt><trkpt lat="45.3632946" lon="7.9041457"><ele>228.0</ele><time>2026-04-25T14:50:14.547Z</time></trkpt><trkpt lat="45.363241" lon="7.9042819"><ele>228.0</ele><time>2026-04-25T14:50:16.547Z</time></trkpt><trkpt lat="45.3631866" lon="7.9044093"><ele>228.0</ele><time>2026-04-25T14:50:18.547Z</time></trkpt><trkpt lat="45.3631273" lon="7.9045221"><ele>228.0</ele><time>2026-04-25T14:50:20.548Z</time></trkpt><trkpt lat="45.3630408" lon="7.9045827"><ele>228.0</ele><time>2026-04-25T14:50:22.549Z</time></trkpt><trkpt lat="45.3629328" lon="7.9045989"><ele>228.0</ele><time>2026-04-25T14:50:24.548Z</time></trkpt><trkpt lat="45.3628192" lon="7.9045587"><ele>228.0</ele><time>2026-04-25T14:50:26.549Z</time></trkpt><trkpt lat="45.3627126" lon="7.9044923"><ele>228.0</ele><time>2026-04-25T14:50:28.548Z</time></trkpt><trkpt lat="45.3626082" lon="7.9044009"><ele>228.0</ele><time>2026-04-25T14:50:30.548Z</time></trkpt><trkpt lat="45.3625057" lon="7.9043212"><ele>228.0</ele><time>2026-04-25T14:50:32.548Z</time></trkpt><trkpt lat="45.3624191" lon="7.9042423"><ele>228.0</ele><time>2026-04-25T14:50:34.548Z</time></trkpt><trkpt lat="45.3623319" lon="7.9041781"><ele>228.0</ele><time>2026-04-25T14:50:36.548Z</time></trkpt><trkpt lat="45.3622416" lon="7.9041326"><ele>228.0</ele><time>2026-04-25T14:50:38.548Z</time></trkpt><trkpt lat="45.3621392" lon="7.9040947"><ele>228.0</ele><time>2026-04-25T14:50:40.548Z</time></trkpt><trkpt lat="45.3620327" lon="7.9040782"><ele>228.0</ele><time>2026-04-25T14:50:42.548Z</time></trkpt><trkpt lat="45.3619267" lon="7.9040687"><ele>228.0</ele><time>2026-04-25T14:50:44.548Z</time></trkpt><trkpt lat="45.3618229" lon="7.9040772"><ele>228.0</ele><time>2026-04-25T14:50:46.548Z</time></trkpt><trkpt lat="45.3617227" lon="7.9040893"><ele>228.0</ele><time>2026-04-25T14:50:48.548Z</time></trkpt><trkpt lat="45.3616189" lon="7.9041182"><ele>228.0</ele><time>2026-04-25T14:50:50.549Z</time></trkpt><trkpt lat="45.3614969" lon="7.9041503"><ele>228.0</ele><time>2026-04-25T14:50:52.548Z</time></trkpt><trkpt lat="45.361384" lon="7.9041691"><ele>228.0</ele><time>2026-04-25T14:50:54.548Z</time></trkpt><trkpt lat="45.3612808" lon="7.904186"><ele>228.0</ele><time>2026-04-25T14:50:56.549Z</time></trkpt><trkpt lat="45.3611852" lon="7.9042075"><ele>228.0</ele><time>2026-04-25T14:50:58.549Z</time></trkpt><trkpt lat="45.3610851" lon="7.9042287"><ele>228.2</ele><time>2026-04-25T14:51:00.549Z</time></trkpt><trkpt lat="45.3609903" lon="7.9042558"><ele>228.4</ele><time>2026-04-25T14:51:02.549Z</time></trkpt><trkpt lat="45.3608939" lon="7.90427"><ele>228.59999999999997</ele><time>2026-04-25T14:51:04.549Z</time></trkpt><trkpt lat="45.3607955" lon="7.9042902"><ele>228.79999999999998</ele><time>2026-04-25T14:51:06.549Z</time></trkpt><trkpt lat="45.3607008" lon="7.904309"><ele>229.0</ele><time>2026-04-25T14:51:08.549Z</time></trkpt><trkpt lat="45.3606066" lon="7.9043345"><ele>228.79999999999998</ele><time>2026-04-25T14:51:10.549Z</time></trkpt><trkpt lat="45.3605176" lon="7.9043602"><ele>228.59999999999997</ele><time>2026-04-25T14:51:12.549Z</time></trkpt><trkpt lat="45.3604282" lon="7.9043696"><ele>228.4</ele><time>2026-04-25T14:51:14.55Z</time></trkpt><trkpt lat="45.3603358" lon="7.9043966"><ele>228.2</ele><time>2026-04-25T14:51:16.549Z</time></trkpt><trkpt lat="45.3602378" lon="7.9044167"><ele>228.0</ele><time>2026-04-25T14:51:18.549Z</time></trkpt><trkpt lat="45.3601472" lon="7.9044611"><ele>228.0</ele><time>2026-04-25T14:51:20.549Z</time></trkpt><trkpt lat="45.3600624" lon="7.904517"><ele>228.0</ele><time>2026-04-25T14:51:22.55Z</time></trkpt><trkpt lat="45.3599773" lon="7.9045888"><ele>228.0</ele><time>2026-04-25T14:51:24.549Z</time></trkpt><trkpt lat="45.3598834" lon="7.904669"><ele>228.0</ele><time>2026-04-25T14:51:26.55Z</time></trkpt><trkpt lat="45.3597827" lon="7.9047449"><ele>228.0</ele><time>2026-04-25T14:51:28.549Z</time></trkpt><trkpt lat="45.3596785" lon="7.9047957"><ele>228.0</ele><time>2026-04-25T14:51:30.549Z</time></trkpt><trkpt lat="45.3595749" lon="7.9048378"><ele>228.0</ele><time>2026-04-25T14:51:32.549Z</time></trkpt><trkpt lat="45.3594707" lon="7.9048707"><ele>228.0</ele><time>2026-04-25T14:51:34.549Z</time></trkpt><trkpt lat="45.3593577" lon="7.9048914"><ele>228.0</ele><time>2026-04-25T14:51:36.549Z</time></trkpt><trkpt lat="45.3592563" lon="7.9049197"><ele>228.0</ele><time>2026-04-25T14:51:38.549Z</time></trkpt><trkpt lat="45.3591485" lon="7.9049354"><ele>228.0</ele><time>2026-04-25T14:51:40.549Z</time></trkpt><trkpt lat="45.3590404" lon="7.9049689"><ele>228.0</ele><time>2026-04-25T14:51:42.549Z</time></trkpt><trkpt lat="45.3589395" lon="7.9049989"><ele>228.0</ele><time>2026-04-25T14:51:44.55Z</time></trkpt><trkpt lat="45.3588345" lon="7.9050202"><ele>228.0</ele><time>2026-04-25T14:51:46.549Z</time></trkpt><trkpt lat="45.3587326" lon="7.9050413"><ele>228.0</ele><time>2026-04-25T14:51:48.55Z</time></trkpt><trkpt lat="45.3586353" lon="7.9050444"><ele>228.0</ele><time>2026-04-25T14:51:50.55Z</time></trkpt><trkpt lat="45.3585435" lon="7.9050651"><ele>228.0</ele><time>2026-04-25T14:51:52.551Z</time></trkpt><trkpt lat="45.3584433" lon="7.9050848"><ele>228.0</ele><time>2026-04-25T14:51:54.55Z</time></trkpt><trkpt lat="45.3583496" lon="7.9051047"><ele>228.0</ele><time>2026-04-25T14:51:56.55Z</time></trkpt><trkpt lat="45.3582619" lon="7.9051139"><ele>228.0</ele><time>2026-04-25T14:51:58.55Z</time></trkpt><trkpt lat="45.3581644" lon="7.9051302"><ele>228.16666666666666</ele><time>2026-04-25T14:52:00.55Z</time></trkpt><trkpt lat="45.3580715" lon="7.9051506"><ele>228.33333333333331</ele><time>2026-04-25T14:52:02.55Z</time></trkpt><trkpt lat="45.3579874" lon="7.9051724"><ele>228.5</ele><time>2026-04-25T14:52:04.55Z</time></trkpt><trkpt lat="45.3579064" lon="7.9051949"><ele>228.66666666666666</ele><time>2026-04-25T14:52:06.55Z</time></trkpt><trkpt lat="45.3578285" lon="7.9052497"><ele>228.83333333333331</ele><time>2026-04-25T14:52:08.55Z</time></trkpt><trkpt lat="45.3577861" lon="7.9053731"><ele>229.0</ele><time>2026-04-25T14:52:10.55Z</time></trkpt><trkpt lat="45.3577733" lon="7.9055047"><ele>228.99999999999997</ele><time>2026-04-25T14:52:12.551Z</time></trkpt><trkpt lat="45.3577803" lon="7.9056308"><ele>229.0</ele><time>2026-04-25T14:52:14.55Z</time></trkpt><trkpt lat="45.3577859" lon="7.9057462"><ele>229.0</ele><time>2026-04-25T14:52:16.55Z</time></trkpt><trkpt lat="45.3577803" lon="7.9058452"><ele>229.0</ele><time>2026-04-25T14:52:18.55Z</time></trkpt><trkpt lat="45.3577879" lon="7.9059519"><ele>228.99999999999997</ele><time>2026-04-25T14:52:20.551Z</time></trkpt><trkpt lat="45.3577968" lon="7.9060671"><ele>229.0</ele><time>2026-04-25T14:52:22.55Z</time></trkpt><trkpt lat="45.3578009" lon="7.9061777"><ele>228.99999999999997</ele><time>2026-04-25T14:52:24.55Z</time></trkpt><trkpt lat="45.357817" lon="7.9062818"><ele>229.0</ele><time>2026-04-25T14:52:26.55Z</time></trkpt><trkpt lat="45.3578278" lon="7.9063915"><ele>229.0</ele><time>2026-04-25T14:52:28.55Z</time></trkpt><trkpt lat="45.3578302" lon="7.9064986"><ele>229.0</ele><time>2026-04-25T14:52:30.551Z</time></trkpt><trkpt lat="45.3578243" lon="7.906592"><ele>228.99999999999997</ele><time>2026-04-25T14:52:32.55Z</time></trkpt><trkpt lat="45.3578009" lon="7.9067192"><ele>229.0</ele><time>2026-04-25T14:52:35.551Z</time></trkpt><trkpt lat="45.3577625" lon="7.9068026"><ele>229.42857142857142</ele><time>2026-04-25T14:52:37.551Z</time></trkpt><trkpt lat="45.3577026" lon="7.9068602"><ele>229.8571428571429</ele><time>2026-04-25T14:52:39.552Z</time></trkpt><trkpt lat="45.357634" lon="7.9068998"><ele>230.2857142857143</ele><time>2026-04-25T14:52:41.551Z</time></trkpt><trkpt lat="45.3575624" lon="7.9069231"><ele>230.71428571428572</ele><time>2026-04-25T14:52:43.551Z</time></trkpt><trkpt lat="45.3575048" lon="7.9069796"><ele>231.14285714285717</ele><time>2026-04-25T14:52:45.552Z</time></trkpt><trkpt lat="45.3574236" lon="7.9070222"><ele>231.5714285714286</ele><time>2026-04-25T14:52:47.551Z</time></trkpt><trkpt lat="45.3573555" lon="7.9070586"><ele>232.00000000000003</ele><time>2026-04-25T14:52:49.552Z</time></trkpt><trkpt lat="45.3572755" lon="7.9071127"><ele>231.66666666666666</ele><time>2026-04-25T14:52:51.551Z</time></trkpt><trkpt lat="45.3571985" lon="7.9071473"><ele>231.33333333333331</ele><time>2026-04-25T14:52:53.551Z</time></trkpt><trkpt lat="45.3571272" lon="7.9071595"><ele>231.0</ele><time>2026-04-25T14:52:55.551Z</time></trkpt><trkpt lat="45.357032" lon="7.9071932"><ele>230.66666666666669</ele><time>2026-04-25T14:52:58.552Z</time></trkpt><trkpt lat="45.3569586" lon="7.9072234"><ele>230.33333333333334</ele><time>2026-04-25T14:53:00.551Z</time></trkpt><trkpt lat="45.3568843" lon="7.9072484"><ele>230.0</ele><time>2026-04-25T14:53:02.551Z</time></trkpt><trkpt lat="45.3568138" lon="7.9072635"><ele>230.00000000000003</ele><time>2026-04-25T14:53:04.552Z</time></trkpt><trkpt lat="45.356745" lon="7.9072957"><ele>230.0</ele><time>2026-04-25T14:53:06.552Z</time></trkpt><trkpt lat="45.3566687" lon="7.9073313"><ele>230.0</ele><time>2026-04-25T14:53:08.551Z</time></trkpt><trkpt lat="45.3565848" lon="7.9073569"><ele>230.0</ele><time>2026-04-25T14:53:10.551Z</time></trkpt><trkpt lat="45.3565063" lon="7.9073937"><ele>230.00000000000003</ele><time>2026-04-25T14:53:12.552Z</time></trkpt><trkpt lat="45.3564207" lon="7.9074273"><ele>230.0</ele><time>2026-04-25T14:53:14.551Z</time></trkpt><trkpt lat="45.3563467" lon="7.9074493"><ele>229.71428571428567</ele><time>2026-04-25T14:53:16.552Z</time></trkpt><trkpt lat="45.3562739" lon="7.9074719"><ele>229.42857142857142</ele><time>2026-04-25T14:53:18.552Z</time></trkpt><trkpt lat="45.3562021" lon="7.9075001"><ele>229.1428571428571</ele><time>2026-04-25T14:53:20.552Z</time></trkpt><trkpt lat="45.3561292" lon="7.9075189"><ele>228.85714285714283</ele><time>2026-04-25T14:53:22.552Z</time></trkpt><trkpt lat="45.3560596" lon="7.9075181"><ele>228.57142857142856</ele><time>2026-04-25T14:53:24.552Z</time></trkpt><trkpt lat="45.3559933" lon="7.9075235"><ele>228.28571428571428</ele><time>2026-04-25T14:53:26.552Z</time></trkpt><trkpt lat="45.3559177" lon="7.9075334"><ele>228.0</ele><time>2026-04-25T14:53:28.553Z</time></trkpt><trkpt lat="45.3558473" lon="7.9075372"><ele>228.0</ele><time>2026-04-25T14:53:30.552Z</time></trkpt><trkpt lat="45.3557768" lon="7.9075412"><ele>228.0</ele><time>2026-04-25T14:53:32.552Z</time></trkpt><trkpt lat="45.3557053" lon="7.9075407"><ele>228.0</ele><time>2026-04-25T14:53:34.552Z</time></trkpt><trkpt lat="45.3556315" lon="7.9075397"><ele>228.0</ele><time>2026-04-25T14:53:36.552Z</time></trkpt><trkpt lat="45.3555461" lon="7.9075369"><ele>228.0</ele><time>2026-04-25T14:53:38.553Z</time></trkpt><trkpt lat="45.3554691" lon="7.9075279"><ele>228.0</ele><time>2026-04-25T14:53:40.553Z</time></trkpt><trkpt lat="45.3553968" lon="7.9075279"><ele>227.85714285714283</ele><time>2026-04-25T14:53:42.553Z</time></trkpt><trkpt lat="45.355313" lon="7.9075177"><ele>227.7142857142857</ele><time>2026-04-25T14:53:44.552Z</time></trkpt><trkpt lat="45.3552452" lon="7.9075301"><ele>227.57142857142856</ele><time>2026-04-25T14:53:46.552Z</time></trkpt><trkpt lat="45.355165" lon="7.9075185"><ele>227.42857142857144</ele><time>2026-04-25T14:53:48.552Z</time></trkpt><trkpt lat="45.3550982" lon="7.907521"><ele>227.2857142857143</ele><time>2026-04-25T14:53:50.553Z</time></trkpt><trkpt lat="45.3550275" lon="7.9075131"><ele>227.14285714285717</ele><time>2026-04-25T14:53:52.552Z</time></trkpt><trkpt lat="45.3549633" lon="7.9075155"><ele>227.0</ele><time>2026-04-25T14:53:54.553Z</time></trkpt><trkpt lat="45.3548938" lon="7.9075191"><ele>227.0</ele><time>2026-04-25T14:53:56.552Z</time></trkpt><trkpt lat="45.3548263" lon="7.907529"><ele>227.00000000000003</ele><time>2026-04-25T14:53:58.553Z</time></trkpt><trkpt lat="45.3547561" lon="7.9075359"><ele>227.0</ele><time>2026-04-25T14:54:00.552Z</time></trkpt><trkpt lat="45.3546786" lon="7.9075327"><ele>227.0</ele><time>2026-04-25T14:54:02.553Z</time></trkpt><trkpt lat="45.3546004" lon="7.907532"><ele>227.00000000000003</ele><time>2026-04-25T14:54:04.553Z</time></trkpt><trkpt lat="45.3545237" lon="7.9075286"><ele>227.0</ele><time>2026-04-25T14:54:06.553Z</time></trkpt><trkpt lat="45.3544489" lon="7.9075343"><ele>227.0</ele><time>2026-04-25T14:54:08.553Z</time></trkpt><trkpt lat="45.354379" lon="7.9075412"><ele>227.16666666666669</ele><time>2026-04-25T14:54:10.553Z</time></trkpt><trkpt lat="45.3543162" lon="7.9075482"><ele>227.33333333333334</ele><time>2026-04-25T14:54:12.553Z</time></trkpt><trkpt lat="45.3542249" lon="7.9075624"><ele>227.5</ele><time>2026-04-25T14:54:15.553Z</time></trkpt><trkpt lat="45.3541423" lon="7.9075356"><ele>227.66666666666669</ele><time>2026-04-25T14:54:18.553Z</time></trkpt><trkpt lat="45.3540853" lon="7.9074333"><ele>227.83333333333334</ele><time>2026-04-25T14:54:21.553Z</time></trkpt><trkpt lat="45.3540637" lon="7.9073382"><ele>228.0</ele><time>2026-04-25T14:54:23.553Z</time></trkpt><trkpt lat="45.3540495" lon="7.9072278"><ele>228.0</ele><time>2026-04-25T14:54:25.641Z</time></trkpt><trkpt lat="45.3540278" lon="7.9071229"><ele>228.0</ele><time>2026-04-25T14:54:27.678Z</time></trkpt><trkpt lat="45.3539982" lon="7.9070221"><ele>228.0</ele><time>2026-04-25T14:54:29.635Z</time></trkpt><trkpt lat="45.3539707" lon="7.9069315"><ele>228.0</ele><time>2026-04-25T14:54:31.615Z</time></trkpt><trkpt lat="45.353948" lon="7.9068247"><ele>228.0</ele><time>2026-04-25T14:54:33.665Z</time></trkpt><trkpt lat="45.3539212" lon="7.9067155"><ele>228.0</ele><time>2026-04-25T14:54:35.702Z</time></trkpt><trkpt lat="45.353885" lon="7.9066326"><ele>228.0</ele><time>2026-04-25T14:54:37.738Z</time></trkpt><trkpt lat="45.3538385" lon="7.9065704"><ele>228.0</ele><time>2026-04-25T14:54:39.654Z</time></trkpt><trkpt lat="45.3537641" lon="7.9065346"><ele>228.0</ele><time>2026-04-25T14:54:41.733Z</time></trkpt><trkpt lat="45.353697" lon="7.9064995"><ele>228.0</ele><time>2026-04-25T14:54:43.727Z</time></trkpt><trkpt lat="45.3536259" lon="7.906457"><ele>228.0</ele><time>2026-04-25T14:54:45.715Z</time></trkpt><trkpt lat="45.3535528" lon="7.9064298"><ele>228.0</ele><time>2026-04-25T14:54:47.679Z</time></trkpt><trkpt lat="45.3534659" lon="7.9063929"><ele>228.0</ele><time>2026-04-25T14:54:49.771Z</time></trkpt><trkpt lat="45.3533946" lon="7.9063512"><ele>228.0</ele><time>2026-04-25T14:54:51.674Z</time></trkpt><trkpt lat="45.3533243" lon="7.9062932"><ele>228.0</ele><time>2026-04-25T14:54:53.65Z</time></trkpt><trkpt lat="45.3532576" lon="7.9062225"><ele>228.0</ele><time>2026-04-25T14:54:55.704Z</time></trkpt><trkpt lat="45.3531952" lon="7.9061464"><ele>228.0</ele><time>2026-04-25T14:54:57.74Z</time></trkpt><trkpt lat="45.353134" lon="7.9060725"><ele>228.0</ele><time>2026-04-25T14:54:59.648Z</time></trkpt><trkpt lat="45.3530719" lon="7.9060035"><ele>228.0</ele><time>2026-04-25T14:55:01.654Z</time></trkpt><trkpt lat="45.3530087" lon="7.9059404"><ele>228.0</ele><time>2026-04-25T14:55:03.67Z</time></trkpt><trkpt lat="45.3529383" lon="7.9058775"><ele>228.0</ele><time>2026-04-25T14:55:05.717Z</time></trkpt><trkpt lat="45.3528719" lon="7.9058268"><ele>228.0</ele><time>2026-04-25T14:55:07.681Z</time></trkpt><trkpt lat="45.3528047" lon="7.9057794"><ele>228.0</ele><time>2026-04-25T14:55:09.717Z</time></trkpt><trkpt lat="45.3527239" lon="7.9057307"><ele>228.0</ele><time>2026-04-25T14:55:12.711Z</time></trkpt><trkpt lat="45.3526369" lon="7.9057101"><ele>228.0</ele><time>2026-04-25T14:55:15.528Z</time></trkpt><trkpt lat="45.3525675" lon="7.9056844"><ele>227.99999999999997</ele><time>2026-04-25T14:55:17.742Z</time></trkpt><trkpt lat="45.3524968" lon="7.9056461"><ele>228.0</ele><time>2026-04-25T14:55:19.658Z</time></trkpt><trkpt lat="45.3524329" lon="7.9055994"><ele>228.0</ele><time>2026-04-25T14:55:21.695Z</time></trkpt><trkpt lat="45.3523859" lon="7.9055375"><ele>227.99999999999997</ele><time>2026-04-25T14:55:23.73Z</time></trkpt><trkpt lat="45.3523314" lon="7.9054755"><ele>228.0</ele><time>2026-04-25T14:55:25.648Z</time></trkpt><trkpt lat="45.3522674" lon="7.9054293"><ele>228.0</ele><time>2026-04-25T14:55:27.683Z</time></trkpt><trkpt lat="45.3521957" lon="7.9054091"><ele>228.14285714285714</ele><time>2026-04-25T14:55:29.719Z</time></trkpt><trkpt lat="45.3521242" lon="7.9054136"><ele>228.28571428571428</ele><time>2026-04-25T14:55:31.756Z</time></trkpt><trkpt lat="45.3520499" lon="7.9054358"><ele>228.42857142857142</ele><time>2026-04-25T14:55:33.671Z</time></trkpt><trkpt lat="45.3519746" lon="7.9054511"><ele>228.57142857142856</ele><time>2026-04-25T14:55:35.708Z</time></trkpt><trkpt lat="45.3518966" lon="7.9054641"><ele>228.71428571428572</ele><time>2026-04-25T14:55:37.716Z</time></trkpt><trkpt lat="45.351833" lon="7.9054667"><ele>228.85714285714283</ele><time>2026-04-25T14:55:39.66Z</time></trkpt><trkpt lat="45.351766" lon="7.9054711"><ele>229.0</ele><time>2026-04-25T14:55:41.696Z</time></trkpt><trkpt lat="45.351695" lon="7.9054907"><ele>228.99999999999997</ele><time>2026-04-25T14:55:43.694Z</time></trkpt><trkpt lat="45.3516032" lon="7.9055092"><ele>229.0</ele><time>2026-04-25T14:55:46.727Z</time></trkpt><trkpt lat="45.3515058" lon="7.9055136"><ele>229.0</ele><time>2026-04-25T14:55:49.721Z</time></trkpt><trkpt lat="45.3514093" lon="7.9054939"><ele>229.0</ele><time>2026-04-25T14:55:52.727Z</time></trkpt><trkpt lat="45.3513266" lon="7.9054476"><ele>228.99999999999997</ele><time>2026-04-25T14:55:55.71Z</time></trkpt><trkpt lat="45.351273" lon="7.9053921"><ele>229.0</ele><time>2026-04-25T14:55:57.746Z</time></trkpt><trkpt lat="45.3512265" lon="7.9053219"><ele>228.99999999999997</ele><time>2026-04-25T14:55:59.662Z</time></trkpt><trkpt lat="45.3511585" lon="7.9052408"><ele>229.0</ele><time>2026-04-25T14:56:02.657Z</time></trkpt><trkpt lat="45.3510918" lon="7.905212"><ele>229.0</ele><time>2026-04-25T14:56:04.776Z</time></trkpt><trkpt lat="45.3509961" lon="7.9052333"><ele>229.0</ele><time>2026-04-25T14:56:07.709Z</time></trkpt><trkpt lat="45.3509331" lon="7.9052432"><ele>228.99999999999997</ele><time>2026-04-25T14:56:09.777Z</time></trkpt><trkpt lat="45.3508701" lon="7.9052594"><ele>229.0</ele><time>2026-04-25T14:56:11.639Z</time></trkpt><trkpt lat="45.3507828" lon="7.9052592"><ele>229.0</ele><time>2026-04-25T14:56:14.754Z</time></trkpt><trkpt lat="45.3507091" lon="7.9052783"><ele>229.0</ele><time>2026-04-25T14:59:35.708Z</time></trkpt><trkpt lat="45.3506466" lon="7.9052896"><ele>229.0</ele><time>2026-04-25T14:59:37.746Z</time></trkpt><trkpt lat="45.3505733" lon="7.9052942"><ele>229.0</ele><time>2026-04-25T14:59:39.661Z</time></trkpt><trkpt lat="45.350508" lon="7.9053108"><ele>229.0</ele><time>2026-04-25T14:59:41.697Z</time></trkpt><trkpt lat="45.3504418" lon="7.9053179"><ele>229.0</ele><time>2026-04-25T14:59:43.734Z</time></trkpt><trkpt lat="45.3503783" lon="7.905327"><ele>229.0</ele><time>2026-04-25T14:59:45.65Z</time></trkpt><trkpt lat="45.3503043" lon="7.9053271"><ele>228.83333333333331</ele><time>2026-04-25T14:59:47.739Z</time></trkpt><trkpt lat="45.350226" lon="7.9053341"><ele>228.66666666666666</ele><time>2026-04-25T14:59:50.753Z</time></trkpt><trkpt lat="45.3501547" lon="7.9053251"><ele>228.5</ele><time>2026-04-25T14:59:53.11Z</time></trkpt><trkpt lat="45.3500652" lon="7.9053076"><ele>228.33333333333331</ele><time>2026-04-25T14:59:55.674Z</time></trkpt><trkpt lat="45.3499722" lon="7.905285"><ele>228.16666666666666</ele><time>2026-04-25T14:59:58.659Z</time></trkpt><trkpt lat="45.3499043" lon="7.9052562"><ele>228.0</ele><time>2026-04-25T15:00:00.743Z</time></trkpt><trkpt lat="45.3498345" lon="7.9052484"><ele>228.0</ele><time>2026-04-25T15:00:02.66Z</time></trkpt><trkpt lat="45.3497615" lon="7.9052456"><ele>227.99999999999997</ele><time>2026-04-25T15:00:04.697Z</time></trkpt><trkpt lat="45.3496864" lon="7.905242"><ele>228.0</ele><time>2026-04-25T15:00:06.754Z</time></trkpt><trkpt lat="45.3496032" lon="7.9052505"><ele>228.0</ele><time>2026-04-25T15:00:08.702Z</time></trkpt><trkpt lat="45.3495393" lon="7.9052519"><ele>227.99999999999997</ele><time>2026-04-25T15:00:10.685Z</time></trkpt><trkpt lat="45.3494744" lon="7.9052671"><ele>228.0</ele><time>2026-04-25T15:00:12.673Z</time></trkpt><trkpt lat="45.3494123" lon="7.9052903"><ele>228.0</ele><time>2026-04-25T15:00:14.637Z</time></trkpt><trkpt lat="45.3493448" lon="7.9053128"><ele>228.0</ele><time>2026-04-25T15:00:16.674Z</time></trkpt><trkpt lat="45.3492772" lon="7.9053301"><ele>227.99999999999997</ele><time>2026-04-25T15:00:18.71Z</time></trkpt><trkpt lat="45.3492053" lon="7.9053484"><ele>228.0</ele><time>2026-04-25T15:00:20.747Z</time></trkpt><trkpt lat="45.3491137" lon="7.9053686"><ele>228.0</ele><time>2026-04-25T15:00:23.594Z</time></trkpt><trkpt lat="45.3490482" lon="7.9053785"><ele>227.99999999999997</ele><time>2026-04-25T15:00:25.657Z</time></trkpt><trkpt lat="45.3489738" lon="7.9053891"><ele>228.0</ele><time>2026-04-25T15:00:27.694Z</time></trkpt><trkpt lat="45.3489034" lon="7.9053814"><ele>228.0</ele><time>2026-04-25T15:00:29.73Z</time></trkpt><trkpt lat="45.3488347" lon="7.9053613"><ele>227.85714285714283</ele><time>2026-04-25T15:00:31.619Z</time></trkpt><trkpt lat="45.3487714" lon="7.9053235"><ele>227.7142857142857</ele><time>2026-04-25T15:00:33.683Z</time></trkpt><trkpt lat="45.3487066" lon="7.9052635"><ele>227.57142857142856</ele><time>2026-04-25T15:00:35.764Z</time></trkpt><trkpt lat="45.3486613" lon="7.9051952"><ele>227.42857142857144</ele><time>2026-04-25T15:00:37.578Z</time></trkpt><trkpt lat="45.3486077" lon="7.9051211"><ele>227.2857142857143</ele><time>2026-04-25T15:00:39.694Z</time></trkpt><trkpt lat="45.3485528" lon="7.9050546"><ele>227.14285714285717</ele><time>2026-04-25T15:00:41.708Z</time></trkpt><trkpt lat="45.3484818" lon="7.9050028"><ele>227.0</ele><time>2026-04-25T15:00:43.744Z</time></trkpt><trkpt lat="45.3484119" lon="7.9049737"><ele>227.00000000000003</ele><time>2026-04-25T15:00:45.495Z</time></trkpt><trkpt lat="45.34832" lon="7.9049755"><ele>227.0</ele><time>2026-04-25T15:00:47.76Z</time></trkpt><trkpt lat="45.3482207" lon="7.9049933"><ele>227.0</ele><time>2026-04-25T15:00:50.256Z</time></trkpt><trkpt lat="45.3481335" lon="7.9050284"><ele>227.0</ele><time>2026-04-25T15:00:52.62Z</time></trkpt><trkpt lat="45.3480512" lon="7.9050473"><ele>227.00000000000003</ele><time>2026-04-25T15:00:54.818Z</time></trkpt><trkpt lat="45.347983" lon="7.9050588"><ele>227.0</ele><time>2026-04-25T15:00:56.681Z</time></trkpt><trkpt lat="45.3479029" lon="7.9050809"><ele>227.00000000000003</ele><time>2026-04-25T15:00:58.717Z</time></trkpt><trkpt lat="45.3478211" lon="7.9051014"><ele>227.0</ele><time>2026-04-25T15:01:00.76Z</time></trkpt><trkpt lat="45.3477523" lon="7.9051148"><ele>227.0</ele><time>2026-04-25T15:01:02.67Z</time></trkpt><trkpt lat="45.3476795" lon="7.9051339"><ele>227.0</ele><time>2026-04-25T15:01:04.706Z</time></trkpt><trkpt lat="45.3476037" lon="7.9051493"><ele>227.00000000000003</ele><time>2026-04-25T15:01:06.743Z</time></trkpt><trkpt lat="45.3475299" lon="7.905174"><ele>227.0</ele><time>2026-04-25T15:01:08.701Z</time></trkpt><trkpt lat="45.3474591" lon="7.9051865"><ele>227.0</ele><time>2026-04-25T15:01:10.72Z</time></trkpt><trkpt lat="45.3473938" lon="7.9051917"><ele>227.00000000000003</ele><time>2026-04-25T15:01:12.731Z</time></trkpt><trkpt lat="45.347328" lon="7.9051647"><ele>227.0</ele><time>2026-04-25T15:01:14.7Z</time></trkpt><trkpt lat="45.3472757" lon="7.9050958"><ele>227.0</ele><time>2026-04-25T15:01:16.656Z</time></trkpt><trkpt lat="45.3472426" lon="7.9049943"><ele>227.00000000000003</ele><time>2026-04-25T15:01:18.721Z</time></trkpt><trkpt lat="45.3472236" lon="7.904884"><ele>227.0</ele><time>2026-04-25T15:01:20.638Z</time></trkpt><trkpt lat="45.3472009" lon="7.9047662"><ele>227.0</ele><time>2026-04-25T15:01:22.673Z</time></trkpt><trkpt lat="45.3471619" lon="7.9046852"><ele>227.16666666666669</ele><time>2026-04-25T15:01:24.71Z</time></trkpt><trkpt lat="45.3471158" lon="7.904613"><ele>227.33333333333334</ele><time>2026-04-25T15:01:26.746Z</time></trkpt><trkpt lat="45.3470541" lon="7.9045886"><ele>227.5</ele><time>2026-04-25T15:01:28.662Z</time></trkpt><trkpt lat="45.3469784" lon="7.904606"><ele>227.66666666666669</ele><time>2026-04-25T15:01:30.818Z</time></trkpt><trkpt lat="45.3468568" lon="7.9046679"><ele>227.83333333333334</ele><time>2026-04-25T15:01:33.563Z</time></trkpt><trkpt lat="45.346757" lon="7.9047171"><ele>228.0</ele><time>2026-04-25T15:01:35.563Z</time></trkpt><trkpt lat="45.3466606" lon="7.904764"><ele>228.0</ele><time>2026-04-25T15:01:37.563Z</time></trkpt><trkpt lat="45.3465707" lon="7.9048076"><ele>228.0</ele><time>2026-04-25T15:01:39.563Z</time></trkpt><trkpt lat="45.346487" lon="7.9048504"><ele>228.0</ele><time>2026-04-25T15:01:41.563Z</time></trkpt><trkpt lat="45.346412" lon="7.9048907"><ele>228.0</ele><time>2026-04-25T15:01:43.563Z</time></trkpt><trkpt lat="45.3463416" lon="7.9049282"><ele>228.0</ele><time>2026-04-25T15:01:45.564Z</time></trkpt><trkpt lat="45.3462627" lon="7.9049641"><ele>228.0</ele><time>2026-04-25T15:01:47.563Z</time></trkpt><trkpt lat="45.3461865" lon="7.9049923"><ele>228.16666666666666</ele><time>2026-04-25T15:01:49.563Z</time></trkpt><trkpt lat="45.3461078" lon="7.9050034"><ele>228.33333333333331</ele><time>2026-04-25T15:01:51.563Z</time></trkpt><trkpt lat="45.3460277" lon="7.90499"><ele>228.5</ele><time>2026-04-25T15:01:53.563Z</time></trkpt><trkpt lat="45.3459615" lon="7.9049479"><ele>228.66666666666666</ele><time>2026-04-25T15:01:55.563Z</time></trkpt><trkpt lat="45.3459083" lon="7.9048645"><ele>228.83333333333331</ele><time>2026-04-25T15:01:57.564Z</time></trkpt><trkpt lat="45.3458733" lon="7.9047626"><ele>229.0</ele><time>2026-04-25T15:01:59.563Z</time></trkpt><trkpt lat="45.3458451" lon="7.904658"><ele>228.99999999999997</ele><time>2026-04-25T15:02:01.563Z</time></trkpt><trkpt lat="45.3458155" lon="7.9045435"><ele>229.0</ele><time>2026-04-25T15:02:03.563Z</time></trkpt><trkpt lat="45.3457842" lon="7.9044416"><ele>229.0</ele><time>2026-04-25T15:02:05.564Z</time></trkpt><trkpt lat="45.3457464" lon="7.9043418"><ele>229.0</ele><time>2026-04-25T15:02:07.563Z</time></trkpt><trkpt lat="45.3457154" lon="7.9042445"><ele>228.99999999999997</ele><time>2026-04-25T15:02:09.563Z</time></trkpt><trkpt lat="45.3456803" lon="7.9041372"><ele>229.0</ele><time>2026-04-25T15:02:11.563Z</time></trkpt><trkpt lat="45.3456436" lon="7.9040308"><ele>228.71428571428572</ele><time>2026-04-25T15:02:13.563Z</time></trkpt><trkpt lat="45.3456025" lon="7.9039414"><ele>228.42857142857144</ele><time>2026-04-25T15:02:15.563Z</time></trkpt><trkpt lat="45.3455683" lon="7.9038557"><ele>228.14285714285717</ele><time>2026-04-25T15:02:17.565Z</time></trkpt><trkpt lat="45.3455156" lon="7.9037468"><ele>227.85714285714286</ele><time>2026-04-25T15:02:20.564Z</time></trkpt><trkpt lat="45.3454632" lon="7.9036743"><ele>227.5714285714286</ele><time>2026-04-25T15:02:22.564Z</time></trkpt><trkpt lat="45.3454012" lon="7.9036294"><ele>227.2857142857143</ele><time>2026-04-25T15:02:24.565Z</time></trkpt><trkpt lat="45.3453398" lon="7.90359"><ele>227.0</ele><time>2026-04-25T15:02:26.564Z</time></trkpt><trkpt lat="45.3452703" lon="7.9035813"><ele>226.85714285714286</ele><time>2026-04-25T15:02:28.564Z</time></trkpt><trkpt lat="45.3451953" lon="7.9035625"><ele>226.71428571428572</ele><time>2026-04-25T15:02:30.564Z</time></trkpt><trkpt lat="45.3451281" lon="7.9035654"><ele>226.57142857142858</ele><time>2026-04-25T15:02:32.564Z</time></trkpt><trkpt lat="45.3450623" lon="7.903561"><ele>226.42857142857144</ele><time>2026-04-25T15:02:34.565Z</time></trkpt><trkpt lat="45.3449692" lon="7.9035569"><ele>226.28571428571428</ele><time>2026-04-25T15:02:37.565Z</time></trkpt><trkpt lat="45.3449014" lon="7.9035744"><ele>226.14285714285717</ele><time>2026-04-25T15:02:39.564Z</time></trkpt><trkpt lat="45.3448366" lon="7.9035929"><ele>226.0</ele><time>2026-04-25T15:02:41.564Z</time></trkpt><trkpt lat="45.344775" lon="7.9036195"><ele>226.14285714285717</ele><time>2026-04-25T15:02:43.564Z</time></trkpt><trkpt lat="45.3447095" lon="7.9036494"><ele>226.28571428571428</ele><time>2026-04-25T15:02:45.564Z</time></trkpt><trkpt lat="45.3446438" lon="7.9036776"><ele>226.42857142857144</ele><time>2026-04-25T15:02:47.565Z</time></trkpt><trkpt lat="45.3445794" lon="7.9037025"><ele>226.57142857142858</ele><time>2026-04-25T15:02:49.564Z</time></trkpt><trkpt lat="45.3445195" lon="7.9037364"><ele>226.71428571428572</ele><time>2026-04-25T15:02:51.564Z</time></trkpt><trkpt lat="45.3444498" lon="7.9037514"><ele>226.85714285714286</ele><time>2026-04-25T15:02:53.564Z</time></trkpt><trkpt lat="45.3443839" lon="7.9037568"><ele>227.0</ele><time>2026-04-25T15:02:55.564Z</time></trkpt><trkpt lat="45.3442918" lon="7.9037662"><ele>227.0</ele><time>2026-04-25T15:02:58.564Z</time></trkpt><trkpt lat="45.3442072" lon="7.9037134"><ele>227.00000000000003</ele><time>2026-04-25T15:03:01.564Z</time></trkpt><trkpt lat="45.3441723" lon="7.9036333"><ele>227.0</ele><time>2026-04-25T15:03:03.566Z</time></trkpt><trkpt lat="45.3441618" lon="7.9035349"><ele>227.0</ele><time>2026-04-25T15:03:05.565Z</time></trkpt><trkpt lat="45.3441651" lon="7.9034391"><ele>227.00000000000003</ele><time>2026-04-25T15:03:07.565Z</time></trkpt><trkpt lat="45.3441762" lon="7.9033407"><ele>227.0</ele><time>2026-04-25T15:03:09.565Z</time></trkpt><trkpt lat="45.3441859" lon="7.9032422"><ele>227.0</ele><time>2026-04-25T15:03:11.565Z</time></trkpt><trkpt lat="45.3441983" lon="7.9031225"><ele>227.00000000000003</ele><time>2026-04-25T15:03:13.565Z</time></trkpt><trkpt lat="45.3442056" lon="7.903002"><ele>227.0</ele><time>2026-04-25T15:03:15.565Z</time></trkpt><trkpt lat="45.3442184" lon="7.902896"><ele>227.0</ele><time>2026-04-25T15:03:17.565Z</time></trkpt><trkpt lat="45.3442261" lon="7.9027955"><ele>227.0</ele><time>2026-04-25T15:03:19.566Z</time></trkpt><trkpt lat="45.3442444" lon="7.9026897"><ele>227.00000000000003</ele><time>2026-04-25T15:03:21.566Z</time></trkpt><trkpt lat="45.3442416" lon="7.9025791"><ele>227.0</ele><time>2026-04-25T15:03:23.565Z</time></trkpt><trkpt lat="45.3442307" lon="7.9024625"><ele>227.00000000000003</ele><time>2026-04-25T15:03:25.565Z</time></trkpt><trkpt lat="45.3442164" lon="7.9023619"><ele>227.0</ele><time>2026-04-25T15:03:27.565Z</time></trkpt><trkpt lat="45.3441732" lon="7.9022714"><ele>227.0</ele><time>2026-04-25T15:03:29.566Z</time></trkpt><trkpt lat="45.3441107" lon="7.9021844"><ele>227.0</ele><time>2026-04-25T15:03:31.565Z</time></trkpt><trkpt lat="45.344036" lon="7.902129"><ele>227.00000000000003</ele><time>2026-04-25T15:03:33.565Z</time></trkpt><trkpt lat="45.3439595" lon="7.9020917"><ele>227.0</ele><time>2026-04-25T15:03:35.565Z</time></trkpt><trkpt lat="45.3438815" lon="7.9020586"><ele>226.8</ele><time>2026-04-25T15:03:37.565Z</time></trkpt><trkpt lat="45.3437969" lon="7.9020637"><ele>226.6</ele><time>2026-04-25T15:03:39.565Z</time></trkpt><trkpt lat="45.3437007" lon="7.9020825"><ele>226.40000000000003</ele><time>2026-04-25T15:03:41.565Z</time></trkpt><trkpt lat="45.3436018" lon="7.9020888"><ele>226.20000000000002</ele><time>2026-04-25T15:03:43.565Z</time></trkpt><trkpt lat="45.3435097" lon="7.902081"><ele>226.0</ele><time>2026-04-25T15:03:45.565Z</time></trkpt><trkpt lat="45.3434182" lon="7.9020661"><ele>225.99999999999997</ele><time>2026-04-25T15:03:47.566Z</time></trkpt><trkpt lat="45.3433367" lon="7.9020512"><ele>226.0</ele><time>2026-04-25T15:03:49.566Z</time></trkpt><trkpt lat="45.3432571" lon="7.9020216"><ele>226.0</ele><time>2026-04-25T15:03:51.566Z</time></trkpt><trkpt lat="45.343173" lon="7.9019932"><ele>226.0</ele><time>2026-04-25T15:03:53.566Z</time></trkpt><trkpt lat="45.3430915" lon="7.9019707"><ele>225.99999999999997</ele><time>2026-04-25T15:03:55.566Z</time></trkpt><trkpt lat="45.3429916" lon="7.9019523"><ele>226.0</ele><time>2026-04-25T15:03:57.567Z</time></trkpt><trkpt lat="45.3429049" lon="7.9019204"><ele>225.99999999999997</ele><time>2026-04-25T15:03:59.566Z</time></trkpt><trkpt lat="45.3428165" lon="7.9019063"><ele>226.0</ele><time>2026-04-25T15:04:01.566Z</time></trkpt><trkpt lat="45.3427272" lon="7.9018889"><ele>226.0</ele><time>2026-04-25T15:04:03.566Z</time></trkpt><trkpt lat="45.3426271" lon="7.9018831"><ele>226.0</ele><time>2026-04-25T15:04:05.566Z</time></trkpt><trkpt lat="45.3425407" lon="7.9018875"><ele>225.99999999999997</ele><time>2026-04-25T15:04:07.566Z</time></trkpt><trkpt lat="45.342462" lon="7.9018688"><ele>226.0</ele><time>2026-04-25T15:04:09.567Z</time></trkpt><trkpt lat="45.3423857" lon="7.9018598"><ele>225.99999999999997</ele><time>2026-04-25T15:04:11.566Z</time></trkpt><trkpt lat="45.3423022" lon="7.9018543"><ele>226.0</ele><time>2026-04-25T15:04:13.566Z</time></trkpt><trkpt lat="45.3422224" lon="7.9018621"><ele>226.0</ele><time>2026-04-25T15:04:15.567Z</time></trkpt><trkpt lat="45.3421466" lon="7.9018636"><ele>226.0</ele><time>2026-04-25T15:04:17.566Z</time></trkpt><trkpt lat="45.3420738" lon="7.9018731"><ele>225.99999999999997</ele><time>2026-04-25T15:04:19.566Z</time></trkpt><trkpt lat="45.3419944" lon="7.9018818"><ele>226.0</ele><time>2026-04-25T15:04:21.567Z</time></trkpt><trkpt lat="45.3419226" lon="7.901877"><ele>226.14285714285717</ele><time>2026-04-25T15:04:23.566Z</time></trkpt><trkpt lat="45.3418557" lon="7.9018716"><ele>226.28571428571428</ele><time>2026-04-25T15:04:25.566Z</time></trkpt><trkpt lat="45.3417943" lon="7.9018417"><ele>226.42857142857144</ele><time>2026-04-25T15:04:27.566Z</time></trkpt><trkpt lat="45.3417374" lon="7.9017962"><ele>226.57142857142858</ele><time>2026-04-25T15:04:29.566Z</time></trkpt><trkpt lat="45.3416837" lon="7.9017216"><ele>226.71428571428572</ele><time>2026-04-25T15:04:31.566Z</time></trkpt><trkpt lat="45.3416383" lon="7.9016525"><ele>226.85714285714286</ele><time>2026-04-25T15:04:33.568Z</time></trkpt><trkpt lat="45.3416013" lon="7.9015747"><ele>227.0</ele><time>2026-04-25T15:04:35.568Z</time></trkpt><trkpt lat="45.3415376" lon="7.9014776"><ele>227.00000000000003</ele><time>2026-04-25T15:04:38.568Z</time></trkpt><trkpt lat="45.3414744" lon="7.9013873"><ele>227.0</ele><time>2026-04-25T15:04:41.567Z</time></trkpt><trkpt lat="45.3414244" lon="7.9013078"><ele>227.0</ele><time>2026-04-25T15:04:44.567Z</time></trkpt><trkpt lat="45.3413519" lon="7.9012377"><ele>227.0</ele><time>2026-04-25T15:04:47.567Z</time></trkpt><trkpt lat="45.3412877" lon="7.9011708"><ele>227.00000000000003</ele><time>2026-04-25T15:04:50.567Z</time></trkpt><trkpt lat="45.3412212" lon="7.9011207"><ele>227.0</ele><time>2026-04-25T15:04:53.567Z</time></trkpt><trkpt lat="45.3411608" lon="7.9010655"><ele>227.33333333333334</ele><time>2026-04-25T15:04:56.567Z</time></trkpt><trkpt lat="45.3410997" lon="7.9010155"><ele>227.66666666666669</ele><time>2026-04-25T15:04:59.567Z</time></trkpt><trkpt lat="45.3410365" lon="7.9009575"><ele>228.0</ele><time>2026-04-25T15:05:02.567Z</time></trkpt><trkpt lat="45.3409707" lon="7.900908"><ele>228.33333333333331</ele><time>2026-04-25T15:05:05.567Z</time></trkpt><trkpt lat="45.3408967" lon="7.9008549"><ele>228.66666666666666</ele><time>2026-04-25T15:05:08.568Z</time></trkpt><trkpt lat="45.3408249" lon="7.9007725"><ele>229.0</ele><time>2026-04-25T15:05:11.567Z</time></trkpt><trkpt lat="45.3407629" lon="7.9006751"><ele>228.99999999999997</ele><time>2026-04-25T15:05:14.567Z</time></trkpt><trkpt lat="45.3406879" lon="7.9005918"><ele>229.0</ele><time>2026-04-25T15:05:17.567Z</time></trkpt><trkpt lat="45.3406247" lon="7.9004922"><ele>229.0</ele><time>2026-04-25T15:05:20.568Z</time></trkpt><trkpt lat="45.3405655" lon="7.9003875"><ele>229.0</ele><time>2026-04-25T15:05:23.569Z</time></trkpt><trkpt lat="45.34052" lon="7.9003108"><ele>228.99999999999997</ele><time>2026-04-25T15:05:25.568Z</time></trkpt><trkpt lat="45.3404733" lon="7.900239"><ele>229.0</ele><time>2026-04-25T15:05:27.568Z</time></trkpt><trkpt lat="45.3404271" lon="7.9001671"><ele>229.0</ele><time>2026-04-25T15:05:29.568Z</time></trkpt><trkpt lat="45.3403848" lon="7.9000909"><ele>229.0</ele><time>2026-04-25T15:05:31.568Z</time></trkpt><trkpt lat="45.3403449" lon="7.9000162"><ele>229.0</ele><time>2026-04-25T15:05:33.568Z</time></trkpt><trkpt lat="45.340306" lon="7.8999319"><ele>229.0</ele><time>2026-04-25T15:05:35.569Z</time></trkpt><trkpt lat="45.3402698" lon="7.899832"><ele>229.0</ele><time>2026-04-25T15:05:37.568Z</time></trkpt><trkpt lat="45.3402355" lon="7.8997348"><ele>229.0</ele><time>2026-04-25T15:05:39.568Z</time></trkpt><trkpt lat="45.3402043" lon="7.8996236"><ele>229.0</ele><time>2026-04-25T15:05:41.569Z</time></trkpt><trkpt lat="45.3401683" lon="7.8995294"><ele>228.99999999999997</ele><time>2026-04-25T15:05:43.568Z</time></trkpt><trkpt lat="45.3401184" lon="7.8994424"><ele>229.0</ele><time>2026-04-25T15:05:45.568Z</time></trkpt><trkpt lat="45.3400702" lon="7.8993614"><ele>229.0</ele><time>2026-04-25T15:05:47.568Z</time></trkpt><trkpt lat="45.340018" lon="7.8992832"><ele>229.0</ele><time>2026-04-25T15:05:49.568Z</time></trkpt><trkpt lat="45.3399692" lon="7.8992066"><ele>228.99999999999997</ele><time>2026-04-25T15:05:51.568Z</time></trkpt><trkpt lat="45.3399155" lon="7.8991236"><ele>229.0</ele><time>2026-04-25T15:05:53.568Z</time></trkpt><trkpt lat="45.3398616" lon="7.8990395"><ele>228.99999999999997</ele><time>2026-04-25T15:05:55.568Z</time></trkpt><trkpt lat="45.3398109" lon="7.8989635"><ele>229.0</ele><time>2026-04-25T15:05:57.568Z</time></trkpt><trkpt lat="45.3397648" lon="7.8988876"><ele>229.0</ele><time>2026-04-25T15:05:59.568Z</time></trkpt><trkpt lat="45.3397187" lon="7.8988139"><ele>229.0</ele><time>2026-04-25T15:06:01.568Z</time></trkpt><trkpt lat="45.3396686" lon="7.898732"><ele>228.99999999999997</ele><time>2026-04-25T15:06:03.569Z</time></trkpt><trkpt lat="45.3396107" lon="7.8986418"><ele>229.0</ele><time>2026-04-25T15:06:05.569Z</time></trkpt><trkpt lat="45.3395606" lon="7.8985593"><ele>229.0</ele><time>2026-04-25T15:06:07.569Z</time></trkpt><trkpt lat="45.3395154" lon="7.8984883"><ele>229.0</ele><time>2026-04-25T15:06:09.569Z</time></trkpt><trkpt lat="45.3394695" lon="7.8984179"><ele>229.0</ele><time>2026-04-25T15:06:11.569Z</time></trkpt><trkpt lat="45.3394146" lon="7.8983507"><ele>229.0</ele><time>2026-04-25T15:06:13.569Z</time></trkpt><trkpt lat="45.3393565" lon="7.8983027"><ele>229.0</ele><time>2026-04-25T15:06:15.57Z</time></trkpt><trkpt lat="45.3392912" lon="7.8982749"><ele>229.0</ele><time>2026-04-25T15:06:17.57Z</time></trkpt><trkpt lat="45.3391983" lon="7.8982512"><ele>229.0</ele><time>2026-04-25T15:06:20.569Z</time></trkpt><trkpt lat="45.3391268" lon="7.8982359"><ele>228.99999999999997</ele><time>2026-04-25T15:06:22.569Z</time></trkpt><trkpt lat="45.3390509" lon="7.8982451"><ele>229.0</ele><time>2026-04-25T15:06:24.569Z</time></trkpt><trkpt lat="45.3389723" lon="7.8982394"><ele>229.0</ele><time>2026-04-25T15:06:26.57Z</time></trkpt><trkpt lat="45.3388922" lon="7.8982394"><ele>229.0</ele><time>2026-04-25T15:06:28.569Z</time></trkpt><trkpt lat="45.3388097" lon="7.8982359"><ele>228.99999999999997</ele><time>2026-04-25T15:06:30.569Z</time></trkpt><trkpt lat="45.3387258" lon="7.8982298"><ele>229.0</ele><time>2026-04-25T15:06:32.569Z</time></trkpt><trkpt lat="45.3386382" lon="7.8982342"><ele>228.99999999999997</ele><time>2026-04-25T15:06:34.569Z</time></trkpt><trkpt lat="45.3385494" lon="7.8982274"><ele>229.0</ele><time>2026-04-25T15:06:36.569Z</time></trkpt><trkpt lat="45.3384684" lon="7.8982337"><ele>229.0</ele><time>2026-04-25T15:06:38.57Z</time></trkpt><trkpt lat="45.3383814" lon="7.8982489"><ele>229.0</ele><time>2026-04-25T15:06:40.569Z</time></trkpt><trkpt lat="45.3382901" lon="7.8982771"><ele>228.99999999999997</ele><time>2026-04-25T15:06:42.569Z</time></trkpt><trkpt lat="45.3382079" lon="7.8982933"><ele>229.0</ele><time>2026-04-25T15:06:44.57Z</time></trkpt><trkpt lat="45.3381353" lon="7.8982881"><ele>229.0</ele><time>2026-04-25T15:06:46.569Z</time></trkpt><trkpt lat="45.3380744" lon="7.8982504"><ele>229.0</ele><time>2026-04-25T15:06:49.735Z</time></trkpt><trkpt lat="45.3380134" lon="7.8981818"><ele>229.0</ele><time>2026-04-25T15:06:55.724Z</time></trkpt><trkpt lat="45.3380059" lon="7.8980888"><ele>229.0</ele><time>2026-04-25T15:07:00.755Z</time></trkpt><trkpt lat="45.3379508" lon="7.8981363"><ele>229.0</ele><time>2026-04-25T15:07:07.571Z</time></trkpt><trkpt lat="45.3380032" lon="7.8980146"><ele>229.0</ele><time>2026-04-25T15:09:28.573Z</time></trkpt><trkpt lat="45.3379909" lon="7.8979189"><ele>229.0</ele><time>2026-04-25T15:09:31.573Z</time></trkpt><trkpt lat="45.3379858" lon="7.8978255"><ele>228.99999999999997</ele><time>2026-04-25T15:09:34.573Z</time></trkpt><trkpt lat="45.3379853" lon="7.8977045"><ele>229.0</ele><time>2026-04-25T15:09:37.573Z</time></trkpt><trkpt lat="45.3379772" lon="7.89758"><ele>229.0</ele><time>2026-04-25T15:09:40.573Z</time></trkpt><trkpt lat="45.3379707" lon="7.8974613"><ele>229.0</ele><time>2026-04-25T15:09:43.573Z</time></trkpt><trkpt lat="45.3379566" lon="7.8973391"><ele>228.99999999999997</ele><time>2026-04-25T15:09:46.573Z</time></trkpt><trkpt lat="45.3379425" lon="7.8972244"><ele>229.0</ele><time>2026-04-25T15:09:49.573Z</time></trkpt><trkpt lat="45.3379293" lon="7.8971071"><ele>228.99999999999997</ele><time>2026-04-25T15:09:52.573Z</time></trkpt><trkpt lat="45.3379116" lon="7.8969879"><ele>229.0</ele><time>2026-04-25T15:09:55.573Z</time></trkpt><trkpt lat="45.3378931" lon="7.8968682"><ele>229.0</ele><time>2026-04-25T15:09:58.573Z</time></trkpt><trkpt lat="45.33786" lon="7.8967495"><ele>229.0</ele><time>2026-04-25T15:10:01.574Z</time></trkpt><trkpt lat="45.337829" lon="7.8966279"><ele>228.99999999999997</ele><time>2026-04-25T15:10:04.574Z</time></trkpt><trkpt lat="45.3378062" lon="7.8965365"><ele>229.0</ele><time>2026-04-25T15:10:06.574Z</time></trkpt><trkpt lat="45.3377845" lon="7.8964187"><ele>229.33333333333331</ele><time>2026-04-25T15:10:09.574Z</time></trkpt><trkpt lat="45.3377629" lon="7.8962902"><ele>229.66666666666666</ele><time>2026-04-25T15:10:12.574Z</time></trkpt><trkpt lat="45.33775" lon="7.8961963"><ele>230.0</ele><time>2026-04-25T15:10:14.574Z</time></trkpt><trkpt lat="45.3377343" lon="7.896103"><ele>230.33333333333331</ele><time>2026-04-25T15:10:16.574Z</time></trkpt><trkpt lat="45.3377262" lon="7.8959717"><ele>230.66666666666666</ele><time>2026-04-25T15:10:19.574Z</time></trkpt><trkpt lat="45.337718" lon="7.8958822"><ele>231.0</ele><time>2026-04-25T15:10:21.575Z</time></trkpt><trkpt lat="45.3377182" lon="7.8957883"><ele>231.0</ele><time>2026-04-25T15:10:23.575Z</time></trkpt><trkpt lat="45.3377193" lon="7.895697"><ele>231.0</ele><time>2026-04-25T15:10:25.574Z</time></trkpt><trkpt lat="45.3377101" lon="7.8955667"><ele>231.0</ele><time>2026-04-25T15:10:28.574Z</time></trkpt><trkpt lat="45.3377107" lon="7.8954768"><ele>231.0</ele><time>2026-04-25T15:10:30.574Z</time></trkpt><trkpt lat="45.3377139" lon="7.8953781"><ele>231.0</ele><time>2026-04-25T15:10:32.621Z</time></trkpt><trkpt lat="45.3377075" lon="7.8952842"><ele>231.0</ele><time>2026-04-25T15:10:34.742Z</time></trkpt><trkpt lat="45.3377061" lon="7.8951941"><ele>231.0</ele><time>2026-04-25T15:10:36.659Z</time></trkpt><trkpt lat="45.337704" lon="7.895098"><ele>230.85714285714286</ele><time>2026-04-25T15:10:38.703Z</time></trkpt><trkpt lat="45.337705" lon="7.8949624"><ele>230.71428571428572</ele><time>2026-04-25T15:10:41.692Z</time></trkpt><trkpt lat="45.3377056" lon="7.8948707"><ele>230.57142857142856</ele><time>2026-04-25T15:10:43.728Z</time></trkpt><trkpt lat="45.3377085" lon="7.8947808"><ele>230.42857142857142</ele><time>2026-04-25T15:10:45.646Z</time></trkpt><trkpt lat="45.3377126" lon="7.8946873"><ele>230.28571428571428</ele><time>2026-04-25T15:10:47.683Z</time></trkpt><trkpt lat="45.3377117" lon="7.8945964"><ele>230.1428571428571</ele><time>2026-04-25T15:10:49.719Z</time></trkpt><trkpt lat="45.3376969" lon="7.8944693"><ele>229.99999999999997</ele><time>2026-04-25T15:10:52.714Z</time></trkpt><trkpt lat="45.3376781" lon="7.8943391"><ele>230.28571428571425</ele><time>2026-04-25T15:10:55.594Z</time></trkpt><trkpt lat="45.33767" lon="7.8942376"><ele>230.57142857142856</ele><time>2026-04-25T15:10:57.747Z</time></trkpt><trkpt lat="45.3376607" lon="7.8941483"><ele>230.85714285714286</ele><time>2026-04-25T15:10:59.664Z</time></trkpt><trkpt lat="45.3376438" lon="7.8940604"><ele>231.14285714285714</ele><time>2026-04-25T15:11:01.702Z</time></trkpt><trkpt lat="45.3376211" lon="7.8939679"><ele>231.42857142857144</ele><time>2026-04-25T15:11:03.737Z</time></trkpt><trkpt lat="45.3376035" lon="7.8938777"><ele>231.71428571428575</ele><time>2026-04-25T15:11:05.654Z</time></trkpt><trkpt lat="45.3375832" lon="7.8937509"><ele>232.00000000000003</ele><time>2026-04-25T15:11:08.65Z</time></trkpt><trkpt lat="45.3375687" lon="7.8936382"><ele>232.00000000000003</ele><time>2026-04-25T15:11:11.645Z</time></trkpt><trkpt lat="45.3375524" lon="7.8935163"><ele>232.0</ele><time>2026-04-25T15:11:14.641Z</time></trkpt><trkpt lat="45.3375324" lon="7.8934286"><ele>232.00000000000003</ele><time>2026-04-25T15:11:16.678Z</time></trkpt><trkpt lat="45.3375019" lon="7.8933422"><ele>232.00000000000003</ele><time>2026-04-25T15:11:18.714Z</time></trkpt><trkpt lat="45.3374297" lon="7.8932631"><ele>232.0</ele><time>2026-04-25T15:11:21.71Z</time></trkpt><trkpt lat="45.3373677" lon="7.8932426"><ele>232.00000000000003</ele><time>2026-04-25T15:11:23.627Z</time></trkpt><trkpt lat="45.3372953" lon="7.893238"><ele>232.00000000000003</ele><time>2026-04-25T15:11:25.664Z</time></trkpt><trkpt lat="45.3372171" lon="7.8932466"><ele>232.71428571428575</ele><time>2026-04-25T15:11:28.659Z</time></trkpt><trkpt lat="45.3371532" lon="7.8932464"><ele>233.42857142857144</ele><time>2026-04-25T15:11:30.658Z</time></trkpt><trkpt lat="45.337058" lon="7.8932555"><ele>234.14285714285714</ele><time>2026-04-25T15:11:33.692Z</time></trkpt><trkpt lat="45.3369711" lon="7.8932537"><ele>234.85714285714286</ele><time>2026-04-25T15:11:36.687Z</time></trkpt><trkpt lat="45.3369058" lon="7.893249"><ele>235.57142857142856</ele><time>2026-04-25T15:11:38.724Z</time></trkpt><trkpt lat="45.3368415" lon="7.8932517"><ele>236.28571428571425</ele><time>2026-04-25T15:11:40.641Z</time></trkpt><trkpt lat="45.3367722" lon="7.8932442"><ele>236.99999999999997</ele><time>2026-04-25T15:11:42.677Z</time></trkpt><trkpt lat="45.33671" lon="7.8932267"><ele>237.0</ele><time>2026-04-25T15:11:44.715Z</time></trkpt><trkpt lat="45.3366189" lon="7.8932125"><ele>237.0</ele><time>2026-04-25T15:11:47.71Z</time></trkpt><trkpt lat="45.3365238" lon="7.8932113"><ele>237.0</ele><time>2026-04-25T15:11:50.706Z</time></trkpt><trkpt lat="45.3364438" lon="7.8931997"><ele>237.0</ele><time>2026-04-25T15:11:53.7Z</time></trkpt><trkpt lat="45.3363574" lon="7.8931954"><ele>237.0</ele><time>2026-04-25T15:11:56.696Z</time></trkpt><trkpt lat="45.3362606" lon="7.8931941"><ele>237.0</ele><time>2026-04-25T15:11:59.691Z</time></trkpt><trkpt lat="45.3361934" lon="7.8931892"><ele>237.0</ele><time>2026-04-25T15:12:01.728Z</time></trkpt><trkpt lat="45.336125" lon="7.8931821"><ele>237.0</ele><time>2026-04-25T15:12:04.576Z</time></trkpt><trkpt lat="45.3360362" lon="7.8931677"><ele>237.0</ele><time>2026-04-25T15:12:07.576Z</time></trkpt><trkpt lat="45.3359564" lon="7.8931672"><ele>237.0</ele><time>2026-04-25T15:12:10.577Z</time></trkpt><trkpt lat="45.3358758" lon="7.8931976"><ele>237.0</ele><time>2026-04-25T15:12:14.576Z</time></trkpt><trkpt lat="45.3358564" lon="7.8932836"><ele>237.0</ele><time>2026-04-25T15:12:17.576Z</time></trkpt><trkpt lat="45.3358637" lon="7.8933726"><ele>237.0</ele><time>2026-04-25T15:12:20.576Z</time></trkpt><trkpt lat="45.3358682" lon="7.8934932"><ele>237.0</ele><time>2026-04-25T15:12:23.576Z</time></trkpt><trkpt lat="45.3358701" lon="7.8936115"><ele>237.0</ele><time>2026-04-25T15:12:26.576Z</time></trkpt><trkpt lat="45.335853" lon="7.893727"><ele>237.0</ele><time>2026-04-25T15:12:29.576Z</time></trkpt><trkpt lat="45.3357831" lon="7.8938037"><ele>237.0</ele><time>2026-04-25T15:12:32.577Z</time></trkpt><trkpt lat="45.3356958" lon="7.893825"><ele>236.2</ele><time>2026-04-25T15:12:34.577Z</time></trkpt><trkpt lat="45.3355952" lon="7.8938358"><ele>235.39999999999998</ele><time>2026-04-25T15:12:36.577Z</time></trkpt><trkpt lat="45.335494" lon="7.8938394"><ele>234.60000000000002</ele><time>2026-04-25T15:12:38.577Z</time></trkpt><trkpt lat="45.3354017" lon="7.8938495"><ele>233.8</ele><time>2026-04-25T15:12:40.577Z</time></trkpt><trkpt lat="45.3353112" lon="7.8938725"><ele>233.0</ele><time>2026-04-25T15:12:42.577Z</time></trkpt><trkpt lat="45.3352239" lon="7.8939058"><ele>232.60000000000002</ele><time>2026-04-25T15:12:44.577Z</time></trkpt><trkpt lat="45.3351315" lon="7.8939179"><ele>232.20000000000002</ele><time>2026-04-25T15:12:46.577Z</time></trkpt><trkpt lat="45.3350351" lon="7.8939408"><ele>231.8</ele><time>2026-04-25T15:12:48.577Z</time></trkpt><trkpt lat="45.334942" lon="7.8939648"><ele>231.4</ele><time>2026-04-25T15:12:50.577Z</time></trkpt><trkpt lat="45.3348456" lon="7.8939897"><ele>231.0</ele><time>2026-04-25T15:12:52.577Z</time></trkpt><trkpt lat="45.3347502" lon="7.8940134"><ele>231.20000000000002</ele><time>2026-04-25T15:12:54.578Z</time></trkpt><trkpt lat="45.3346496" lon="7.8940544"><ele>231.40000000000003</ele><time>2026-04-25T15:12:56.577Z</time></trkpt><trkpt lat="45.3345474" lon="7.8940839"><ele>231.6</ele><time>2026-04-25T15:12:58.577Z</time></trkpt><trkpt lat="45.3344411" lon="7.8941182"><ele>231.8</ele><time>2026-04-25T15:13:00.577Z</time></trkpt><trkpt lat="45.3343397" lon="7.8941403"><ele>232.0</ele><time>2026-04-25T15:13:02.577Z</time></trkpt><trkpt lat="45.3342309" lon="7.8941534"><ele>232.0</ele><time>2026-04-25T15:13:04.577Z</time></trkpt><trkpt lat="45.3341169" lon="7.8941771"><ele>232.0</ele><time>2026-04-25T15:13:06.577Z</time></trkpt><trkpt lat="45.3340137" lon="7.8942016"><ele>232.0</ele><time>2026-04-25T15:13:08.577Z</time></trkpt><trkpt lat="45.3339087" lon="7.8942255"><ele>232.0</ele><time>2026-04-25T15:13:10.577Z</time></trkpt><trkpt lat="45.3338052" lon="7.8942458"><ele>232.0</ele><time>2026-04-25T15:13:12.577Z</time></trkpt><trkpt lat="45.3337105" lon="7.8942721"><ele>231.99999999999997</ele><time>2026-04-25T15:13:14.577Z</time></trkpt><trkpt lat="45.3336223" lon="7.8942928"><ele>232.0</ele><time>2026-04-25T15:13:16.577Z</time></trkpt><trkpt lat="45.3335347" lon="7.8943088"><ele>232.0</ele><time>2026-04-25T15:13:18.577Z</time></trkpt><trkpt lat="45.3334433" lon="7.8942934"><ele>232.0</ele><time>2026-04-25T15:13:20.578Z</time></trkpt><trkpt lat="45.3333612" lon="7.8942481"><ele>231.99999999999997</ele><time>2026-04-25T15:13:22.578Z</time></trkpt><trkpt lat="45.3332828" lon="7.8942061"><ele>232.0</ele><time>2026-04-25T15:13:24.578Z</time></trkpt><trkpt lat="45.333202" lon="7.8941769"><ele>231.8</ele><time>2026-04-25T15:13:26.578Z</time></trkpt><trkpt lat="45.3331224" lon="7.8941638"><ele>231.6</ele><time>2026-04-25T15:13:28.579Z</time></trkpt><trkpt lat="45.3330398" lon="7.8941828"><ele>231.40000000000003</ele><time>2026-04-25T15:13:30.578Z</time></trkpt><trkpt lat="45.3329465" lon="7.8942072"><ele>231.20000000000002</ele><time>2026-04-25T15:13:32.578Z</time></trkpt><trkpt lat="45.3328504" lon="7.894236"><ele>231.0</ele><time>2026-04-25T15:13:34.578Z</time></trkpt><trkpt lat="45.3327505" lon="7.8942549"><ele>231.0</ele><time>2026-04-25T15:13:36.579Z</time></trkpt><trkpt lat="45.3326486" lon="7.8942809"><ele>231.00000000000003</ele><time>2026-04-25T15:13:38.579Z</time></trkpt><trkpt lat="45.3325446" lon="7.8943165"><ele>231.00000000000003</ele><time>2026-04-25T15:13:40.578Z</time></trkpt><trkpt lat="45.332445" lon="7.8943403"><ele>231.0</ele><time>2026-04-25T15:13:42.579Z</time></trkpt><trkpt lat="45.3323524" lon="7.8943615"><ele>231.0</ele><time>2026-04-25T15:13:44.578Z</time></trkpt><trkpt lat="45.3322647" lon="7.8943853"><ele>231.16666666666666</ele><time>2026-04-25T15:13:46.578Z</time></trkpt><trkpt lat="45.3321753" lon="7.8944181"><ele>231.33333333333331</ele><time>2026-04-25T15:13:48.578Z</time></trkpt><trkpt lat="45.3320907" lon="7.8944525"><ele>231.5</ele><time>2026-04-25T15:13:50.578Z</time></trkpt><trkpt lat="45.3320044" lon="7.8944818"><ele>231.66666666666666</ele><time>2026-04-25T15:13:52.578Z</time></trkpt><trkpt lat="45.3319182" lon="7.8944988"><ele>231.83333333333331</ele><time>2026-04-25T15:13:54.578Z</time></trkpt><trkpt lat="45.3318387" lon="7.8945257"><ele>232.0</ele><time>2026-04-25T15:13:56.578Z</time></trkpt><trkpt lat="45.33176" lon="7.8945552"><ele>231.99999999999997</ele><time>2026-04-25T15:13:58.578Z</time></trkpt><trkpt lat="45.3316767" lon="7.8945912"><ele>232.0</ele><time>2026-04-25T15:14:01.579Z</time></trkpt><trkpt lat="45.3316108" lon="7.8946211"><ele>232.0</ele><time>2026-04-25T15:14:04.578Z</time></trkpt><trkpt lat="45.3315437" lon="7.8946715"><ele>232.0</ele><time>2026-04-25T15:14:48.58Z</time></trkpt><trkpt lat="45.3314692" lon="7.8947049"><ele>231.99999999999997</ele><time>2026-04-25T15:14:52.579Z</time></trkpt><trkpt lat="45.3314057" lon="7.8947569"><ele>232.0</ele><time>2026-04-25T15:14:56.579Z</time></trkpt><trkpt lat="45.3313471" lon="7.8948009"><ele>232.00000000000003</ele><time>2026-04-25T15:14:59.58Z</time></trkpt><trkpt lat="45.3312866" lon="7.894848"><ele>232.0</ele><time>2026-04-25T15:15:02.58Z</time></trkpt><trkpt lat="45.3312241" lon="7.8949008"><ele>232.00000000000003</ele><time>2026-04-25T15:15:05.58Z</time></trkpt><trkpt lat="45.3311657" lon="7.8949443"><ele>232.00000000000003</ele><time>2026-04-25T15:15:08.581Z</time></trkpt><trkpt lat="45.3311007" lon="7.8949883"><ele>232.0</ele><time>2026-04-25T15:15:11.58Z</time></trkpt><trkpt lat="45.3310382" lon="7.8950392"><ele>232.00000000000003</ele><time>2026-04-25T15:15:14.58Z</time></trkpt><trkpt lat="45.3309644" lon="7.8950752"><ele>232.00000000000003</ele><time>2026-04-25T15:15:17.58Z</time></trkpt><trkpt lat="45.3308991" lon="7.8951118"><ele>231.8571428571429</ele><time>2026-04-25T15:15:20.58Z</time></trkpt><trkpt lat="45.3308328" lon="7.8951372"><ele>231.71428571428572</ele><time>2026-04-25T15:15:23.58Z</time></trkpt><trkpt lat="45.3307662" lon="7.8951495"><ele>231.57142857142858</ele><time>2026-04-25T15:15:26.581Z</time></trkpt><trkpt lat="45.3306855" lon="7.8951535"><ele>231.42857142857144</ele><time>2026-04-25T15:15:30.58Z</time></trkpt><trkpt lat="45.3306093" lon="7.8951289"><ele>231.28571428571428</ele><time>2026-04-25T15:15:34.581Z</time></trkpt><trkpt lat="45.3305398" lon="7.8951022"><ele>231.14285714285714</ele><time>2026-04-25T15:15:39.58Z</time></trkpt><trkpt lat="45.3304732" lon="7.8950956"><ele>231.0</ele><time>2026-04-25T15:15:43.58Z</time></trkpt><trkpt lat="45.3304066" lon="7.8951016"><ele>231.0</ele><time>2026-04-25T15:15:47.581Z</time></trkpt><trkpt lat="45.3303277" lon="7.8951349"><ele>231.0</ele><time>2026-04-25T15:15:51.581Z</time></trkpt><trkpt lat="45.3302313" lon="7.8951748"><ele>231.0</ele><time>2026-04-25T15:15:55.581Z</time></trkpt><trkpt lat="45.3301632" lon="7.8952115"><ele>231.0</ele><time>2026-04-25T15:15:58.581Z</time></trkpt><trkpt lat="45.3300884" lon="7.8952478"><ele>231.0</ele><time>2026-04-25T15:16:01.581Z</time></trkpt><trkpt lat="45.3300145" lon="7.8952927"><ele>231.0</ele><time>2026-04-25T15:16:04.582Z</time></trkpt><trkpt lat="45.3299505" lon="7.895349"><ele>231.0</ele><time>2026-04-25T15:16:07.581Z</time></trkpt><trkpt lat="45.3298862" lon="7.8954093"><ele>231.0</ele><time>2026-04-25T15:16:10.581Z</time></trkpt><trkpt lat="45.3298249" lon="7.8954647"><ele>231.0</ele><time>2026-04-25T15:16:13.581Z</time></trkpt><trkpt lat="45.3297565" lon="7.8955241"><ele>231.0</ele><time>2026-04-25T15:16:16.581Z</time></trkpt><trkpt lat="45.3296863" lon="7.8955927"><ele>231.0</ele><time>2026-04-25T15:16:19.581Z</time></trkpt><trkpt lat="45.3296295" lon="7.8956393"><ele>231.0</ele><time>2026-04-25T15:16:21.581Z</time></trkpt><trkpt lat="45.3295528" lon="7.8956842"><ele>232.0</ele><time>2026-04-25T15:16:24.582Z</time></trkpt><trkpt lat="45.3294768" lon="7.8957155"><ele>233.0</ele><time>2026-04-25T15:16:27.581Z</time></trkpt><trkpt lat="45.3293992" lon="7.8957488"><ele>234.0</ele><time>2026-04-25T15:16:30.581Z</time></trkpt><trkpt lat="45.3293249" lon="7.8957806"><ele>235.0</ele><time>2026-04-25T15:16:33.581Z</time></trkpt><trkpt lat="45.3292262" lon="7.8958246"><ele>236.0</ele><time>2026-04-25T15:16:37.582Z</time></trkpt><trkpt lat="45.3291507" lon="7.8958509"><ele>237.0</ele><time>2026-04-25T15:16:40.582Z</time></trkpt><trkpt lat="45.3290829" lon="7.8958793"><ele>236.99999999999997</ele><time>2026-04-25T15:16:43.582Z</time></trkpt><trkpt lat="45.3290066" lon="7.8959006"><ele>237.0</ele><time>2026-04-25T15:16:46.582Z</time></trkpt><trkpt lat="45.3289295" lon="7.8959288"><ele>236.99999999999997</ele><time>2026-04-25T15:16:49.582Z</time></trkpt><trkpt lat="45.3288674" lon="7.8959605"><ele>236.99999999999997</ele><time>2026-04-25T15:16:51.583Z</time></trkpt><trkpt lat="45.3288042" lon="7.8959866"><ele>237.0</ele><time>2026-04-25T15:16:53.582Z</time></trkpt><trkpt lat="45.3287401" lon="7.8960208"><ele>236.99999999999997</ele><time>2026-04-25T15:16:55.582Z</time></trkpt><trkpt lat="45.3286789" lon="7.8960579"><ele>236.99999999999997</ele><time>2026-04-25T15:16:57.582Z</time></trkpt><trkpt lat="45.3286205" lon="7.8960956"><ele>236.0</ele><time>2026-04-25T15:16:59.582Z</time></trkpt><trkpt lat="45.3285423" lon="7.8961531"><ele>235.0</ele><time>2026-04-25T15:17:02.582Z</time></trkpt><trkpt lat="45.328458" lon="7.8962062"><ele>234.0</ele><time>2026-04-25T15:17:05.582Z</time></trkpt><trkpt lat="45.32838" lon="7.8962585"><ele>233.0</ele><time>2026-04-25T15:17:08.582Z</time></trkpt><trkpt lat="45.3283" lon="7.8963091"><ele>232.0</ele><time>2026-04-25T15:17:11.582Z</time></trkpt><trkpt lat="45.3282425" lon="7.8963476"><ele>231.0</ele><time>2026-04-25T15:17:13.582Z</time></trkpt><trkpt lat="45.328165" lon="7.8964016"><ele>231.0</ele><time>2026-04-25T15:17:16.583Z</time></trkpt><trkpt lat="45.3280801" lon="7.8964461"><ele>231.0</ele><time>2026-04-25T15:17:19.582Z</time></trkpt><trkpt lat="45.3280039" lon="7.8964896"><ele>231.0</ele><time>2026-04-25T15:17:22.583Z</time></trkpt><trkpt lat="45.327923" lon="7.8965319"><ele>231.0</ele><time>2026-04-25T15:17:25.583Z</time></trkpt><trkpt lat="45.3278606" lon="7.8965528"><ele>231.0</ele><time>2026-04-25T15:17:27.583Z</time></trkpt><trkpt lat="45.3277973" lon="7.8965704"><ele>231.0</ele><time>2026-04-25T15:17:29.583Z</time></trkpt><trkpt lat="45.3277345" lon="7.8965915"><ele>231.83333333333334</ele><time>2026-04-25T15:17:31.583Z</time></trkpt><trkpt lat="45.3276672" lon="7.8966096"><ele>232.66666666666669</ele><time>2026-04-25T15:17:33.583Z</time></trkpt><trkpt lat="45.3275988" lon="7.8966317"><ele>233.5</ele><time>2026-04-25T15:17:35.583Z</time></trkpt><trkpt lat="45.3275305" lon="7.8966513"><ele>234.33333333333334</ele><time>2026-04-25T15:17:37.583Z</time></trkpt><trkpt lat="45.3274346" lon="7.8966719"><ele>235.16666666666669</ele><time>2026-04-25T15:17:40.584Z</time></trkpt><trkpt lat="45.3273589" lon="7.8966956"><ele>236.0</ele><time>2026-04-25T15:17:42.583Z</time></trkpt><trkpt lat="45.3272852" lon="7.8967187"><ele>235.71428571428572</ele><time>2026-04-25T15:17:44.583Z</time></trkpt><trkpt lat="45.3272162" lon="7.8967461"><ele>235.42857142857144</ele><time>2026-04-25T15:17:46.583Z</time></trkpt><trkpt lat="45.3271529" lon="7.8967781"><ele>235.14285714285717</ele><time>2026-04-25T15:17:48.584Z</time></trkpt><trkpt lat="45.3270814" lon="7.8968097"><ele>234.85714285714286</ele><time>2026-04-25T15:17:50.583Z</time></trkpt><trkpt lat="45.3270129" lon="7.8968474"><ele>234.5714285714286</ele><time>2026-04-25T15:17:52.583Z</time></trkpt><trkpt lat="45.3269439" lon="7.8968873"><ele>234.2857142857143</ele><time>2026-04-25T15:17:54.583Z</time></trkpt><trkpt lat="45.3268704" lon="7.8969335"><ele>234.0</ele><time>2026-04-25T15:17:56.583Z</time></trkpt><trkpt lat="45.3267985" lon="7.8969758"><ele>233.71428571428572</ele><time>2026-04-25T15:17:58.584Z</time></trkpt><trkpt lat="45.3267201" lon="7.8970054"><ele>233.42857142857144</ele><time>2026-04-25T15:18:00.584Z</time></trkpt><trkpt lat="45.3266479" lon="7.8970337"><ele>233.14285714285717</ele><time>2026-04-25T15:18:02.583Z</time></trkpt><trkpt lat="45.3265825" lon="7.8970758"><ele>232.8571428571429</ele><time>2026-04-25T15:18:04.583Z</time></trkpt><trkpt lat="45.3265148" lon="7.8971153"><ele>232.57142857142858</ele><time>2026-04-25T15:18:06.584Z</time></trkpt><trkpt lat="45.3264465" lon="7.8971498"><ele>232.28571428571433</ele><time>2026-04-25T15:18:08.584Z</time></trkpt><trkpt lat="45.3263785" lon="7.8971885"><ele>232.00000000000003</ele><time>2026-04-25T15:18:10.583Z</time></trkpt><trkpt lat="45.3263095" lon="7.8972244"><ele>231.99999999999997</ele><time>2026-04-25T15:18:12.583Z</time></trkpt><trkpt lat="45.3262418" lon="7.8972619"><ele>232.0</ele><time>2026-04-25T15:18:14.583Z</time></trkpt><trkpt lat="45.3261759" lon="7.8973103"><ele>232.0</ele><time>2026-04-25T15:18:16.584Z</time></trkpt><trkpt lat="45.3261078" lon="7.8973495"><ele>232.0</ele><time>2026-04-25T15:18:18.585Z</time></trkpt><trkpt lat="45.3260349" lon="7.8973751"><ele>231.99999999999997</ele><time>2026-04-25T15:18:20.584Z</time></trkpt><trkpt lat="45.3259614" lon="7.8974101"><ele>232.0</ele><time>2026-04-25T15:18:22.585Z</time></trkpt><trkpt lat="45.3258833" lon="7.8974681"><ele>231.99999999999997</ele><time>2026-04-25T15:18:24.584Z</time></trkpt><trkpt lat="45.3258027" lon="7.897508"><ele>232.0</ele><time>2026-04-25T15:18:26.584Z</time></trkpt><trkpt lat="45.3257149" lon="7.8975344"><ele>232.0</ele><time>2026-04-25T15:18:28.584Z</time></trkpt><trkpt lat="45.3256299" lon="7.8975629"><ele>232.0</ele><time>2026-04-25T15:18:30.584Z</time></trkpt><trkpt lat="45.3255464" lon="7.8975865"><ele>231.99999999999997</ele><time>2026-04-25T15:18:32.584Z</time></trkpt><trkpt lat="45.3254584" lon="7.8976143"><ele>232.0</ele><time>2026-04-25T15:18:34.584Z</time></trkpt><trkpt lat="45.3253755" lon="7.8976313"><ele>231.42857142857144</ele><time>2026-04-25T15:18:36.584Z</time></trkpt><trkpt lat="45.3252919" lon="7.8976458"><ele>230.85714285714286</ele><time>2026-04-25T15:18:38.584Z</time></trkpt><trkpt lat="45.3252135" lon="7.8976468"><ele>230.28571428571428</ele><time>2026-04-25T15:18:40.584Z</time></trkpt><trkpt lat="45.3251434" lon="7.8976451"><ele>229.71428571428572</ele><time>2026-04-25T15:18:42.585Z</time></trkpt><trkpt lat="45.3250761" lon="7.8976479"><ele>229.1428571428571</ele><time>2026-04-25T15:18:44.584Z</time></trkpt><trkpt lat="45.3250127" lon="7.8976464"><ele>228.57142857142856</ele><time>2026-04-25T15:18:46.584Z</time></trkpt><trkpt lat="45.324942" lon="7.8976421"><ele>228.0</ele><time>2026-04-25T15:18:48.585Z</time></trkpt><trkpt lat="45.3248575" lon="7.8976271"><ele>228.0</ele><time>2026-04-25T15:18:50.584Z</time></trkpt><trkpt lat="45.3247793" lon="7.8976177"><ele>227.99999999999997</ele><time>2026-04-25T15:18:52.584Z</time></trkpt><trkpt lat="45.3247073" lon="7.897602"><ele>228.0</ele><time>2026-04-25T15:18:54.584Z</time></trkpt><trkpt lat="45.3246289" lon="7.8975909"><ele>228.0</ele><time>2026-04-25T15:18:56.584Z</time></trkpt><trkpt lat="45.3245637" lon="7.8975911"><ele>227.99999999999997</ele><time>2026-04-25T15:18:58.584Z</time></trkpt><trkpt lat="45.3244963" lon="7.8975967"><ele>228.0</ele><time>2026-04-25T15:19:00.584Z</time></trkpt><trkpt lat="45.3244287" lon="7.897594"><ele>228.0</ele><time>2026-04-25T15:19:02.584Z</time></trkpt><trkpt lat="45.3243634" lon="7.8975897"><ele>227.83333333333334</ele><time>2026-04-25T15:19:04.585Z</time></trkpt><trkpt lat="45.3242926" lon="7.8975874"><ele>227.66666666666669</ele><time>2026-04-25T15:19:06.585Z</time></trkpt><trkpt lat="45.324225" lon="7.8975751"><ele>227.5</ele><time>2026-04-25T15:19:08.585Z</time></trkpt><trkpt lat="45.3241569" lon="7.8975738"><ele>227.33333333333334</ele><time>2026-04-25T15:19:10.586Z</time></trkpt><trkpt lat="45.324066" lon="7.8975696"><ele>227.16666666666669</ele><time>2026-04-25T15:19:13.585Z</time></trkpt><trkpt lat="45.3239768" lon="7.897564"><ele>227.0</ele><time>2026-04-25T15:19:16.586Z</time></trkpt><trkpt lat="45.3238864" lon="7.8975554"><ele>227.0</ele><time>2026-04-25T15:19:19.585Z</time></trkpt><trkpt lat="45.3238221" lon="7.8975599"><ele>227.00000000000003</ele><time>2026-04-25T15:19:21.585Z</time></trkpt><trkpt lat="45.3237586" lon="7.8975494"><ele>227.0</ele><time>2026-04-25T15:19:23.585Z</time></trkpt><trkpt lat="45.3236912" lon="7.8975403"><ele>227.0</ele><time>2026-04-25T15:19:25.585Z</time></trkpt><trkpt lat="45.3236277" lon="7.8975376"><ele>227.00000000000003</ele><time>2026-04-25T15:19:27.585Z</time></trkpt><trkpt lat="45.3235378" lon="7.8975246"><ele>227.0</ele><time>2026-04-25T15:19:30.586Z</time></trkpt><trkpt lat="45.3234505" lon="7.8975178"><ele>227.0</ele><time>2026-04-25T15:19:33.585Z</time></trkpt><trkpt lat="45.3233848" lon="7.8975135"><ele>227.0</ele><time>2026-04-25T15:19:35.586Z</time></trkpt><trkpt lat="45.3233185" lon="7.8975143"><ele>227.00000000000003</ele><time>2026-04-25T15:19:37.585Z</time></trkpt><trkpt lat="45.3232514" lon="7.8975054"><ele>227.0</ele><time>2026-04-25T15:19:39.586Z</time></trkpt><trkpt lat="45.3231793" lon="7.8975006"><ele>227.0</ele><time>2026-04-25T15:19:41.585Z</time></trkpt><trkpt lat="45.3231034" lon="7.8974877"><ele>227.00000000000003</ele><time>2026-04-25T15:19:43.585Z</time></trkpt><trkpt lat="45.3230308" lon="7.8974815"><ele>227.0</ele><time>2026-04-25T15:19:45.585Z</time></trkpt><trkpt lat="45.3229618" lon="7.8974813"><ele>227.0</ele><time>2026-04-25T15:19:47.585Z</time></trkpt><trkpt lat="45.3228708" lon="7.8974745"><ele>227.83333333333334</ele><time>2026-04-25T15:19:50.586Z</time></trkpt><trkpt lat="45.3227956" lon="7.8974583"><ele>228.66666666666669</ele><time>2026-04-25T15:19:52.585Z</time></trkpt><trkpt lat="45.3227164" lon="7.8974562"><ele>229.5</ele><time>2026-04-25T15:19:54.586Z</time></trkpt><trkpt lat="45.3226451" lon="7.8974562"><ele>230.33333333333331</ele><time>2026-04-25T15:19:56.586Z</time></trkpt><trkpt lat="45.3225519" lon="7.897447"><ele>231.16666666666666</ele><time>2026-04-25T15:19:59.586Z</time></trkpt><trkpt lat="45.3224877" lon="7.8974427"><ele>232.0</ele><time>2026-04-25T15:20:01.587Z</time></trkpt><trkpt lat="45.3224225" lon="7.8974381"><ele>231.99999999999997</ele><time>2026-04-25T15:20:03.586Z</time></trkpt><trkpt lat="45.3223341" lon="7.8974293"><ele>232.0</ele><time>2026-04-25T15:20:06.586Z</time></trkpt><trkpt lat="45.3222636" lon="7.8974289"><ele>232.0</ele><time>2026-04-25T15:20:09.586Z</time></trkpt><trkpt lat="45.3221964" lon="7.8974284"><ele>232.0</ele><time>2026-04-25T15:20:12.586Z</time></trkpt><trkpt lat="45.3221072" lon="7.8974272"><ele>231.99999999999997</ele><time>2026-04-25T15:20:15.586Z</time></trkpt><trkpt lat="45.3220181" lon="7.8974308"><ele>232.0</ele><time>2026-04-25T15:20:18.586Z</time></trkpt><trkpt lat="45.3219461" lon="7.897426"><ele>231.99999999999997</ele><time>2026-04-25T15:20:20.586Z</time></trkpt><trkpt lat="45.3218704" lon="7.8974181"><ele>232.0</ele><time>2026-04-25T15:20:22.586Z</time></trkpt><trkpt lat="45.3218049" lon="7.8974128"><ele>232.0</ele><time>2026-04-25T15:20:24.586Z</time></trkpt><trkpt lat="45.3217167" lon="7.8973918"><ele>232.0</ele><time>2026-04-25T15:20:27.586Z</time></trkpt><trkpt lat="45.3216309" lon="7.8973843"><ele>231.99999999999997</ele><time>2026-04-25T15:20:30.586Z</time></trkpt><trkpt lat="45.3215615" lon="7.8974067"><ele>232.0</ele><time>2026-04-25T15:20:33.587Z</time></trkpt><trkpt lat="45.3214911" lon="7.8974127"><ele>231.99999999999997</ele><time>2026-04-25T15:20:36.586Z</time></trkpt><trkpt lat="45.3214213" lon="7.8974604"><ele>232.0</ele><time>2026-04-25T15:20:40.586Z</time></trkpt><trkpt lat="45.3213478" lon="7.8975327"><ele>232.0</ele><time>2026-04-25T15:20:43.587Z</time></trkpt><trkpt lat="45.3212837" lon="7.8975771"><ele>232.0</ele><time>2026-04-25T15:20:45.587Z</time></trkpt><trkpt lat="45.321224" lon="7.8976297"><ele>231.99999999999997</ele><time>2026-04-25T15:20:47.587Z</time></trkpt><trkpt lat="45.3211513" lon="7.897708"><ele>232.0</ele><time>2026-04-25T15:20:50.587Z</time></trkpt><trkpt lat="45.3211164" lon="7.8977831"><ele>231.42857142857144</ele><time>2026-04-25T15:20:53.588Z</time></trkpt><trkpt lat="45.3210602" lon="7.8978276"><ele>230.85714285714286</ele><time>2026-04-25T15:20:56.587Z</time></trkpt><trkpt lat="45.3209935" lon="7.8978579"><ele>230.28571428571428</ele><time>2026-04-25T15:20:59.587Z</time></trkpt><trkpt lat="45.3209164" lon="7.8978404"><ele>229.71428571428572</ele><time>2026-04-25T15:21:02.588Z</time></trkpt><trkpt lat="45.3208387" lon="7.8978741"><ele>229.1428571428571</ele><time>2026-04-25T15:21:05.587Z</time></trkpt><trkpt lat="45.3207548" lon="7.8979124"><ele>228.57142857142856</ele><time>2026-04-25T15:21:08.587Z</time></trkpt><trkpt lat="45.3206953" lon="7.8979506"><ele>228.0</ele><time>2026-04-25T15:21:10.587Z</time></trkpt><trkpt lat="45.3206266" lon="7.8980053"><ele>228.4</ele><time>2026-04-25T15:21:13.588Z</time></trkpt><trkpt lat="45.320558" lon="7.8980407"><ele>228.8</ele><time>2026-04-25T15:21:16.588Z</time></trkpt><trkpt lat="45.3204874" lon="7.8980796"><ele>229.2</ele><time>2026-04-25T15:21:19.587Z</time></trkpt><trkpt lat="45.320426" lon="7.8981242"><ele>229.6</ele><time>2026-04-25T15:21:22.587Z</time></trkpt><trkpt lat="45.3203599" lon="7.8981552"><ele>230.0</ele><time>2026-04-25T15:21:26.588Z</time></trkpt><trkpt lat="45.320157" lon="7.8981945"><ele>230.00000000000003</ele><time>2026-04-25T15:21:39.588Z</time></trkpt><trkpt lat="45.3200951" lon="7.8982341"><ele>230.0</ele><time>2026-04-25T15:21:41.588Z</time></trkpt><trkpt lat="45.3200113" lon="7.8982819"><ele>230.0</ele><time>2026-04-25T15:21:44.588Z</time></trkpt><trkpt lat="45.3199421" lon="7.8983105"><ele>230.0</ele><time>2026-04-25T15:21:47.588Z</time></trkpt><trkpt lat="45.3198873" lon="7.8983793"><ele>230.00000000000003</ele><time>2026-04-25T15:21:50.588Z</time></trkpt><trkpt lat="45.3198561" lon="7.8984895"><ele>230.0</ele><time>2026-04-25T15:21:53.589Z</time></trkpt><trkpt lat="45.3197977" lon="7.8985975"><ele>230.00000000000003</ele><time>2026-04-25T15:21:56.588Z</time></trkpt><trkpt lat="45.3197445" lon="7.89866"><ele>230.0</ele><time>2026-04-25T15:21:58.588Z</time></trkpt><trkpt lat="45.3196679" lon="7.8987268"><ele>230.0</ele><time>2026-04-25T15:22:01.588Z</time></trkpt><trkpt lat="45.3196001" lon="7.8987996"><ele>230.0</ele><time>2026-04-25T15:22:04.588Z</time></trkpt><trkpt lat="45.3195281" lon="7.8988683"><ele>230.00000000000003</ele><time>2026-04-25T15:22:07.588Z</time></trkpt><trkpt lat="45.3194439" lon="7.8989097"><ele>230.0</ele><time>2026-04-25T15:22:10.588Z</time></trkpt><trkpt lat="45.3193908" lon="7.898992"><ele>230.16666666666669</ele><time>2026-04-25T15:22:13.588Z</time></trkpt><trkpt lat="45.3193431" lon="7.8990833"><ele>230.33333333333334</ele><time>2026-04-25T15:22:16.588Z</time></trkpt><trkpt lat="45.3193096" lon="7.8992016"><ele>230.5</ele><time>2026-04-25T15:22:19.588Z</time></trkpt><trkpt lat="45.319301" lon="7.8993338"><ele>230.66666666666669</ele><time>2026-04-25T15:22:22.59Z</time></trkpt><trkpt lat="45.3193198" lon="7.8994581"><ele>230.83333333333334</ele><time>2026-04-25T15:22:25.589Z</time></trkpt><trkpt lat="45.3193384" lon="7.8995745"><ele>231.0</ele><time>2026-04-25T15:22:28.589Z</time></trkpt><trkpt lat="45.3193686" lon="7.8996743"><ele>231.0</ele><time>2026-04-25T15:22:31.589Z</time></trkpt><trkpt lat="45.319413" lon="7.8997826"><ele>231.0</ele><time>2026-04-25T15:22:34.589Z</time></trkpt><trkpt lat="45.3194484" lon="7.8999025"><ele>231.0</ele><time>2026-04-25T15:22:37.589Z</time></trkpt><trkpt lat="45.319452" lon="7.9000027"><ele>231.0</ele><time>2026-04-25T15:22:40.589Z</time></trkpt><trkpt lat="45.3194027" lon="7.9000663"><ele>231.0</ele><time>2026-04-25T15:22:47.589Z</time></trkpt><trkpt lat="45.3194762" lon="7.9000634"><ele>231.0</ele><time>2026-04-25T15:27:35.595Z</time></trkpt><trkpt lat="45.3194783" lon="7.8999592"><ele>231.0</ele><time>2026-04-25T15:27:39.595Z</time></trkpt><trkpt lat="45.3194557" lon="7.8998637"><ele>231.0</ele><time>2026-04-25T15:27:42.595Z</time></trkpt><trkpt lat="45.3194223" lon="7.8997543"><ele>231.0</ele><time>2026-04-25T15:27:45.595Z</time></trkpt><trkpt lat="45.3193985" lon="7.8996665"><ele>231.0</ele><time>2026-04-25T15:27:48.595Z</time></trkpt><trkpt lat="45.3193844" lon="7.899564"><ele>231.0</ele><time>2026-04-25T15:27:52.596Z</time></trkpt><trkpt lat="45.3193594" lon="7.8994744"><ele>231.0</ele><time>2026-04-25T15:27:55.596Z</time></trkpt><trkpt lat="45.3193454" lon="7.8993787"><ele>231.0</ele><time>2026-04-25T15:27:58.596Z</time></trkpt><trkpt lat="45.3193546" lon="7.8992767"><ele>231.14285714285714</ele><time>2026-04-25T15:28:01.596Z</time></trkpt><trkpt lat="45.3193595" lon="7.8991583"><ele>231.28571428571428</ele><time>2026-04-25T15:28:05.596Z</time></trkpt><trkpt lat="45.3193687" lon="7.8990629"><ele>231.42857142857144</ele><time>2026-04-25T15:28:08.596Z</time></trkpt><trkpt lat="45.3193854" lon="7.8989638"><ele>231.57142857142858</ele><time>2026-04-25T15:28:11.596Z</time></trkpt><trkpt lat="45.319371" lon="7.8988514"><ele>231.71428571428572</ele><time>2026-04-25T15:28:14.596Z</time></trkpt><trkpt lat="45.3193149" lon="7.8987978"><ele>231.8571428571429</ele><time>2026-04-25T15:28:17.596Z</time></trkpt><trkpt lat="45.3192426" lon="7.8987995"><ele>232.00000000000003</ele><time>2026-04-25T15:28:20.597Z</time></trkpt><trkpt lat="45.319155" lon="7.8988157"><ele>231.99999999999997</ele><time>2026-04-25T15:28:23.596Z</time></trkpt><trkpt lat="45.3190947" lon="7.898844"><ele>232.0</ele><time>2026-04-25T15:28:25.596Z</time></trkpt><trkpt lat="45.31902" lon="7.8988767"><ele>232.0</ele><time>2026-04-25T15:28:27.596Z</time></trkpt><trkpt lat="45.3189329" lon="7.8989151"><ele>232.0</ele><time>2026-04-25T15:28:29.597Z</time></trkpt><trkpt lat="45.3188434" lon="7.8989514"><ele>231.99999999999997</ele><time>2026-04-25T15:28:31.596Z</time></trkpt><trkpt lat="45.3187621" lon="7.8989854"><ele>232.0</ele><time>2026-04-25T15:28:33.596Z</time></trkpt><trkpt lat="45.3186915" lon="7.8990161"><ele>232.33333333333331</ele><time>2026-04-25T15:28:35.596Z</time></trkpt><trkpt lat="45.3186303" lon="7.8990529"><ele>232.66666666666666</ele><time>2026-04-25T15:28:37.596Z</time></trkpt><trkpt lat="45.3185567" lon="7.8990708"><ele>233.0</ele><time>2026-04-25T15:28:40.596Z</time></trkpt><trkpt lat="45.3184837" lon="7.8990849"><ele>233.33333333333331</ele><time>2026-04-25T15:28:44.597Z</time></trkpt><trkpt lat="45.3184162" lon="7.8990978"><ele>233.66666666666666</ele><time>2026-04-25T15:28:49.597Z</time></trkpt><trkpt lat="45.3184383" lon="7.8992009"><ele>234.0</ele><time>2026-04-25T15:31:00.6Z</time></trkpt><trkpt lat="45.3184499" lon="7.8993571"><ele>234.2</ele><time>2026-04-25T15:31:12.6Z</time></trkpt><trkpt lat="45.3184181" lon="7.8994521"><ele>234.39999999999998</ele><time>2026-04-25T15:31:14.6Z</time></trkpt><trkpt lat="45.3183813" lon="7.8995562"><ele>234.6</ele><time>2026-04-25T15:31:16.6Z</time></trkpt><trkpt lat="45.3183418" lon="7.8996693"><ele>234.8</ele><time>2026-04-25T15:31:18.6Z</time></trkpt><trkpt lat="45.318301" lon="7.8998144"><ele>235.0</ele><time>2026-04-25T15:31:20.601Z</time></trkpt><trkpt lat="45.3182547" lon="7.8999722"><ele>234.5</ele><time>2026-04-25T15:31:22.601Z</time></trkpt><trkpt lat="45.3182107" lon="7.9001328"><ele>234.0</ele><time>2026-04-25T15:31:24.6Z</time></trkpt><trkpt lat="45.3181563" lon="7.9002901"><ele>233.5</ele><time>2026-04-25T15:31:26.6Z</time></trkpt><trkpt lat="45.3180955" lon="7.9004368"><ele>233.0</ele><time>2026-04-25T15:31:28.601Z</time></trkpt><trkpt lat="45.3180457" lon="7.9005742"><ele>233.0</ele><time>2026-04-25T15:31:30.6Z</time></trkpt><trkpt lat="45.3180068" lon="7.900715"><ele>233.0</ele><time>2026-04-25T15:31:32.6Z</time></trkpt><trkpt lat="45.3179605" lon="7.9008451"><ele>233.0</ele><time>2026-04-25T15:31:34.6Z</time></trkpt><trkpt lat="45.3179057" lon="7.9009698"><ele>233.0</ele><time>2026-04-25T15:31:36.6Z</time></trkpt><trkpt lat="45.3178569" lon="7.9011139"><ele>233.0</ele><time>2026-04-25T15:31:38.601Z</time></trkpt><trkpt lat="45.3178158" lon="7.9012536"><ele>233.0</ele><time>2026-04-25T15:31:40.6Z</time></trkpt><trkpt lat="45.3177761" lon="7.9013908"><ele>233.0</ele><time>2026-04-25T15:31:42.6Z</time></trkpt><trkpt lat="45.3177253" lon="7.9015273"><ele>233.0</ele><time>2026-04-25T15:31:44.6Z</time></trkpt><trkpt lat="45.3176907" lon="7.9016631"><ele>233.0</ele><time>2026-04-25T15:31:46.6Z</time></trkpt><trkpt lat="45.317669" lon="7.9017815"><ele>233.0</ele><time>2026-04-25T15:31:48.6Z</time></trkpt><trkpt lat="45.3176257" lon="7.9019115"><ele>232.83333333333334</ele><time>2026-04-25T15:31:50.601Z</time></trkpt><trkpt lat="45.3175993" lon="7.9020226"><ele>232.66666666666669</ele><time>2026-04-25T15:31:52.6Z</time></trkpt><trkpt lat="45.3175642" lon="7.902134"><ele>232.5</ele><time>2026-04-25T15:31:54.6Z</time></trkpt><trkpt lat="45.317532" lon="7.9022464"><ele>232.33333333333331</ele><time>2026-04-25T15:31:56.601Z</time></trkpt><trkpt lat="45.3174917" lon="7.9023549"><ele>232.16666666666666</ele><time>2026-04-25T15:31:58.6Z</time></trkpt><trkpt lat="45.3174523" lon="7.9024554"><ele>232.0</ele><time>2026-04-25T15:32:00.601Z</time></trkpt><trkpt lat="45.3174136" lon="7.9025745"><ele>231.66666666666666</ele><time>2026-04-25T15:32:02.601Z</time></trkpt><trkpt lat="45.3173671" lon="7.902689"><ele>231.33333333333331</ele><time>2026-04-25T15:32:04.602Z</time></trkpt><trkpt lat="45.3173285" lon="7.9027988"><ele>231.0</ele><time>2026-04-25T15:32:06.601Z</time></trkpt><trkpt lat="45.3172915" lon="7.902905"><ele>230.66666666666669</ele><time>2026-04-25T15:32:08.601Z</time></trkpt><trkpt lat="45.3172498" lon="7.9030198"><ele>230.33333333333334</ele><time>2026-04-25T15:32:10.601Z</time></trkpt><trkpt lat="45.3172203" lon="7.9031274"><ele>230.0</ele><time>2026-04-25T15:32:12.601Z</time></trkpt><trkpt lat="45.3171874" lon="7.9032409"><ele>233.00000000000003</ele><time>2026-04-25T15:32:14.602Z</time></trkpt><trkpt lat="45.3171567" lon="7.9033518"><ele>236.0</ele><time>2026-04-25T15:32:16.601Z</time></trkpt><trkpt lat="45.3171303" lon="7.903463"><ele>239.0</ele><time>2026-04-25T15:32:18.601Z</time></trkpt><trkpt lat="45.3171106" lon="7.9035817"><ele>242.0</ele><time>2026-04-25T15:32:20.601Z</time></trkpt><trkpt lat="45.317096" lon="7.9036974"><ele>245.00000000000003</ele><time>2026-04-25T15:32:22.601Z</time></trkpt><trkpt lat="45.3170836" lon="7.9038188"><ele>248.0</ele><time>2026-04-25T15:32:24.601Z</time></trkpt><trkpt lat="45.3170624" lon="7.9039342"><ele>248.00000000000003</ele><time>2026-04-25T15:32:26.601Z</time></trkpt><trkpt lat="45.317051" lon="7.9040499"><ele>248.0</ele><time>2026-04-25T15:32:28.602Z</time></trkpt><trkpt lat="45.3170416" lon="7.9041643"><ele>248.0</ele><time>2026-04-25T15:32:30.601Z</time></trkpt><trkpt lat="45.3170359" lon="7.9042819"><ele>248.0</ele><time>2026-04-25T15:32:32.601Z</time></trkpt><trkpt lat="45.3170216" lon="7.9043945"><ele>248.00000000000003</ele><time>2026-04-25T15:32:34.601Z</time></trkpt><trkpt lat="45.3170133" lon="7.9045056"><ele>248.0</ele><time>2026-04-25T15:32:36.602Z</time></trkpt><trkpt lat="45.317004" lon="7.9046171"><ele>247.50000000000003</ele><time>2026-04-25T15:32:38.601Z</time></trkpt><trkpt lat="45.3169964" lon="7.9047299"><ele>247.0</ele><time>2026-04-25T15:32:40.601Z</time></trkpt><trkpt lat="45.31699" lon="7.9048368"><ele>246.5</ele><time>2026-04-25T15:32:42.601Z</time></trkpt><trkpt lat="45.3169958" lon="7.9049454"><ele>246.0</ele><time>2026-04-25T15:32:44.601Z</time></trkpt><trkpt lat="45.31701" lon="7.9050559"><ele>245.50000000000003</ele><time>2026-04-25T15:32:46.601Z</time></trkpt><trkpt lat="45.3170307" lon="7.9051655"><ele>245.0</ele><time>2026-04-25T15:32:48.602Z</time></trkpt><trkpt lat="45.3170516" lon="7.9052951"><ele>244.4</ele><time>2026-04-25T15:32:50.602Z</time></trkpt><trkpt lat="45.3170722" lon="7.9054246"><ele>243.8</ele><time>2026-04-25T15:32:52.602Z</time></trkpt><trkpt lat="45.3170917" lon="7.9055516"><ele>243.2</ele><time>2026-04-25T15:32:54.602Z</time></trkpt><trkpt lat="45.3171115" lon="7.9056831"><ele>242.6</ele><time>2026-04-25T15:32:56.602Z</time></trkpt><trkpt lat="45.3171328" lon="7.9058164"><ele>242.0</ele><time>2026-04-25T15:32:58.602Z</time></trkpt><trkpt lat="45.3171506" lon="7.905949"><ele>242.0</ele><time>2026-04-25T15:33:00.602Z</time></trkpt><trkpt lat="45.317168" lon="7.9060788"><ele>242.0</ele><time>2026-04-25T15:33:02.603Z</time></trkpt><trkpt lat="45.3171806" lon="7.9062067"><ele>242.0</ele><time>2026-04-25T15:33:04.602Z</time></trkpt><trkpt lat="45.3171972" lon="7.906341"><ele>242.0</ele><time>2026-04-25T15:33:06.602Z</time></trkpt><trkpt lat="45.3172195" lon="7.9064725"><ele>242.0</ele><time>2026-04-25T15:33:08.602Z</time></trkpt><trkpt lat="45.3172436" lon="7.9065991"><ele>241.0</ele><time>2026-04-25T15:33:10.602Z</time></trkpt><trkpt lat="45.317261" lon="7.906729"><ele>240.0</ele><time>2026-04-25T15:33:12.603Z</time></trkpt><trkpt lat="45.3172828" lon="7.9068567"><ele>239.0</ele><time>2026-04-25T15:33:14.602Z</time></trkpt><trkpt lat="45.3173037" lon="7.9069858"><ele>238.0</ele><time>2026-04-25T15:33:16.602Z</time></trkpt><trkpt lat="45.3173205" lon="7.9071085"><ele>237.0</ele><time>2026-04-25T15:33:18.602Z</time></trkpt><trkpt lat="45.3173391" lon="7.907229"><ele>237.0</ele><time>2026-04-25T15:33:20.602Z</time></trkpt><trkpt lat="45.3173511" lon="7.9073438"><ele>237.0</ele><time>2026-04-25T15:33:22.603Z</time></trkpt><trkpt lat="45.3173643" lon="7.9074538"><ele>237.0</ele><time>2026-04-25T15:33:24.603Z</time></trkpt><trkpt lat="45.317373" lon="7.907555"><ele>237.0</ele><time>2026-04-25T15:33:26.602Z</time></trkpt><trkpt lat="45.3173852" lon="7.9076651"><ele>237.0</ele><time>2026-04-25T15:33:28.602Z</time></trkpt><trkpt lat="45.3173778" lon="7.9077651"><ele>237.0</ele><time>2026-04-25T15:33:30.602Z</time></trkpt><trkpt lat="45.317366" lon="7.9078736"><ele>237.0</ele><time>2026-04-25T15:33:34.603Z</time></trkpt><trkpt lat="45.31738" lon="7.9079998"><ele>237.0</ele><time>2026-04-25T15:33:37.604Z</time></trkpt><trkpt lat="45.3174321" lon="7.9080913"><ele>237.0</ele><time>2026-04-25T15:33:39.603Z</time></trkpt><trkpt lat="45.3174968" lon="7.9081875"><ele>237.0</ele><time>2026-04-25T15:33:41.604Z</time></trkpt><trkpt lat="45.3175765" lon="7.9082944"><ele>237.0</ele><time>2026-04-25T15:33:43.604Z</time></trkpt><trkpt lat="45.3176477" lon="7.9084197"><ele>237.75</ele><time>2026-04-25T15:33:45.603Z</time></trkpt><trkpt lat="45.3177297" lon="7.9085357"><ele>238.5</ele><time>2026-04-25T15:33:47.603Z</time></trkpt><trkpt lat="45.3178025" lon="7.9086668"><ele>239.25</ele><time>2026-04-25T15:33:49.603Z</time></trkpt><trkpt lat="45.3178781" lon="7.9087868"><ele>240.0</ele><time>2026-04-25T15:33:51.603Z</time></trkpt><trkpt lat="45.3179478" lon="7.9089035"><ele>240.0</ele><time>2026-04-25T15:33:53.603Z</time></trkpt><trkpt lat="45.3180195" lon="7.9090186"><ele>240.0</ele><time>2026-04-25T15:33:55.603Z</time></trkpt><trkpt lat="45.3180973" lon="7.9091332"><ele>240.0</ele><time>2026-04-25T15:33:57.604Z</time></trkpt><trkpt lat="45.3181721" lon="7.9092575"><ele>240.0</ele><time>2026-04-25T15:33:59.603Z</time></trkpt><trkpt lat="45.3182568" lon="7.9093735"><ele>239.25</ele><time>2026-04-25T15:34:01.603Z</time></trkpt><trkpt lat="45.3183381" lon="7.9094848"><ele>238.5</ele><time>2026-04-25T15:34:03.603Z</time></trkpt><trkpt lat="45.3184203" lon="7.9095966"><ele>237.75</ele><time>2026-04-25T15:34:05.604Z</time></trkpt><trkpt lat="45.3185021" lon="7.9097146"><ele>237.0</ele><time>2026-04-25T15:34:07.603Z</time></trkpt><trkpt lat="45.318588" lon="7.9098387"><ele>237.0</ele><time>2026-04-25T15:34:09.603Z</time></trkpt><trkpt lat="45.3186704" lon="7.9099668"><ele>237.0</ele><time>2026-04-25T15:34:11.603Z</time></trkpt><trkpt lat="45.3187525" lon="7.9100901"><ele>237.0</ele><time>2026-04-25T15:34:13.603Z</time></trkpt><trkpt lat="45.3188344" lon="7.9102184"><ele>237.0</ele><time>2026-04-25T15:34:15.603Z</time></trkpt><trkpt lat="45.318912" lon="7.910335"><ele>237.0</ele><time>2026-04-25T15:34:17.603Z</time></trkpt><trkpt lat="45.3189868" lon="7.9104511"><ele>237.0</ele><time>2026-04-25T15:34:19.603Z</time></trkpt><trkpt lat="45.3190602" lon="7.9105664"><ele>237.0</ele><time>2026-04-25T15:34:21.604Z</time></trkpt><trkpt lat="45.3191353" lon="7.9106797"><ele>237.0</ele><time>2026-04-25T15:34:23.604Z</time></trkpt><trkpt lat="45.3192127" lon="7.9107988"><ele>237.0</ele><time>2026-04-25T15:34:25.604Z</time></trkpt><trkpt lat="45.3192913" lon="7.9109226"><ele>237.6</ele><time>2026-04-25T15:34:27.604Z</time></trkpt><trkpt lat="45.3193671" lon="7.9110405"><ele>238.2</ele><time>2026-04-25T15:34:29.604Z</time></trkpt><trkpt lat="45.3194437" lon="7.9111586"><ele>238.8</ele><time>2026-04-25T15:34:31.604Z</time></trkpt><trkpt lat="45.3195161" lon="7.9112831"><ele>239.4</ele><time>2026-04-25T15:34:33.604Z</time></trkpt><trkpt lat="45.3195868" lon="7.9114003"><ele>240.0</ele><time>2026-04-25T15:34:35.604Z</time></trkpt><trkpt lat="45.3196518" lon="7.9115247"><ele>240.0</ele><time>2026-04-25T15:34:37.605Z</time></trkpt><trkpt lat="45.3197217" lon="7.9116438"><ele>240.0</ele><time>2026-04-25T15:34:39.604Z</time></trkpt><trkpt lat="45.3197919" lon="7.9117664"><ele>240.0</ele><time>2026-04-25T15:34:41.604Z</time></trkpt><trkpt lat="45.3198596" lon="7.9118918"><ele>240.0</ele><time>2026-04-25T15:34:43.604Z</time></trkpt><trkpt lat="45.3199236" lon="7.9120208"><ele>240.0</ele><time>2026-04-25T15:34:45.605Z</time></trkpt><trkpt lat="45.3199891" lon="7.9121219"><ele>240.5</ele><time>2026-04-25T15:34:47.604Z</time></trkpt><trkpt lat="45.3200593" lon="7.9122093"><ele>241.0</ele><time>2026-04-25T15:34:49.604Z</time></trkpt><trkpt lat="45.3201113" lon="7.9123101"><ele>241.5</ele><time>2026-04-25T15:34:51.605Z</time></trkpt><trkpt lat="45.3201617" lon="7.9124092"><ele>242.0</ele><time>2026-04-25T15:34:53.605Z</time></trkpt><trkpt lat="45.3202073" lon="7.9125041"><ele>242.5</ele><time>2026-04-25T15:34:55.604Z</time></trkpt><trkpt lat="45.320256" lon="7.9126136"><ele>243.0</ele><time>2026-04-25T15:34:57.604Z</time></trkpt><trkpt lat="45.3203106" lon="7.9127318"><ele>244.5</ele><time>2026-04-25T15:34:59.604Z</time></trkpt><trkpt lat="45.3203664" lon="7.9128407"><ele>246.0</ele><time>2026-04-25T15:35:01.604Z</time></trkpt><trkpt lat="45.3204145" lon="7.9129504"><ele>247.5</ele><time>2026-04-25T15:35:03.604Z</time></trkpt><trkpt lat="45.3204532" lon="7.9130685"><ele>249.0</ele><time>2026-04-25T15:35:05.604Z</time></trkpt><trkpt lat="45.320479" lon="7.9131861"><ele>250.5</ele><time>2026-04-25T15:35:07.605Z</time></trkpt><trkpt lat="45.3204948" lon="7.9133034"><ele>252.0</ele><time>2026-04-25T15:35:09.605Z</time></trkpt><trkpt lat="45.3205044" lon="7.9134295"><ele>253.0</ele><time>2026-04-25T15:35:11.605Z</time></trkpt><trkpt lat="45.3205158" lon="7.9135497"><ele>254.0</ele><time>2026-04-25T15:35:13.605Z</time></trkpt><trkpt lat="45.3205205" lon="7.9136713"><ele>255.0</ele><time>2026-04-25T15:35:15.606Z</time></trkpt><trkpt lat="45.3205259" lon="7.913795"><ele>256.0</ele><time>2026-04-25T15:35:17.605Z</time></trkpt><trkpt lat="45.3205381" lon="7.9139131"><ele>257.0</ele><time>2026-04-25T15:35:19.605Z</time></trkpt><trkpt lat="45.3205447" lon="7.9140377"><ele>258.0</ele><time>2026-04-25T15:35:21.605Z</time></trkpt><trkpt lat="45.3205575" lon="7.9141659"><ele>253.83333333333334</ele><time>2026-04-25T15:35:23.605Z</time></trkpt><trkpt lat="45.3205677" lon="7.9142791"><ele>249.66666666666669</ele><time>2026-04-25T15:35:25.605Z</time></trkpt><trkpt lat="45.3205803" lon="7.914403"><ele>245.5</ele><time>2026-04-25T15:35:27.606Z</time></trkpt><trkpt lat="45.3205907" lon="7.9145295"><ele>241.33333333333334</ele><time>2026-04-25T15:35:29.605Z</time></trkpt><trkpt lat="45.3206038" lon="7.9146626"><ele>237.16666666666669</ele><time>2026-04-25T15:35:31.605Z</time></trkpt><trkpt lat="45.3206135" lon="7.9147888"><ele>233.0</ele><time>2026-04-25T15:35:33.605Z</time></trkpt><trkpt lat="45.3206157" lon="7.9149099"><ele>233.0</ele><time>2026-04-25T15:35:35.605Z</time></trkpt><trkpt lat="45.3206261" lon="7.915027"><ele>233.0</ele><time>2026-04-25T15:35:37.605Z</time></trkpt><trkpt lat="45.3206306" lon="7.9151462"><ele>233.0</ele><time>2026-04-25T15:35:39.605Z</time></trkpt><trkpt lat="45.3206388" lon="7.9152736"><ele>233.0</ele><time>2026-04-25T15:35:41.605Z</time></trkpt><trkpt lat="45.3206466" lon="7.9154189"><ele>233.0</ele><time>2026-04-25T15:35:43.605Z</time></trkpt><trkpt lat="45.3206581" lon="7.9155688"><ele>233.4</ele><time>2026-04-25T15:35:45.605Z</time></trkpt><trkpt lat="45.3206642" lon="7.915722"><ele>233.8</ele><time>2026-04-25T15:35:47.605Z</time></trkpt><trkpt lat="45.3206689" lon="7.9158606"><ele>234.2</ele><time>2026-04-25T15:35:49.605Z</time></trkpt><trkpt lat="45.320679" lon="7.9160042"><ele>234.6</ele><time>2026-04-25T15:35:51.606Z</time></trkpt><trkpt lat="45.3206923" lon="7.9161707"><ele>235.0</ele><time>2026-04-25T15:35:53.605Z</time></trkpt><trkpt lat="45.3207219" lon="7.9163273"><ele>235.4</ele><time>2026-04-25T15:35:55.606Z</time></trkpt><trkpt lat="45.3207413" lon="7.9164889"><ele>235.8</ele><time>2026-04-25T15:35:57.606Z</time></trkpt><trkpt lat="45.3207523" lon="7.91665"><ele>236.2</ele><time>2026-04-25T15:35:59.606Z</time></trkpt><trkpt lat="45.3207664" lon="7.9168075"><ele>236.6</ele><time>2026-04-25T15:36:01.606Z</time></trkpt><trkpt lat="45.3207814" lon="7.9169594"><ele>237.0</ele><time>2026-04-25T15:36:03.606Z</time></trkpt><trkpt lat="45.320802" lon="7.9171028"><ele>238.2</ele><time>2026-04-25T15:36:05.606Z</time></trkpt><trkpt lat="45.3208264" lon="7.9172388"><ele>239.39999999999998</ele><time>2026-04-25T15:36:07.606Z</time></trkpt><trkpt lat="45.3208679" lon="7.9173734"><ele>240.60000000000002</ele><time>2026-04-25T15:36:09.606Z</time></trkpt><trkpt lat="45.3209137" lon="7.9175099"><ele>241.8</ele><time>2026-04-25T15:36:11.606Z</time></trkpt><trkpt lat="45.3209748" lon="7.917632"><ele>243.0</ele><time>2026-04-25T15:36:13.606Z</time></trkpt><trkpt lat="45.3210366" lon="7.9177442"><ele>243.60000000000002</ele><time>2026-04-25T15:36:15.607Z</time></trkpt><trkpt lat="45.3210953" lon="7.9178531"><ele>244.20000000000002</ele><time>2026-04-25T15:36:17.606Z</time></trkpt><trkpt lat="45.3211587" lon="7.9179558"><ele>244.8</ele><time>2026-04-25T15:36:19.606Z</time></trkpt><trkpt lat="45.3212199" lon="7.918058"><ele>245.4</ele><time>2026-04-25T15:36:21.606Z</time></trkpt><trkpt lat="45.3212835" lon="7.9181671"><ele>246.0</ele><time>2026-04-25T15:36:23.606Z</time></trkpt><trkpt lat="45.3213471" lon="7.9182834"><ele>245.60000000000002</ele><time>2026-04-25T15:36:25.606Z</time></trkpt><trkpt lat="45.3214024" lon="7.9184135"><ele>245.20000000000002</ele><time>2026-04-25T15:36:27.606Z</time></trkpt><trkpt lat="45.3214663" lon="7.9185489"><ele>244.79999999999998</ele><time>2026-04-25T15:36:29.607Z</time></trkpt><trkpt lat="45.3215337" lon="7.9186754"><ele>244.39999999999998</ele><time>2026-04-25T15:36:31.606Z</time></trkpt><trkpt lat="45.3215946" lon="7.9187891"><ele>244.0</ele><time>2026-04-25T15:36:33.607Z</time></trkpt><trkpt lat="45.3216662" lon="7.9189108"><ele>243.99999999999997</ele><time>2026-04-25T15:36:35.606Z</time></trkpt><trkpt lat="45.3217263" lon="7.9190289"><ele>244.0</ele><time>2026-04-25T15:36:37.606Z</time></trkpt><trkpt lat="45.321789" lon="7.9191288"><ele>244.0</ele><time>2026-04-25T15:36:39.607Z</time></trkpt><trkpt lat="45.3218509" lon="7.9192264"><ele>244.0</ele><time>2026-04-25T15:36:41.606Z</time></trkpt><trkpt lat="45.321908" lon="7.9193204"><ele>243.99999999999997</ele><time>2026-04-25T15:36:43.608Z</time></trkpt><trkpt lat="45.3219573" lon="7.9193959"><ele>244.0</ele><time>2026-04-25T15:36:45.607Z</time></trkpt><trkpt lat="45.322022" lon="7.9194696"><ele>244.79999999999998</ele><time>2026-04-25T15:36:47.608Z</time></trkpt><trkpt lat="45.3221038" lon="7.9195322"><ele>245.59999999999997</ele><time>2026-04-25T15:36:49.607Z</time></trkpt><trkpt lat="45.3221846" lon="7.9195946"><ele>246.4</ele><time>2026-04-25T15:36:51.608Z</time></trkpt><trkpt lat="45.3222738" lon="7.9196491"><ele>247.2</ele><time>2026-04-25T15:36:53.607Z</time></trkpt><trkpt lat="45.3223641" lon="7.9197138"><ele>248.0</ele><time>2026-04-25T15:36:55.607Z</time></trkpt><trkpt lat="45.3224616" lon="7.9197756"><ele>248.0</ele><time>2026-04-25T15:36:57.608Z</time></trkpt><trkpt lat="45.3225551" lon="7.9198313"><ele>248.0</ele><time>2026-04-25T15:36:59.607Z</time></trkpt><trkpt lat="45.3226498" lon="7.9198871"><ele>248.0</ele><time>2026-04-25T15:37:01.607Z</time></trkpt><trkpt lat="45.3227415" lon="7.9199554"><ele>248.0</ele><time>2026-04-25T15:37:03.608Z</time></trkpt><trkpt lat="45.322831" lon="7.9200196"><ele>248.0</ele><time>2026-04-25T15:37:05.607Z</time></trkpt><trkpt lat="45.3229124" lon="7.9200883"><ele>249.0</ele><time>2026-04-25T15:37:07.607Z</time></trkpt><trkpt lat="45.3230021" lon="7.9201413"><ele>250.0</ele><time>2026-04-25T15:37:09.607Z</time></trkpt><trkpt lat="45.3230813" lon="7.9201957"><ele>251.0</ele><time>2026-04-25T15:37:11.608Z</time></trkpt><trkpt lat="45.3231769" lon="7.920249"><ele>252.0</ele><time>2026-04-25T15:37:13.608Z</time></trkpt><trkpt lat="45.3232714" lon="7.9203035"><ele>253.0</ele><time>2026-04-25T15:37:15.607Z</time></trkpt><trkpt lat="45.3233643" lon="7.9203745"><ele>253.0</ele><time>2026-04-25T15:37:17.607Z</time></trkpt><trkpt lat="45.3234497" lon="7.9204395"><ele>253.0</ele><time>2026-04-25T15:37:19.607Z</time></trkpt><trkpt lat="45.3235413" lon="7.9205024"><ele>253.0</ele><time>2026-04-25T15:37:21.607Z</time></trkpt><trkpt lat="45.3236283" lon="7.9205517"><ele>253.0</ele><time>2026-04-25T15:37:23.607Z</time></trkpt><trkpt lat="45.3237213" lon="7.9206026"><ele>253.0</ele><time>2026-04-25T15:37:25.607Z</time></trkpt><trkpt lat="45.3237979" lon="7.9206606"><ele>253.0</ele><time>2026-04-25T15:37:27.607Z</time></trkpt><trkpt lat="45.3238741" lon="7.9207167"><ele>253.0</ele><time>2026-04-25T15:37:29.608Z</time></trkpt><trkpt lat="45.3239668" lon="7.9207674"><ele>253.0</ele><time>2026-04-25T15:37:31.608Z</time></trkpt><trkpt lat="45.3240552" lon="7.9208374"><ele>253.0</ele><time>2026-04-25T15:37:33.608Z</time></trkpt><trkpt lat="45.3241474" lon="7.9208949"><ele>253.0</ele><time>2026-04-25T15:37:35.608Z</time></trkpt><trkpt lat="45.3242398" lon="7.9209497"><ele>253.8</ele><time>2026-04-25T15:37:37.608Z</time></trkpt><trkpt lat="45.3243313" lon="7.9210168"><ele>254.60000000000002</ele><time>2026-04-25T15:37:39.608Z</time></trkpt><trkpt lat="45.3244229" lon="7.9210798"><ele>255.39999999999998</ele><time>2026-04-25T15:37:41.608Z</time></trkpt><trkpt lat="45.3245118" lon="7.9211474"><ele>256.2</ele><time>2026-04-25T15:37:43.609Z</time></trkpt><trkpt lat="45.3245959" lon="7.9212111"><ele>257.0</ele><time>2026-04-25T15:37:45.608Z</time></trkpt><trkpt lat="45.3246806" lon="7.9212887"><ele>257.5</ele><time>2026-04-25T15:37:47.608Z</time></trkpt><trkpt lat="45.3247552" lon="7.9213629"><ele>258.0</ele><time>2026-04-25T15:37:49.608Z</time></trkpt><trkpt lat="45.3248305" lon="7.9214316"><ele>258.5</ele><time>2026-04-25T15:37:51.608Z</time></trkpt><trkpt lat="45.3248954" lon="7.9215024"><ele>259.0</ele><time>2026-04-25T15:37:53.608Z</time></trkpt><trkpt lat="45.3249678" lon="7.9215738"><ele>259.5</ele><time>2026-04-25T15:37:55.608Z</time></trkpt><trkpt lat="45.3250414" lon="7.9216467"><ele>260.0</ele><time>2026-04-25T15:37:57.608Z</time></trkpt><trkpt lat="45.325116" lon="7.921741"><ele>260.0</ele><time>2026-04-25T15:37:59.608Z</time></trkpt><trkpt lat="45.3251732" lon="7.9218405"><ele>260.0</ele><time>2026-04-25T15:38:01.608Z</time></trkpt><trkpt lat="45.3252418" lon="7.9219189"><ele>260.0</ele><time>2026-04-25T15:38:03.609Z</time></trkpt><trkpt lat="45.3253108" lon="7.9220011"><ele>260.0</ele><time>2026-04-25T15:38:05.608Z</time></trkpt><trkpt lat="45.3253734" lon="7.9220987"><ele>260.0</ele><time>2026-04-25T15:38:07.608Z</time></trkpt><trkpt lat="45.3254426" lon="7.9221841"><ele>260.0</ele><time>2026-04-25T15:38:09.608Z</time></trkpt><trkpt lat="45.3255149" lon="7.922276"><ele>260.0</ele><time>2026-04-25T15:38:11.608Z</time></trkpt><trkpt lat="45.325587" lon="7.9223756"><ele>260.0</ele><time>2026-04-25T15:38:13.608Z</time></trkpt><trkpt lat="45.3256523" lon="7.9224693"><ele>260.0</ele><time>2026-04-25T15:38:15.609Z</time></trkpt><trkpt lat="45.3257216" lon="7.9225698"><ele>260.0</ele><time>2026-04-25T15:38:17.609Z</time></trkpt><trkpt lat="45.3257959" lon="7.9226495"><ele>259.1666666666667</ele><time>2026-04-25T15:38:19.609Z</time></trkpt><trkpt lat="45.3258564" lon="7.9227269"><ele>258.33333333333337</ele><time>2026-04-25T15:38:21.609Z</time></trkpt><trkpt lat="45.3259113" lon="7.9228066"><ele>257.5</ele><time>2026-04-25T15:38:23.609Z</time></trkpt><trkpt lat="45.3259615" lon="7.9228775"><ele>256.6666666666667</ele><time>2026-04-25T15:38:25.609Z</time></trkpt><trkpt lat="45.3260141" lon="7.9229547"><ele>255.83333333333334</ele><time>2026-04-25T15:38:27.609Z</time></trkpt><trkpt lat="45.3260762" lon="7.923019"><ele>255.0</ele><time>2026-04-25T15:38:29.609Z</time></trkpt><trkpt lat="45.326137" lon="7.9230924"><ele>255.0</ele><time>2026-04-25T15:38:31.609Z</time></trkpt><trkpt lat="45.3261868" lon="7.9231764"><ele>255.0</ele><time>2026-04-25T15:38:33.609Z</time></trkpt><trkpt lat="45.3261971" lon="7.923084"><ele>255.0</ele><time>2026-04-25T15:39:04.61Z</time></trkpt><trkpt lat="45.3261729" lon="7.9229872"><ele>255.0</ele><time>2026-04-25T15:39:11.61Z</time></trkpt><trkpt lat="45.3262484" lon="7.9229949"><ele>255.0</ele><time>2026-04-25T15:40:27.611Z</time></trkpt><trkpt lat="45.3263353" lon="7.9229712"><ele>255.0</ele><time>2026-04-25T15:40:30.611Z</time></trkpt><trkpt lat="45.3264185" lon="7.9229683"><ele>250.6</ele><time>2026-04-25T15:40:32.611Z</time></trkpt><trkpt lat="45.3265078" lon="7.9229351"><ele>246.2</ele><time>2026-04-25T15:40:34.611Z</time></trkpt><trkpt lat="45.3266066" lon="7.922878"><ele>241.8</ele><time>2026-04-25T15:40:36.612Z</time></trkpt><trkpt lat="45.3267096" lon="7.9228129"><ele>237.4</ele><time>2026-04-25T15:40:38.613Z</time></trkpt><trkpt lat="45.3268135" lon="7.9227599"><ele>233.0</ele><time>2026-04-25T15:40:40.612Z</time></trkpt><trkpt lat="45.32692" lon="7.9227051"><ele>233.0</ele><time>2026-04-25T15:40:42.612Z</time></trkpt><trkpt lat="45.3270231" lon="7.9226641"><ele>233.0</ele><time>2026-04-25T15:40:44.612Z</time></trkpt><trkpt lat="45.3271347" lon="7.9226278"><ele>233.0</ele><time>2026-04-25T15:40:46.612Z</time></trkpt><trkpt lat="45.3272403" lon="7.922601"><ele>233.0</ele><time>2026-04-25T15:40:48.613Z</time></trkpt><trkpt lat="45.3273473" lon="7.9225687"><ele>233.0</ele><time>2026-04-25T15:40:50.612Z</time></trkpt><trkpt lat="45.3274463" lon="7.9225283"><ele>231.8</ele><time>2026-04-25T15:40:52.613Z</time></trkpt><trkpt lat="45.3275452" lon="7.9224954"><ele>230.60000000000002</ele><time>2026-04-25T15:40:54.612Z</time></trkpt><trkpt lat="45.3276369" lon="7.9224867"><ele>229.39999999999998</ele><time>2026-04-25T15:40:56.613Z</time></trkpt><trkpt lat="45.3277218" lon="7.9225018"><ele>228.2</ele><time>2026-04-25T15:40:58.612Z</time></trkpt><trkpt lat="45.327813" lon="7.9225083"><ele>227.0</ele><time>2026-04-25T15:41:00.612Z</time></trkpt><trkpt lat="45.3278988" lon="7.9225211"><ele>227.00000000000003</ele><time>2026-04-25T15:41:02.613Z</time></trkpt><trkpt lat="45.3279816" lon="7.9225263"><ele>227.0</ele><time>2026-04-25T15:41:04.612Z</time></trkpt><trkpt lat="45.3280526" lon="7.9225338"><ele>227.0</ele><time>2026-04-25T15:41:06.613Z</time></trkpt><trkpt lat="45.328126" lon="7.9225465"><ele>227.0</ele><time>2026-04-25T15:41:08.612Z</time></trkpt><trkpt lat="45.3282026" lon="7.9225753"><ele>227.00000000000003</ele><time>2026-04-25T15:41:10.612Z</time></trkpt><trkpt lat="45.3282787" lon="7.9226094"><ele>227.0</ele><time>2026-04-25T15:41:12.613Z</time></trkpt><trkpt lat="45.3283583" lon="7.9226429"><ele>227.00000000000003</ele><time>2026-04-25T15:41:14.612Z</time></trkpt><trkpt lat="45.3284444" lon="7.9226535"><ele>227.0</ele><time>2026-04-25T15:41:16.612Z</time></trkpt><trkpt lat="45.3285222" lon="7.9226786"><ele>227.0</ele><time>2026-04-25T15:41:18.612Z</time></trkpt><trkpt lat="45.3286034" lon="7.9227021"><ele>227.0</ele><time>2026-04-25T15:41:20.612Z</time></trkpt><trkpt lat="45.3286838" lon="7.9227274"><ele>227.00000000000003</ele><time>2026-04-25T15:41:22.613Z</time></trkpt><trkpt lat="45.3287665" lon="7.9227404"><ele>227.0</ele><time>2026-04-25T15:41:24.613Z</time></trkpt><trkpt lat="45.3288506" lon="7.9227455"><ele>227.16666666666669</ele><time>2026-04-25T15:41:26.613Z</time></trkpt><trkpt lat="45.3289372" lon="7.9227561"><ele>227.33333333333334</ele><time>2026-04-25T15:41:28.614Z</time></trkpt><trkpt lat="45.3290197" lon="7.9227807"><ele>227.5</ele><time>2026-04-25T15:41:30.613Z</time></trkpt><trkpt lat="45.3290977" lon="7.922805"><ele>227.66666666666669</ele><time>2026-04-25T15:41:32.613Z</time></trkpt><trkpt lat="45.3291786" lon="7.9228339"><ele>227.83333333333334</ele><time>2026-04-25T15:41:34.613Z</time></trkpt><trkpt lat="45.3292593" lon="7.9228497"><ele>228.0</ele><time>2026-04-25T15:41:36.613Z</time></trkpt><trkpt lat="45.329342" lon="7.9228721"><ele>228.0</ele><time>2026-04-25T15:41:38.613Z</time></trkpt><trkpt lat="45.3294232" lon="7.9228967"><ele>228.0</ele><time>2026-04-25T15:41:40.614Z</time></trkpt><trkpt lat="45.3295042" lon="7.92292"><ele>228.0</ele><time>2026-04-25T15:41:42.613Z</time></trkpt><trkpt lat="45.3295876" lon="7.9229459"><ele>228.0</ele><time>2026-04-25T15:41:44.614Z</time></trkpt><trkpt lat="45.329674" lon="7.9229661"><ele>228.0</ele><time>2026-04-25T15:41:46.613Z</time></trkpt><trkpt lat="45.3297582" lon="7.9229948"><ele>228.0</ele><time>2026-04-25T15:41:48.613Z</time></trkpt><trkpt lat="45.3298386" lon="7.9230307"><ele>228.0</ele><time>2026-04-25T15:41:50.613Z</time></trkpt><trkpt lat="45.3299176" lon="7.9230721"><ele>228.0</ele><time>2026-04-25T15:41:52.613Z</time></trkpt><trkpt lat="45.3299775" lon="7.9231525"><ele>228.0</ele><time>2026-04-25T15:41:54.614Z</time></trkpt><trkpt lat="45.3300189" lon="7.9232437"><ele>228.0</ele><time>2026-04-25T15:41:56.613Z</time></trkpt><trkpt lat="45.330042" lon="7.9233496"><ele>228.0</ele><time>2026-04-25T15:41:58.613Z</time></trkpt><trkpt lat="45.330063" lon="7.9234486"><ele>228.0</ele><time>2026-04-25T15:42:00.613Z</time></trkpt><trkpt lat="45.3300802" lon="7.9235696"><ele>228.0</ele><time>2026-04-25T15:42:02.613Z</time></trkpt><trkpt lat="45.3300978" lon="7.9236855"><ele>228.0</ele><time>2026-04-25T15:42:04.614Z</time></trkpt><trkpt lat="45.3301076" lon="7.9238147"><ele>228.0</ele><time>2026-04-25T15:42:06.613Z</time></trkpt><trkpt lat="45.3301372" lon="7.9239184"><ele>228.0</ele><time>2026-04-25T15:42:08.614Z</time></trkpt><trkpt lat="45.3301636" lon="7.9240124"><ele>228.0</ele><time>2026-04-25T15:42:10.614Z</time></trkpt><trkpt lat="45.3301882" lon="7.9241177"><ele>228.0</ele><time>2026-04-25T15:42:12.614Z</time></trkpt><trkpt lat="45.3302101" lon="7.9242183"><ele>228.14285714285714</ele><time>2026-04-25T15:42:14.614Z</time></trkpt><trkpt lat="45.3302332" lon="7.9243166"><ele>228.28571428571428</ele><time>2026-04-25T15:42:16.615Z</time></trkpt><trkpt lat="45.3302438" lon="7.9244173"><ele>228.42857142857142</ele><time>2026-04-25T15:42:18.614Z</time></trkpt><trkpt lat="45.330249" lon="7.9245284"><ele>228.57142857142856</ele><time>2026-04-25T15:42:20.614Z</time></trkpt><trkpt lat="45.3302482" lon="7.9246348"><ele>228.71428571428572</ele><time>2026-04-25T15:42:22.614Z</time></trkpt><trkpt lat="45.3302715" lon="7.9247385"><ele>228.85714285714283</ele><time>2026-04-25T15:42:24.615Z</time></trkpt><trkpt lat="45.3302715" lon="7.924833"><ele>229.0</ele><time>2026-04-25T15:42:26.615Z</time></trkpt><trkpt lat="45.3302795" lon="7.9249433"><ele>228.99999999999997</ele><time>2026-04-25T15:42:28.614Z</time></trkpt><trkpt lat="45.3303157" lon="7.9250397"><ele>229.0</ele><time>2026-04-25T15:42:30.615Z</time></trkpt><trkpt lat="45.3303822" lon="7.9250907"><ele>229.0</ele><time>2026-04-25T15:42:32.615Z</time></trkpt><trkpt lat="45.3304713" lon="7.9250798"><ele>229.0</ele><time>2026-04-25T15:42:34.615Z</time></trkpt><trkpt lat="45.3305435" lon="7.9250776"><ele>228.99999999999997</ele><time>2026-04-25T15:42:36.614Z</time></trkpt><trkpt lat="45.3306154" lon="7.9250747"><ele>229.0</ele><time>2026-04-25T15:42:38.614Z</time></trkpt><trkpt lat="45.3306878" lon="7.9250648"><ele>229.0</ele><time>2026-04-25T15:42:40.614Z</time></trkpt><trkpt lat="45.3307641" lon="7.9250444"><ele>229.0</ele><time>2026-04-25T15:42:42.615Z</time></trkpt><trkpt lat="45.3308339" lon="7.9250315"><ele>229.0</ele><time>2026-04-25T15:42:44.615Z</time></trkpt><trkpt lat="45.3309043" lon="7.9250181"><ele>229.0</ele><time>2026-04-25T15:42:46.614Z</time></trkpt><trkpt lat="45.3309773" lon="7.9250019"><ele>229.0</ele><time>2026-04-25T15:42:48.614Z</time></trkpt><trkpt lat="45.3310494" lon="7.9249908"><ele>229.0</ele><time>2026-04-25T15:42:50.614Z</time></trkpt><trkpt lat="45.3311227" lon="7.9249703"><ele>229.0</ele><time>2026-04-25T15:42:52.615Z</time></trkpt><trkpt lat="45.3311996" lon="7.9249525"><ele>228.99999999999997</ele><time>2026-04-25T15:42:54.613Z</time></trkpt><trkpt lat="45.331275" lon="7.924932"><ele>229.0</ele><time>2026-04-25T15:42:56.615Z</time></trkpt><trkpt lat="45.3313435" lon="7.9248952"><ele>229.0</ele><time>2026-04-25T15:42:58.615Z</time></trkpt><trkpt lat="45.3314077" lon="7.9248382"><ele>229.0</ele><time>2026-04-25T15:43:00.615Z</time></trkpt><trkpt lat="45.331472" lon="7.9247924"><ele>228.99999999999997</ele><time>2026-04-25T15:43:02.615Z</time></trkpt><trkpt lat="45.3315369" lon="7.924738"><ele>229.0</ele><time>2026-04-25T15:43:04.616Z</time></trkpt><trkpt lat="45.33161" lon="7.9246919"><ele>229.14285714285714</ele><time>2026-04-25T15:43:06.615Z</time></trkpt><trkpt lat="45.3316886" lon="7.9246587"><ele>229.28571428571428</ele><time>2026-04-25T15:43:08.615Z</time></trkpt><trkpt lat="45.3317614" lon="7.9246378"><ele>229.42857142857142</ele><time>2026-04-25T15:43:10.615Z</time></trkpt><trkpt lat="45.3318272" lon="7.9246229"><ele>229.57142857142856</ele><time>2026-04-25T15:43:12.615Z</time></trkpt><trkpt lat="45.3318944" lon="7.9246069"><ele>229.71428571428572</ele><time>2026-04-25T15:43:14.615Z</time></trkpt><trkpt lat="45.3319619" lon="7.9245808"><ele>229.85714285714283</ele><time>2026-04-25T15:43:16.615Z</time></trkpt><trkpt lat="45.3320336" lon="7.9245657"><ele>229.99999999999997</ele><time>2026-04-25T15:43:18.615Z</time></trkpt><trkpt lat="45.3321087" lon="7.9245498"><ele>229.99999999999997</ele><time>2026-04-25T15:43:20.615Z</time></trkpt><trkpt lat="45.3321798" lon="7.9245362"><ele>230.0</ele><time>2026-04-25T15:43:22.615Z</time></trkpt><trkpt lat="45.3322489" lon="7.9245288"><ele>229.99999999999997</ele><time>2026-04-25T15:43:24.615Z</time></trkpt><trkpt lat="45.3323138" lon="7.9245237"><ele>229.99999999999997</ele><time>2026-04-25T15:43:26.615Z</time></trkpt><trkpt lat="45.3323784" lon="7.9244972"><ele>230.0</ele><time>2026-04-25T15:43:28.616Z</time></trkpt><trkpt lat="45.3324425" lon="7.9244839"><ele>229.99999999999997</ele><time>2026-04-25T15:43:30.615Z</time></trkpt><trkpt lat="45.3325083" lon="7.924475"><ele>229.99999999999997</ele><time>2026-04-25T15:43:32.615Z</time></trkpt><trkpt lat="45.3325718" lon="7.9244658"><ele>229.83333333333334</ele><time>2026-04-25T15:43:34.615Z</time></trkpt><trkpt lat="45.3326629" lon="7.9244487"><ele>229.66666666666669</ele><time>2026-04-25T15:43:37.615Z</time></trkpt><trkpt lat="45.3327461" lon="7.9244217"><ele>229.5</ele><time>2026-04-25T15:43:40.615Z</time></trkpt><trkpt lat="45.3328325" lon="7.9243929"><ele>229.33333333333331</ele><time>2026-04-25T15:43:43.616Z</time></trkpt><trkpt lat="45.3329165" lon="7.9243644"><ele>229.16666666666666</ele><time>2026-04-25T15:43:46.616Z</time></trkpt><trkpt lat="45.3329801" lon="7.9243479"><ele>229.0</ele><time>2026-04-25T15:43:48.617Z</time></trkpt><trkpt lat="45.3330436" lon="7.9243094"><ele>229.0</ele><time>2026-04-25T15:43:50.616Z</time></trkpt><trkpt lat="45.3331119" lon="7.9242856"><ele>229.0</ele><time>2026-04-25T15:43:52.616Z</time></trkpt><trkpt lat="45.3331789" lon="7.9242595"><ele>229.0</ele><time>2026-04-25T15:43:54.616Z</time></trkpt><trkpt lat="45.3332451" lon="7.9242076"><ele>229.0</ele><time>2026-04-25T15:43:56.616Z</time></trkpt><trkpt lat="45.3333121" lon="7.9241816"><ele>229.0</ele><time>2026-04-25T15:43:58.616Z</time></trkpt><trkpt lat="45.3333766" lon="7.9241447"><ele>229.0</ele><time>2026-04-25T15:44:00.616Z</time></trkpt><trkpt lat="45.333449" lon="7.9241137"><ele>229.0</ele><time>2026-04-25T15:44:02.617Z</time></trkpt><trkpt lat="45.3335223" lon="7.9240887"><ele>228.85714285714283</ele><time>2026-04-25T15:44:04.616Z</time></trkpt><trkpt lat="45.3335945" lon="7.9240512"><ele>228.71428571428572</ele><time>2026-04-25T15:44:06.616Z</time></trkpt><trkpt lat="45.333664" lon="7.9240254"><ele>228.57142857142856</ele><time>2026-04-25T15:44:08.616Z</time></trkpt><trkpt lat="45.3337351" lon="7.9239958"><ele>228.42857142857142</ele><time>2026-04-25T15:44:10.616Z</time></trkpt><trkpt lat="45.3338101" lon="7.9239669"><ele>228.28571428571428</ele><time>2026-04-25T15:44:12.616Z</time></trkpt><trkpt lat="45.3338846" lon="7.9239374"><ele>228.14285714285714</ele><time>2026-04-25T15:44:14.616Z</time></trkpt><trkpt lat="45.3339536" lon="7.9239239"><ele>228.0</ele><time>2026-04-25T15:44:16.617Z</time></trkpt><trkpt lat="45.3340206" lon="7.9239118"><ele>228.0</ele><time>2026-04-25T15:44:18.617Z</time></trkpt><trkpt lat="45.3340869" lon="7.9238908"><ele>227.99999999999997</ele><time>2026-04-25T15:44:20.616Z</time></trkpt><trkpt lat="45.3341582" lon="7.9238642"><ele>228.0</ele><time>2026-04-25T15:44:22.616Z</time></trkpt><trkpt lat="45.3342323" lon="7.9238458"><ele>228.0</ele><time>2026-04-25T15:44:24.616Z</time></trkpt><trkpt lat="45.3343034" lon="7.9238276"><ele>227.99999999999997</ele><time>2026-04-25T15:44:26.616Z</time></trkpt><trkpt lat="45.3343728" lon="7.9238048"><ele>228.0</ele><time>2026-04-25T15:44:28.617Z</time></trkpt><trkpt lat="45.3344392" lon="7.9237771"><ele>228.0</ele><time>2026-04-25T15:44:30.617Z</time></trkpt><trkpt lat="45.3345109" lon="7.9237646"><ele>228.0</ele><time>2026-04-25T15:44:32.617Z</time></trkpt><trkpt lat="45.3345866" lon="7.923754"><ele>227.99999999999997</ele><time>2026-04-25T15:44:34.617Z</time></trkpt><trkpt lat="45.3346639" lon="7.9237305"><ele>228.0</ele><time>2026-04-25T15:44:36.617Z</time></trkpt><trkpt lat="45.3347398" lon="7.9237053"><ele>228.0</ele><time>2026-04-25T15:44:38.617Z</time></trkpt><trkpt lat="45.334809" lon="7.9236855"><ele>227.99999999999997</ele><time>2026-04-25T15:44:40.617Z</time></trkpt><trkpt lat="45.3348802" lon="7.9236694"><ele>228.0</ele><time>2026-04-25T15:44:42.617Z</time></trkpt><trkpt lat="45.3349522" lon="7.9236477"><ele>228.0</ele><time>2026-04-25T15:44:44.617Z</time></trkpt><trkpt lat="45.3350201" lon="7.9236308"><ele>228.0</ele><time>2026-04-25T15:44:46.617Z</time></trkpt><trkpt lat="45.335095" lon="7.9236089"><ele>227.99999999999997</ele><time>2026-04-25T15:44:48.617Z</time></trkpt><trkpt lat="45.3351689" lon="7.9235873"><ele>228.0</ele><time>2026-04-25T15:44:50.617Z</time></trkpt><trkpt lat="45.3352424" lon="7.9235648"><ele>228.0</ele><time>2026-04-25T15:44:52.617Z</time></trkpt><trkpt lat="45.3353141" lon="7.9235517"><ele>227.99999999999997</ele><time>2026-04-25T15:44:54.617Z</time></trkpt><trkpt lat="45.3353875" lon="7.9235323"><ele>228.0</ele><time>2026-04-25T15:44:56.617Z</time></trkpt><trkpt lat="45.3354562" lon="7.9235177"><ele>228.0</ele><time>2026-04-25T15:44:58.617Z</time></trkpt><trkpt lat="45.3355218" lon="7.9235088"><ele>228.16666666666666</ele><time>2026-04-25T15:45:00.617Z</time></trkpt><trkpt lat="45.3355872" lon="7.9234947"><ele>228.33333333333331</ele><time>2026-04-25T15:45:02.617Z</time></trkpt><trkpt lat="45.3356532" lon="7.9234691"><ele>228.5</ele><time>2026-04-25T15:45:04.617Z</time></trkpt><trkpt lat="45.3357258" lon="7.9234143"><ele>228.66666666666666</ele><time>2026-04-25T15:45:06.618Z</time></trkpt><trkpt lat="45.3358012" lon="7.9233844"><ele>228.83333333333331</ele><time>2026-04-25T15:45:08.618Z</time></trkpt><trkpt lat="45.3358822" lon="7.9233668"><ele>229.0</ele><time>2026-04-25T15:45:10.617Z</time></trkpt><trkpt lat="45.3359616" lon="7.9233665"><ele>229.0</ele><time>2026-04-25T15:45:12.617Z</time></trkpt><trkpt lat="45.3360313" lon="7.9233432"><ele>229.0</ele><time>2026-04-25T15:45:14.617Z</time></trkpt><trkpt lat="45.3361011" lon="7.9233249"><ele>229.0</ele><time>2026-04-25T15:45:16.618Z</time></trkpt><trkpt lat="45.3361791" lon="7.9232997"><ele>229.0</ele><time>2026-04-25T15:45:18.619Z</time></trkpt><trkpt lat="45.3362515" lon="7.9232702"><ele>229.0</ele><time>2026-04-25T15:45:20.618Z</time></trkpt><trkpt lat="45.3363237" lon="7.9232585"><ele>229.0</ele><time>2026-04-25T15:45:22.618Z</time></trkpt><trkpt lat="45.3363953" lon="7.9232474"><ele>229.0</ele><time>2026-04-25T15:45:24.619Z</time></trkpt><trkpt lat="45.3364718" lon="7.9232363"><ele>228.85714285714283</ele><time>2026-04-25T15:45:26.619Z</time></trkpt><trkpt lat="45.3365506" lon="7.9232125"><ele>228.71428571428572</ele><time>2026-04-25T15:45:28.618Z</time></trkpt><trkpt lat="45.3366212" lon="7.923206"><ele>228.57142857142856</ele><time>2026-04-25T15:45:30.618Z</time></trkpt><trkpt lat="45.3366885" lon="7.9232011"><ele>228.42857142857142</ele><time>2026-04-25T15:45:32.618Z</time></trkpt><trkpt lat="45.3367581" lon="7.9232022"><ele>228.28571428571428</ele><time>2026-04-25T15:45:34.618Z</time></trkpt><trkpt lat="45.3368301" lon="7.9231855"><ele>228.14285714285714</ele><time>2026-04-25T15:45:36.618Z</time></trkpt><trkpt lat="45.3369035" lon="7.9231767"><ele>228.0</ele><time>2026-04-25T15:45:38.618Z</time></trkpt><trkpt lat="45.3369741" lon="7.9231795"><ele>228.0</ele><time>2026-04-25T15:45:40.618Z</time></trkpt><trkpt lat="45.3370442" lon="7.9231474"><ele>228.0</ele><time>2026-04-25T15:45:42.618Z</time></trkpt><trkpt lat="45.3371239" lon="7.9231259"><ele>228.0</ele><time>2026-04-25T15:45:44.618Z</time></trkpt><trkpt lat="45.3372" lon="7.9231265"><ele>228.0</ele><time>2026-04-25T15:45:46.618Z</time></trkpt><trkpt lat="45.3372776" lon="7.9231298"><ele>228.0</ele><time>2026-04-25T15:45:48.618Z</time></trkpt><trkpt lat="45.3373483" lon="7.9231438"><ele>228.0</ele><time>2026-04-25T15:45:50.618Z</time></trkpt><trkpt lat="45.3374212" lon="7.9231754"><ele>228.0</ele><time>2026-04-25T15:45:52.618Z</time></trkpt><trkpt lat="45.3374892" lon="7.9232128"><ele>228.0</ele><time>2026-04-25T15:45:54.618Z</time></trkpt><trkpt lat="45.3375578" lon="7.9232443"><ele>228.0</ele><time>2026-04-25T15:45:56.618Z</time></trkpt><trkpt lat="45.3376276" lon="7.9232694"><ele>228.0</ele><time>2026-04-25T15:45:58.618Z</time></trkpt><trkpt lat="45.3376983" lon="7.923302"><ele>228.0</ele><time>2026-04-25T15:46:00.618Z</time></trkpt><trkpt lat="45.3377763" lon="7.9233255"><ele>228.0</ele><time>2026-04-25T15:46:02.619Z</time></trkpt><trkpt lat="45.3378533" lon="7.9233664"><ele>228.0</ele><time>2026-04-25T15:46:04.619Z</time></trkpt><trkpt lat="45.3379271" lon="7.9234002"><ele>228.0</ele><time>2026-04-25T15:46:06.62Z</time></trkpt><trkpt lat="45.3380022" lon="7.9234339"><ele>228.0</ele><time>2026-04-25T15:46:08.619Z</time></trkpt><trkpt lat="45.3380727" lon="7.9234655"><ele>228.0</ele><time>2026-04-25T15:46:10.62Z</time></trkpt><trkpt lat="45.3381416" lon="7.9234945"><ele>228.0</ele><time>2026-04-25T15:46:12.619Z</time></trkpt><trkpt lat="45.3382158" lon="7.9235196"><ele>228.0</ele><time>2026-04-25T15:46:14.619Z</time></trkpt><trkpt lat="45.3382935" lon="7.9235427"><ele>228.14285714285714</ele><time>2026-04-25T15:46:16.619Z</time></trkpt><trkpt lat="45.3383657" lon="7.9235779"><ele>228.28571428571428</ele><time>2026-04-25T15:46:18.619Z</time></trkpt><trkpt lat="45.3384326" lon="7.923607"><ele>228.42857142857142</ele><time>2026-04-25T15:46:20.62Z</time></trkpt><trkpt lat="45.3384947" lon="7.9236384"><ele>228.57142857142856</ele><time>2026-04-25T15:46:22.619Z</time></trkpt><trkpt lat="45.3385636" lon="7.9236767"><ele>228.71428571428572</ele><time>2026-04-25T15:46:24.619Z</time></trkpt><trkpt lat="45.3386334" lon="7.9237176"><ele>228.85714285714283</ele><time>2026-04-25T15:46:26.619Z</time></trkpt><trkpt lat="45.338698" lon="7.9237471"><ele>229.0</ele><time>2026-04-25T15:46:28.619Z</time></trkpt><trkpt lat="45.3387642" lon="7.9237655"><ele>229.0</ele><time>2026-04-25T15:46:30.619Z</time></trkpt><trkpt lat="45.338828" lon="7.9237743"><ele>229.0</ele><time>2026-04-25T15:46:32.62Z</time></trkpt><trkpt lat="45.3388923" lon="7.923785"><ele>229.0</ele><time>2026-04-25T15:46:34.619Z</time></trkpt><trkpt lat="45.338955" lon="7.9238007"><ele>229.0</ele><time>2026-04-25T15:46:36.619Z</time></trkpt><trkpt lat="45.339023" lon="7.9238117"><ele>229.0</ele><time>2026-04-25T15:46:38.619Z</time></trkpt><trkpt lat="45.3390968" lon="7.9238219"><ele>229.0</ele><time>2026-04-25T15:46:40.619Z</time></trkpt><trkpt lat="45.3391622" lon="7.9238321"><ele>229.0</ele><time>2026-04-25T15:46:42.619Z</time></trkpt><trkpt lat="45.339258" lon="7.9238454"><ele>229.16666666666666</ele><time>2026-04-25T15:46:45.619Z</time></trkpt><trkpt lat="45.3393441" lon="7.923853"><ele>229.33333333333331</ele><time>2026-04-25T15:46:48.62Z</time></trkpt><trkpt lat="45.3394271" lon="7.9238753"><ele>229.5</ele><time>2026-04-25T15:46:51.62Z</time></trkpt><trkpt lat="45.3395083" lon="7.9238877"><ele>229.66666666666669</ele><time>2026-04-25T15:46:54.62Z</time></trkpt><trkpt lat="45.3396057" lon="7.923901"><ele>229.83333333333334</ele><time>2026-04-25T15:46:58.619Z</time></trkpt><trkpt lat="45.3396751" lon="7.9238987"><ele>230.0</ele><time>2026-04-25T15:47:49.62Z</time></trkpt><trkpt lat="45.3397533" lon="7.923912"><ele>229.99999999999997</ele><time>2026-04-25T15:47:54.62Z</time></trkpt><trkpt lat="45.3398297" lon="7.9239155"><ele>230.0</ele><time>2026-04-25T15:47:57.62Z</time></trkpt><trkpt lat="45.3399003" lon="7.9239336"><ele>229.99999999999997</ele><time>2026-04-25T15:48:00.62Z</time></trkpt><trkpt lat="45.3399757" lon="7.9239192"><ele>229.99999999999997</ele><time>2026-04-25T15:48:03.622Z</time></trkpt><trkpt lat="45.3400505" lon="7.9238778"><ele>230.0</ele><time>2026-04-25T15:48:06.621Z</time></trkpt><trkpt lat="45.3401119" lon="7.9238448"><ele>229.99999999999997</ele><time>2026-04-25T15:48:09.622Z</time></trkpt><trkpt lat="45.3401737" lon="7.9238087"><ele>229.99999999999997</ele><time>2026-04-25T15:48:12.621Z</time></trkpt><trkpt lat="45.3402393" lon="7.9237636"><ele>230.00000000000003</ele><time>2026-04-25T15:48:16.621Z</time></trkpt><trkpt lat="45.3403155" lon="7.923764"><ele>230.0</ele><time>2026-04-25T15:48:20.621Z</time></trkpt><trkpt lat="45.3403976" lon="7.923732"><ele>230.0</ele><time>2026-04-25T15:48:24.621Z</time></trkpt><trkpt lat="45.3404834" lon="7.9236947"><ele>230.0</ele><time>2026-04-25T15:48:27.621Z</time></trkpt><trkpt lat="45.3405557" lon="7.9236877"><ele>230.00000000000003</ele><time>2026-04-25T15:48:29.621Z</time></trkpt><trkpt lat="45.3406281" lon="7.9236633"><ele>230.0</ele><time>2026-04-25T15:48:31.621Z</time></trkpt><trkpt lat="45.3407027" lon="7.9236463"><ele>230.16666666666669</ele><time>2026-04-25T15:48:33.621Z</time></trkpt><trkpt lat="45.3407724" lon="7.9236313"><ele>230.33333333333334</ele><time>2026-04-25T15:48:35.622Z</time></trkpt><trkpt lat="45.3408454" lon="7.9236197"><ele>230.5</ele><time>2026-04-25T15:48:37.621Z</time></trkpt><trkpt lat="45.3409093" lon="7.9236074"><ele>230.66666666666669</ele><time>2026-04-25T15:48:39.621Z</time></trkpt><trkpt lat="45.3409905" lon="7.923581"><ele>230.83333333333334</ele><time>2026-04-25T15:48:42.621Z</time></trkpt><trkpt lat="45.341068" lon="7.9235572"><ele>231.0</ele><time>2026-04-25T15:48:45.622Z</time></trkpt><trkpt lat="45.3411597" lon="7.923545"><ele>231.0</ele><time>2026-04-25T15:48:48.621Z</time></trkpt><trkpt lat="45.3412293" lon="7.9235284"><ele>231.0</ele><time>2026-04-25T15:48:50.622Z</time></trkpt><trkpt lat="45.3412988" lon="7.9235109"><ele>231.0</ele><time>2026-04-25T15:48:52.622Z</time></trkpt><trkpt lat="45.3413777" lon="7.9234837"><ele>231.0</ele><time>2026-04-25T15:48:54.622Z</time></trkpt><trkpt lat="45.3414469" lon="7.9234554"><ele>231.0</ele><time>2026-04-25T15:48:56.622Z</time></trkpt><trkpt lat="45.3415125" lon="7.9234401"><ele>231.0</ele><time>2026-04-25T15:48:58.622Z</time></trkpt><trkpt lat="45.3415838" lon="7.9234388"><ele>231.0</ele><time>2026-04-25T15:49:00.623Z</time></trkpt><trkpt lat="45.3416538" lon="7.9234319"><ele>230.83333333333334</ele><time>2026-04-25T15:49:02.622Z</time></trkpt><trkpt lat="45.3418084" lon="7.9234211"><ele>230.66666666666669</ele><time>2026-04-25T15:49:07.622Z</time></trkpt><trkpt lat="45.3418776" lon="7.9233935"><ele>230.5</ele><time>2026-04-25T15:49:10.622Z</time></trkpt><trkpt lat="45.3419411" lon="7.9233866"><ele>230.33333333333334</ele><time>2026-04-25T15:49:13.622Z</time></trkpt><trkpt lat="45.3420149" lon="7.9233692"><ele>230.16666666666669</ele><time>2026-04-25T15:49:17.623Z</time></trkpt><trkpt lat="45.342085" lon="7.9233803"><ele>230.0</ele><time>2026-04-25T15:49:20.623Z</time></trkpt><trkpt lat="45.3421737" lon="7.9233648"><ele>230.1428571428571</ele><time>2026-04-25T15:49:23.622Z</time></trkpt><trkpt lat="45.3422391" lon="7.923353"><ele>230.28571428571428</ele><time>2026-04-25T15:49:25.622Z</time></trkpt><trkpt lat="45.3423145" lon="7.9233408"><ele>230.42857142857142</ele><time>2026-04-25T15:49:27.622Z</time></trkpt><trkpt lat="45.3423833" lon="7.9233244"><ele>230.57142857142856</ele><time>2026-04-25T15:49:29.622Z</time></trkpt><trkpt lat="45.3424466" lon="7.9233227"><ele>230.71428571428572</ele><time>2026-04-25T15:49:31.622Z</time></trkpt><trkpt lat="45.3425282" lon="7.9233064"><ele>230.85714285714286</ele><time>2026-04-25T15:49:34.622Z</time></trkpt><trkpt lat="45.3426072" lon="7.9232915"><ele>231.0</ele><time>2026-04-25T15:49:37.622Z</time></trkpt><trkpt lat="45.3426721" lon="7.9232889"><ele>231.0</ele><time>2026-04-25T15:49:40.623Z</time></trkpt><trkpt lat="45.3427539" lon="7.9232867"><ele>231.0</ele><time>2026-04-25T15:49:44.623Z</time></trkpt><trkpt lat="45.3428254" lon="7.923274"><ele>231.0</ele><time>2026-04-25T15:49:48.623Z</time></trkpt><trkpt lat="45.3428922" lon="7.9232722"><ele>231.0</ele><time>2026-04-25T15:49:52.623Z</time></trkpt><trkpt lat="45.3429656" lon="7.9232651"><ele>231.0</ele><time>2026-04-25T15:49:55.623Z</time></trkpt><trkpt lat="45.343036" lon="7.9232583"><ele>231.0</ele><time>2026-04-25T15:49:58.623Z</time></trkpt><trkpt lat="45.3431031" lon="7.9232548"><ele>231.0</ele><time>2026-04-25T15:50:01.623Z</time></trkpt><trkpt lat="45.3432074" lon="7.9232477"><ele>231.0</ele><time>2026-04-25T15:50:05.623Z</time></trkpt><trkpt lat="45.3432819" lon="7.9232462"><ele>231.0</ele><time>2026-04-25T15:50:08.624Z</time></trkpt><trkpt lat="45.3433551" lon="7.9232495"><ele>231.0</ele><time>2026-04-25T15:50:11.623Z</time></trkpt><trkpt lat="45.3434287" lon="7.9232528"><ele>231.0</ele><time>2026-04-25T15:50:14.623Z</time></trkpt><trkpt lat="45.3435012" lon="7.923265"><ele>231.0</ele><time>2026-04-25T15:50:17.623Z</time></trkpt><trkpt lat="45.3435831" lon="7.9232747"><ele>231.0</ele><time>2026-04-25T15:50:20.623Z</time></trkpt><trkpt lat="45.3436745" lon="7.9233002"><ele>231.0</ele><time>2026-04-25T15:50:23.623Z</time></trkpt><trkpt lat="45.3437693" lon="7.9233323"><ele>231.0</ele><time>2026-04-25T15:50:26.623Z</time></trkpt><trkpt lat="45.3438395" lon="7.923352"><ele>231.0</ele><time>2026-04-25T15:50:28.624Z</time></trkpt><trkpt lat="45.3439057" lon="7.9233658"><ele>231.0</ele><time>2026-04-25T15:50:30.624Z</time></trkpt><trkpt lat="45.3439989" lon="7.9233756"><ele>231.0</ele><time>2026-04-25T15:50:33.624Z</time></trkpt><trkpt lat="45.3440877" lon="7.9233737"><ele>231.0</ele><time>2026-04-25T15:50:36.625Z</time></trkpt><trkpt lat="45.3442157" lon="7.9233672"><ele>230.85714285714286</ele><time>2026-04-25T15:50:40.624Z</time></trkpt><trkpt lat="45.3442767" lon="7.9233422"><ele>230.71428571428572</ele><time>2026-04-25T15:50:42.624Z</time></trkpt><trkpt lat="45.344355" lon="7.9233344"><ele>230.57142857142856</ele><time>2026-04-25T15:50:44.624Z</time></trkpt><trkpt lat="45.344425" lon="7.92333"><ele>230.42857142857142</ele><time>2026-04-25T15:50:46.624Z</time></trkpt><trkpt lat="45.3444942" lon="7.9233265"><ele>230.28571428571428</ele><time>2026-04-25T15:50:48.624Z</time></trkpt><trkpt lat="45.3445677" lon="7.9233219"><ele>230.1428571428571</ele><time>2026-04-25T15:50:50.624Z</time></trkpt><trkpt lat="45.3446459" lon="7.9233031"><ele>229.99999999999997</ele><time>2026-04-25T15:50:52.624Z</time></trkpt><trkpt lat="45.3447236" lon="7.9232995"><ele>229.83333333333334</ele><time>2026-04-25T15:50:54.624Z</time></trkpt><trkpt lat="45.3448445" lon="7.9232951"><ele>229.66666666666669</ele><time>2026-04-25T15:50:57.624Z</time></trkpt><trkpt lat="45.3449163" lon="7.9232867"><ele>229.5</ele><time>2026-04-25T15:50:59.624Z</time></trkpt><trkpt lat="45.3449827" lon="7.9232868"><ele>229.33333333333331</ele><time>2026-04-25T15:51:01.624Z</time></trkpt><trkpt lat="45.3450501" lon="7.9232819"><ele>229.16666666666666</ele><time>2026-04-25T15:51:03.625Z</time></trkpt><trkpt lat="45.3451157" lon="7.9232838"><ele>229.0</ele><time>2026-04-25T15:51:05.624Z</time></trkpt><trkpt lat="45.345205" lon="7.9232821"><ele>228.99999999999997</ele><time>2026-04-25T15:51:08.624Z</time></trkpt><trkpt lat="45.3452922" lon="7.9232572"><ele>229.0</ele><time>2026-04-25T15:51:11.624Z</time></trkpt><trkpt lat="45.3453699" lon="7.923253"><ele>229.0</ele><time>2026-04-25T15:51:14.624Z</time></trkpt><trkpt lat="45.3454337" lon="7.9232686"><ele>229.0</ele><time>2026-04-25T15:51:17.625Z</time></trkpt><trkpt lat="45.3455137" lon="7.9232486"><ele>228.99999999999997</ele><time>2026-04-25T15:51:20.625Z</time></trkpt><trkpt lat="45.3455849" lon="7.9231925"><ele>229.0</ele><time>2026-04-25T15:51:23.625Z</time></trkpt><trkpt lat="45.345605" lon="7.923064"><ele>229.0</ele><time>2026-04-25T15:51:26.625Z</time></trkpt><trkpt lat="45.3456137" lon="7.9229286"><ele>229.0</ele><time>2026-04-25T15:51:29.625Z</time></trkpt><trkpt lat="45.3456041" lon="7.9228237"><ele>229.0</ele><time>2026-04-25T15:51:31.625Z</time></trkpt><trkpt lat="45.3456081" lon="7.9227252"><ele>229.0</ele><time>2026-04-25T15:51:33.625Z</time></trkpt><trkpt lat="45.3456084" lon="7.9226292"><ele>229.0</ele><time>2026-04-25T15:51:35.625Z</time></trkpt><trkpt lat="45.3456094" lon="7.9225269"><ele>229.0</ele><time>2026-04-25T15:51:37.625Z</time></trkpt><trkpt lat="45.3456092" lon="7.9224318"><ele>229.0</ele><time>2026-04-25T15:51:39.625Z</time></trkpt><trkpt lat="45.34561" lon="7.9223326"><ele>229.0</ele><time>2026-04-25T15:51:41.625Z</time></trkpt><trkpt lat="45.3456054" lon="7.9222274"><ele>229.0</ele><time>2026-04-25T15:51:43.625Z</time></trkpt><trkpt lat="45.3456059" lon="7.9221272"><ele>229.0</ele><time>2026-04-25T15:51:45.626Z</time></trkpt><trkpt lat="45.3456051" lon="7.9220236"><ele>229.0</ele><time>2026-04-25T15:51:47.625Z</time></trkpt><trkpt lat="45.3456059" lon="7.9219232"><ele>229.0</ele><time>2026-04-25T15:51:49.625Z</time></trkpt><trkpt lat="45.3456106" lon="7.9218326"><ele>229.0</ele><time>2026-04-25T15:51:51.625Z</time></trkpt><trkpt lat="45.3456137" lon="7.9217276"><ele>229.0</ele><time>2026-04-25T15:51:53.625Z</time></trkpt><trkpt lat="45.3456158" lon="7.9216215"><ele>228.99999999999997</ele><time>2026-04-25T15:51:55.625Z</time></trkpt><trkpt lat="45.3456201" lon="7.921517"><ele>229.0</ele><time>2026-04-25T15:51:57.626Z</time></trkpt><trkpt lat="45.3456224" lon="7.9214244"><ele>229.0</ele><time>2026-04-25T15:51:59.625Z</time></trkpt><trkpt lat="45.3456239" lon="7.9212885"><ele>229.0</ele><time>2026-04-25T15:52:02.625Z</time></trkpt><trkpt lat="45.3456229" lon="7.921189"><ele>228.99999999999997</ele><time>2026-04-25T15:52:04.625Z</time></trkpt><trkpt lat="45.3456193" lon="7.9210853"><ele>229.0</ele><time>2026-04-25T15:52:06.626Z</time></trkpt><trkpt lat="45.3456203" lon="7.9209558"><ele>228.85714285714283</ele><time>2026-04-25T15:52:09.626Z</time></trkpt><trkpt lat="45.3456204" lon="7.920861"><ele>228.71428571428572</ele><time>2026-04-25T15:52:11.626Z</time></trkpt><trkpt lat="45.3456148" lon="7.9207626"><ele>228.57142857142856</ele><time>2026-04-25T15:52:13.627Z</time></trkpt><trkpt lat="45.3456136" lon="7.9206254"><ele>228.42857142857142</ele><time>2026-04-25T15:52:16.626Z</time></trkpt><trkpt lat="45.3456131" lon="7.9205263"><ele>228.28571428571428</ele><time>2026-04-25T15:52:18.626Z</time></trkpt><trkpt lat="45.3456074" lon="7.9204248"><ele>228.14285714285714</ele><time>2026-04-25T15:52:20.627Z</time></trkpt><trkpt lat="45.3456044" lon="7.9203321"><ele>228.0</ele><time>2026-04-25T15:52:22.626Z</time></trkpt><trkpt lat="45.345603" lon="7.9202408"><ele>228.0</ele><time>2026-04-25T15:52:24.626Z</time></trkpt><trkpt lat="45.3456004" lon="7.9201184"><ele>228.0</ele><time>2026-04-25T15:52:27.626Z</time></trkpt><trkpt lat="45.3455978" lon="7.9199871"><ele>228.0</ele><time>2026-04-25T15:52:30.626Z</time></trkpt><trkpt lat="45.3455878" lon="7.9198804"><ele>228.0</ele><time>2026-04-25T15:52:33.626Z</time></trkpt><trkpt lat="45.3455787" lon="7.9197866"><ele>228.0</ele><time>2026-04-25T15:52:36.626Z</time></trkpt><trkpt lat="45.3455735" lon="7.9196894"><ele>228.0</ele><time>2026-04-25T15:52:39.626Z</time></trkpt><trkpt lat="45.3455795" lon="7.919598"><ele>228.0</ele><time>2026-04-25T15:52:45.627Z</time></trkpt><trkpt lat="45.3455657" lon="7.9194819"><ele>228.0</ele><time>2026-04-25T15:52:50.627Z</time></trkpt><trkpt lat="45.3455698" lon="7.9193885"><ele>228.0</ele><time>2026-04-25T15:52:53.627Z</time></trkpt><trkpt lat="45.3455762" lon="7.9192869"><ele>228.0</ele><time>2026-04-25T15:52:56.627Z</time></trkpt><trkpt lat="45.3455709" lon="7.9191864"><ele>228.0</ele><time>2026-04-25T15:52:58.628Z</time></trkpt><trkpt lat="45.3455614" lon="7.9190714"><ele>228.0</ele><time>2026-04-25T15:53:00.627Z</time></trkpt><trkpt lat="45.3455613" lon="7.9189602"><ele>228.0</ele><time>2026-04-25T15:53:02.628Z</time></trkpt><trkpt lat="45.345556" lon="7.9188553"><ele>227.99999999999997</ele><time>2026-04-25T15:53:04.627Z</time></trkpt><trkpt lat="45.3455552" lon="7.9187535"><ele>228.0</ele><time>2026-04-25T15:53:06.627Z</time></trkpt><trkpt lat="45.3455536" lon="7.9186596"><ele>228.0</ele><time>2026-04-25T15:53:08.627Z</time></trkpt><trkpt lat="45.3455581" lon="7.9185688"><ele>227.99999999999997</ele><time>2026-04-25T15:53:10.627Z</time></trkpt><trkpt lat="45.3455613" lon="7.9184773"><ele>228.0</ele><time>2026-04-25T15:53:12.627Z</time></trkpt><trkpt lat="45.34556" lon="7.9183828"><ele>228.0</ele><time>2026-04-25T15:53:14.627Z</time></trkpt><trkpt lat="45.3455681" lon="7.9182776"><ele>228.0</ele><time>2026-04-25T15:53:17.628Z</time></trkpt><trkpt lat="45.3455557" lon="7.918182"><ele>227.99999999999997</ele><time>2026-04-25T15:53:20.627Z</time></trkpt><trkpt lat="45.3455512" lon="7.9180598"><ele>228.0</ele><time>2026-04-25T15:53:23.627Z</time></trkpt><trkpt lat="45.3455531" lon="7.91794"><ele>228.0</ele><time>2026-04-25T15:53:26.627Z</time></trkpt><trkpt lat="45.3455551" lon="7.9178398"><ele>227.99999999999997</ele><time>2026-04-25T15:53:29.627Z</time></trkpt><trkpt lat="45.3455539" lon="7.9177309"><ele>228.0</ele><time>2026-04-25T15:53:33.627Z</time></trkpt><trkpt lat="45.3455584" lon="7.9176411"><ele>228.0</ele><time>2026-04-25T16:06:44.645Z</time></trkpt><trkpt lat="45.3455713" lon="7.9175439"><ele>228.16666666666666</ele><time>2026-04-25T16:06:48.645Z</time></trkpt><trkpt lat="45.3455756" lon="7.9174427"><ele>228.33333333333331</ele><time>2026-04-25T16:06:51.645Z</time></trkpt><trkpt lat="45.3455676" lon="7.9173363"><ele>228.5</ele><time>2026-04-25T16:06:53.645Z</time></trkpt><trkpt lat="45.3455737" lon="7.9172198"><ele>228.66666666666666</ele><time>2026-04-25T16:06:56.645Z</time></trkpt><trkpt lat="45.3455751" lon="7.9171118"><ele>228.83333333333331</ele><time>2026-04-25T16:06:59.646Z</time></trkpt><trkpt lat="45.3455696" lon="7.9169878"><ele>229.0</ele><time>2026-04-25T16:07:02.645Z</time></trkpt><trkpt lat="45.3455661" lon="7.9168531"><ele>228.99999999999997</ele><time>2026-04-25T16:07:05.646Z</time></trkpt><trkpt lat="45.3455629" lon="7.9167431"><ele>229.0</ele><time>2026-04-25T16:07:08.645Z</time></trkpt><trkpt lat="45.345567" lon="7.9166254"><ele>229.0</ele><time>2026-04-25T16:07:11.645Z</time></trkpt><trkpt lat="45.3455665" lon="7.9165133"><ele>229.0</ele><time>2026-04-25T16:07:14.645Z</time></trkpt><trkpt lat="45.3455662" lon="7.9163926"><ele>228.99999999999997</ele><time>2026-04-25T16:07:17.645Z</time></trkpt><trkpt lat="45.3455639" lon="7.9163007"><ele>229.0</ele><time>2026-04-25T16:07:19.645Z</time></trkpt><trkpt lat="45.3455672" lon="7.9162075"><ele>228.83333333333331</ele><time>2026-04-25T16:07:21.645Z</time></trkpt><trkpt lat="45.3455703" lon="7.9160914"><ele>228.66666666666666</ele><time>2026-04-25T16:07:24.645Z</time></trkpt><trkpt lat="45.345574" lon="7.9159771"><ele>228.5</ele><time>2026-04-25T16:07:27.645Z</time></trkpt><trkpt lat="45.3455735" lon="7.9158531"><ele>228.33333333333331</ele><time>2026-04-25T16:07:30.646Z</time></trkpt><trkpt lat="45.3455546" lon="7.9157352"><ele>228.16666666666666</ele><time>2026-04-25T16:07:33.647Z</time></trkpt><trkpt lat="45.3455175" lon="7.9156394"><ele>228.0</ele><time>2026-04-25T16:07:36.647Z</time></trkpt><trkpt lat="45.3454725" lon="7.9155689"><ele>228.0</ele><time>2026-04-25T16:07:39.646Z</time></trkpt><trkpt lat="45.3453982" lon="7.9155269"><ele>228.0</ele><time>2026-04-25T16:07:42.646Z</time></trkpt><trkpt lat="45.3453138" lon="7.9155009"><ele>228.0</ele><time>2026-04-25T16:07:45.646Z</time></trkpt><trkpt lat="45.345228" lon="7.9154696"><ele>228.0</ele><time>2026-04-25T16:07:48.646Z</time></trkpt><trkpt lat="45.3451695" lon="7.9154114"><ele>228.0</ele><time>2026-04-25T16:07:51.647Z</time></trkpt><trkpt lat="45.3451663" lon="7.9152903"><ele>228.0</ele><time>2026-04-25T16:07:54.646Z</time></trkpt><trkpt lat="45.3451668" lon="7.9151949"><ele>228.0</ele><time>2026-04-25T16:07:57.646Z</time></trkpt><trkpt lat="45.3451711" lon="7.9151006"><ele>228.0</ele><time>2026-04-25T16:08:00.646Z</time></trkpt><trkpt lat="45.3451869" lon="7.9150039"><ele>228.0</ele><time>2026-04-25T16:08:03.647Z</time></trkpt><trkpt lat="45.3451722" lon="7.9149109"><ele>228.0</ele><time>2026-04-25T16:08:06.646Z</time></trkpt><trkpt lat="45.3451661" lon="7.9148139"><ele>228.0</ele><time>2026-04-25T16:08:09.646Z</time></trkpt><trkpt lat="45.3451621" lon="7.9146932"><ele>228.0</ele><time>2026-04-25T16:08:12.646Z</time></trkpt><trkpt lat="45.3451589" lon="7.9145575"><ele>228.16666666666666</ele><time>2026-04-25T16:08:15.647Z</time></trkpt><trkpt lat="45.3451577" lon="7.9144651"><ele>228.33333333333331</ele><time>2026-04-25T16:08:17.648Z</time></trkpt><trkpt lat="45.345142" lon="7.9143606"><ele>228.5</ele><time>2026-04-25T16:08:19.647Z</time></trkpt><trkpt lat="45.3451426" lon="7.9142702"><ele>228.66666666666666</ele><time>2026-04-25T16:08:21.648Z</time></trkpt><trkpt lat="45.3451485" lon="7.9141563"><ele>228.83333333333331</ele><time>2026-04-25T16:08:23.648Z</time></trkpt><trkpt lat="45.3451441" lon="7.9140207"><ele>229.0</ele><time>2026-04-25T16:08:25.647Z</time></trkpt><trkpt lat="45.3451369" lon="7.9139036"><ele>229.0</ele><time>2026-04-25T16:08:27.647Z</time></trkpt><trkpt lat="45.345133" lon="7.9137802"><ele>229.0</ele><time>2026-04-25T16:08:30.647Z</time></trkpt><trkpt lat="45.345128" lon="7.9136681"><ele>229.0</ele><time>2026-04-25T16:08:33.647Z</time></trkpt><trkpt lat="45.3451266" lon="7.9135679"><ele>229.0</ele><time>2026-04-25T16:08:36.647Z</time></trkpt><trkpt lat="45.3451234" lon="7.9134731"><ele>229.0</ele><time>2026-04-25T16:08:39.647Z</time></trkpt><trkpt lat="45.3451256" lon="7.9133719"><ele>229.0</ele><time>2026-04-25T16:08:42.647Z</time></trkpt><trkpt lat="45.345125" lon="7.9132707"><ele>229.0</ele><time>2026-04-25T16:08:45.647Z</time></trkpt><trkpt lat="45.3451336" lon="7.9131515"><ele>228.99999999999997</ele><time>2026-04-25T16:08:48.647Z</time></trkpt><trkpt lat="45.3451471" lon="7.9130291"><ele>229.0</ele><time>2026-04-25T16:08:51.647Z</time></trkpt><trkpt lat="45.3451617" lon="7.9129132"><ele>229.0</ele><time>2026-04-25T16:08:54.647Z</time></trkpt><trkpt lat="45.3451753" lon="7.9128016"><ele>229.0</ele><time>2026-04-25T16:08:57.647Z</time></trkpt><trkpt lat="45.3451891" lon="7.9126974"><ele>228.99999999999997</ele><time>2026-04-25T16:09:00.648Z</time></trkpt><trkpt lat="45.3452012" lon="7.9125903"><ele>229.0</ele><time>2026-04-25T16:09:03.648Z</time></trkpt><trkpt lat="45.3452197" lon="7.912476"><ele>228.99999999999997</ele><time>2026-04-25T16:09:06.648Z</time></trkpt><trkpt lat="45.3452412" lon="7.9123544"><ele>229.0</ele><time>2026-04-25T16:09:09.648Z</time></trkpt><trkpt lat="45.3452544" lon="7.91225"><ele>229.0</ele><time>2026-04-25T16:09:12.649Z</time></trkpt><trkpt lat="45.3452674" lon="7.9121447"><ele>229.0</ele><time>2026-04-25T16:09:15.648Z</time></trkpt><trkpt lat="45.3452707" lon="7.9120543"><ele>228.99999999999997</ele><time>2026-04-25T16:09:18.648Z</time></trkpt><trkpt lat="45.3452775" lon="7.9119415"><ele>229.0</ele><time>2026-04-25T16:09:21.648Z</time></trkpt><trkpt lat="45.3452768" lon="7.9118314"><ele>228.99999999999997</ele><time>2026-04-25T16:09:24.649Z</time></trkpt><trkpt lat="45.3452705" lon="7.9117405"><ele>229.0</ele><time>2026-04-25T16:09:27.649Z</time></trkpt><trkpt lat="45.3452674" lon="7.9116332"><ele>229.0</ele><time>2026-04-25T16:09:30.648Z</time></trkpt><trkpt lat="45.3452599" lon="7.9115165"><ele>229.0</ele><time>2026-04-25T16:09:33.648Z</time></trkpt><trkpt lat="45.3452501" lon="7.9114088"><ele>228.99999999999997</ele><time>2026-04-25T16:09:36.648Z</time></trkpt><trkpt lat="45.3452414" lon="7.9113031"><ele>229.0</ele><time>2026-04-25T16:09:39.648Z</time></trkpt><trkpt lat="45.3452309" lon="7.9111904"><ele>228.85714285714283</ele><time>2026-04-25T16:09:42.649Z</time></trkpt><trkpt lat="45.3452265" lon="7.9110907"><ele>228.71428571428572</ele><time>2026-04-25T16:09:45.649Z</time></trkpt><trkpt lat="45.3452176" lon="7.910997"><ele>228.57142857142856</ele><time>2026-04-25T16:09:48.65Z</time></trkpt><trkpt lat="45.3452078" lon="7.9108967"><ele>228.42857142857142</ele><time>2026-04-25T16:09:51.649Z</time></trkpt><trkpt lat="45.3451967" lon="7.9107862"><ele>228.28571428571428</ele><time>2026-04-25T16:09:54.649Z</time></trkpt><trkpt lat="45.3451909" lon="7.9106722"><ele>228.14285714285714</ele><time>2026-04-25T16:09:57.649Z</time></trkpt><trkpt lat="45.345183" lon="7.9105641"><ele>228.0</ele><time>2026-04-25T16:10:00.649Z</time></trkpt><trkpt lat="45.3451754" lon="7.9104542"><ele>228.0</ele><time>2026-04-25T16:10:03.649Z</time></trkpt><trkpt lat="45.345168" lon="7.910345"><ele>228.0</ele><time>2026-04-25T16:10:06.649Z</time></trkpt><trkpt lat="45.3451629" lon="7.9102348"><ele>228.0</ele><time>2026-04-25T16:10:09.649Z</time></trkpt><trkpt lat="45.3451577" lon="7.9101185"><ele>228.0</ele><time>2026-04-25T16:10:12.649Z</time></trkpt><trkpt lat="45.3451506" lon="7.9100063"><ele>228.0</ele><time>2026-04-25T16:10:15.649Z</time></trkpt><trkpt lat="45.3451466" lon="7.9098891"><ele>228.0</ele><time>2026-04-25T16:10:18.649Z</time></trkpt><trkpt lat="45.3451345" lon="7.9097704"><ele>228.0</ele><time>2026-04-25T16:10:21.649Z</time></trkpt><trkpt lat="45.3451259" lon="7.9096516"><ele>228.0</ele><time>2026-04-25T16:10:24.649Z</time></trkpt><trkpt lat="45.3451099" lon="7.9095285"><ele>228.0</ele><time>2026-04-25T16:10:27.65Z</time></trkpt><trkpt lat="45.3451086" lon="7.9093981"><ele>228.0</ele><time>2026-04-25T16:10:30.65Z</time></trkpt><trkpt lat="45.3450974" lon="7.9092787"><ele>228.0</ele><time>2026-04-25T16:10:33.65Z</time></trkpt><trkpt lat="45.3450906" lon="7.9091888"><ele>228.0</ele><time>2026-04-25T16:10:35.65Z</time></trkpt><trkpt lat="45.3450852" lon="7.9090612"><ele>228.0</ele><time>2026-04-25T16:10:38.65Z</time></trkpt><trkpt lat="45.3450749" lon="7.9089396"><ele>228.0</ele><time>2026-04-25T16:10:41.65Z</time></trkpt><trkpt lat="45.3450603" lon="7.9088186"><ele>228.0</ele><time>2026-04-25T16:10:44.65Z</time></trkpt><trkpt lat="45.3450496" lon="7.9087249"><ele>228.0</ele><time>2026-04-25T16:10:46.651Z</time></trkpt><trkpt lat="45.3450427" lon="7.9085959"><ele>228.0</ele><time>2026-04-25T16:10:49.65Z</time></trkpt><trkpt lat="45.345033" lon="7.9084809"><ele>228.0</ele><time>2026-04-25T16:10:52.65Z</time></trkpt><trkpt lat="45.3450229" lon="7.9083729"><ele>228.0</ele><time>2026-04-25T16:10:55.65Z</time></trkpt><trkpt lat="45.3450133" lon="7.9082705"><ele>227.99999999999997</ele><time>2026-04-25T16:10:58.65Z</time></trkpt><trkpt lat="45.3449981" lon="7.9081568"><ele>228.0</ele><time>2026-04-25T16:11:01.65Z</time></trkpt><trkpt lat="45.344989" lon="7.9080231"><ele>228.0</ele><time>2026-04-25T16:11:04.65Z</time></trkpt><trkpt lat="45.344979" lon="7.9079319"><ele>227.99999999999997</ele><time>2026-04-25T16:11:06.65Z</time></trkpt><trkpt lat="45.344968" lon="7.9078434"><ele>228.0</ele><time>2026-04-25T16:11:08.65Z</time></trkpt><trkpt lat="45.3449503" lon="7.9077544"><ele>228.0</ele><time>2026-04-25T16:11:10.65Z</time></trkpt><trkpt lat="45.3449401" lon="7.9076657"><ele>228.0</ele><time>2026-04-25T16:11:12.65Z</time></trkpt><trkpt lat="45.3449345" lon="7.9075688"><ele>228.0</ele><time>2026-04-25T16:11:14.65Z</time></trkpt><trkpt lat="45.344933" lon="7.9074394"><ele>228.0</ele><time>2026-04-25T16:11:17.651Z</time></trkpt><trkpt lat="45.3449247" lon="7.9073418"><ele>228.0</ele><time>2026-04-25T16:11:19.651Z</time></trkpt><trkpt lat="45.3449134" lon="7.9072449"><ele>228.0</ele><time>2026-04-25T16:11:21.651Z</time></trkpt><trkpt lat="45.3448954" lon="7.9071193"><ele>228.0</ele><time>2026-04-25T16:11:24.652Z</time></trkpt><trkpt lat="45.3448833" lon="7.9069942"><ele>228.0</ele><time>2026-04-25T16:11:27.652Z</time></trkpt><trkpt lat="45.3448746" lon="7.9068669"><ele>228.0</ele><time>2026-04-25T16:11:30.651Z</time></trkpt><trkpt lat="45.3448673" lon="7.906755"><ele>228.0</ele><time>2026-04-25T16:11:33.651Z</time></trkpt><trkpt lat="45.3448545" lon="7.9066365"><ele>228.0</ele><time>2026-04-25T16:11:36.652Z</time></trkpt><trkpt lat="45.3448503" lon="7.9065226"><ele>228.0</ele><time>2026-04-25T16:11:39.651Z</time></trkpt><trkpt lat="45.3448253" lon="7.9064224"><ele>228.0</ele><time>2026-04-25T16:11:42.651Z</time></trkpt><trkpt lat="45.3448051" lon="7.9063268"><ele>228.0</ele><time>2026-04-25T16:11:44.651Z</time></trkpt><trkpt lat="45.3447891" lon="7.9062272"><ele>227.99999999999997</ele><time>2026-04-25T16:11:46.652Z</time></trkpt><trkpt lat="45.3447647" lon="7.9061271"><ele>228.0</ele><time>2026-04-25T16:11:48.651Z</time></trkpt><trkpt lat="45.3447446" lon="7.9060412"><ele>228.0</ele><time>2026-04-25T16:11:50.652Z</time></trkpt><trkpt lat="45.3447105" lon="7.905941"><ele>227.99999999999997</ele><time>2026-04-25T16:11:52.651Z</time></trkpt><trkpt lat="45.3446869" lon="7.9058521"><ele>228.0</ele><time>2026-04-25T16:11:54.651Z</time></trkpt><trkpt lat="45.3446585" lon="7.9057594"><ele>228.0</ele><time>2026-04-25T16:11:56.651Z</time></trkpt><trkpt lat="45.3446333" lon="7.9056693"><ele>227.85714285714283</ele><time>2026-04-25T16:11:58.652Z</time></trkpt><trkpt lat="45.3446049" lon="7.9055729"><ele>227.7142857142857</ele><time>2026-04-25T16:12:00.651Z</time></trkpt><trkpt lat="45.3445793" lon="7.905488"><ele>227.57142857142856</ele><time>2026-04-25T16:12:02.652Z</time></trkpt><trkpt lat="45.3445552" lon="7.9054028"><ele>227.42857142857144</ele><time>2026-04-25T16:12:04.652Z</time></trkpt><trkpt lat="45.3445218" lon="7.9053072"><ele>227.2857142857143</ele><time>2026-04-25T16:12:06.652Z</time></trkpt><trkpt lat="45.3444999" lon="7.9052212"><ele>227.14285714285717</ele><time>2026-04-25T16:12:08.653Z</time></trkpt><trkpt lat="45.344477" lon="7.9051269"><ele>227.0</ele><time>2026-04-25T16:12:10.652Z</time></trkpt><trkpt lat="45.3444478" lon="7.9050289"><ele>227.00000000000003</ele><time>2026-04-25T16:12:12.652Z</time></trkpt><trkpt lat="45.344423" lon="7.9049237"><ele>227.0</ele><time>2026-04-25T16:12:14.653Z</time></trkpt><trkpt lat="45.3444025" lon="7.9048306"><ele>227.0</ele><time>2026-04-25T16:12:16.652Z</time></trkpt><trkpt lat="45.3443796" lon="7.904727"><ele>227.0</ele><time>2026-04-25T16:12:18.652Z</time></trkpt><trkpt lat="45.3443566" lon="7.9046232"><ele>227.00000000000003</ele><time>2026-04-25T16:12:20.652Z</time></trkpt><trkpt lat="45.3443336" lon="7.9045231"><ele>227.0</ele><time>2026-04-25T16:12:22.652Z</time></trkpt><trkpt lat="45.3443189" lon="7.9043937"><ele>227.00000000000003</ele><time>2026-04-25T16:12:25.652Z</time></trkpt><trkpt lat="45.3442986" lon="7.9042621"><ele>227.0</ele><time>2026-04-25T16:12:28.652Z</time></trkpt><trkpt lat="45.3442767" lon="7.904137"><ele>227.0</ele><time>2026-04-25T16:12:31.652Z</time></trkpt><trkpt lat="45.34426" lon="7.9040409"><ele>227.0</ele><time>2026-04-25T16:12:33.652Z</time></trkpt><trkpt lat="45.3442431" lon="7.9039204"><ele>227.00000000000003</ele><time>2026-04-25T16:12:36.652Z</time></trkpt><trkpt lat="45.3442399" lon="7.9037975"><ele>227.0</ele><time>2026-04-25T16:12:39.652Z</time></trkpt><trkpt lat="45.3442964" lon="7.9037232"><ele>227.00000000000003</ele><time>2026-04-25T16:12:43.653Z</time></trkpt><trkpt lat="45.34436" lon="7.9037295"><ele>227.0</ele><time>2026-04-25T16:12:46.652Z</time></trkpt><trkpt lat="45.3444403" lon="7.9037278"><ele>227.0</ele><time>2026-04-25T16:12:50.653Z</time></trkpt><trkpt lat="45.3445252" lon="7.9037093"><ele>227.0</ele><time>2026-04-25T16:12:53.653Z</time></trkpt><trkpt lat="45.3446103" lon="7.9036757"><ele>227.00000000000003</ele><time>2026-04-25T16:12:56.653Z</time></trkpt><trkpt lat="45.3446994" lon="7.9036488"><ele>227.0</ele><time>2026-04-25T16:12:59.653Z</time></trkpt><trkpt lat="45.3447616" lon="7.9036264"><ele>226.85714285714286</ele><time>2026-04-25T16:13:01.653Z</time></trkpt><trkpt lat="45.3448271" lon="7.9036021"><ele>226.71428571428572</ele><time>2026-04-25T16:13:03.654Z</time></trkpt><trkpt lat="45.3449006" lon="7.9035641"><ele>226.57142857142858</ele><time>2026-04-25T16:13:05.653Z</time></trkpt><trkpt lat="45.3449739" lon="7.9035338"><ele>226.42857142857144</ele><time>2026-04-25T16:13:07.653Z</time></trkpt><trkpt lat="45.3450454" lon="7.9035225"><ele>226.28571428571428</ele><time>2026-04-25T16:13:09.653Z</time></trkpt><trkpt lat="45.3451231" lon="7.9035172"><ele>226.14285714285717</ele><time>2026-04-25T16:13:11.653Z</time></trkpt><trkpt lat="45.3451973" lon="7.9035216"><ele>226.0</ele><time>2026-04-25T16:13:13.654Z</time></trkpt><trkpt lat="45.3452882" lon="7.9035316"><ele>225.99999999999997</ele><time>2026-04-25T16:13:16.653Z</time></trkpt><trkpt lat="45.3453787" lon="7.903553"><ele>226.0</ele><time>2026-04-25T16:13:19.653Z</time></trkpt><trkpt lat="45.3454625" lon="7.9036041"><ele>226.0</ele><time>2026-04-25T16:13:22.654Z</time></trkpt><trkpt lat="45.345516" lon="7.90366"><ele>226.0</ele><time>2026-04-25T16:13:24.653Z</time></trkpt><trkpt lat="45.3455602" lon="7.9037344"><ele>225.99999999999997</ele><time>2026-04-25T16:13:26.653Z</time></trkpt><trkpt lat="45.3455997" lon="7.9038088"><ele>226.0</ele><time>2026-04-25T16:13:28.653Z</time></trkpt><trkpt lat="45.3456354" lon="7.9038924"><ele>226.16666666666666</ele><time>2026-04-25T16:13:30.653Z</time></trkpt><trkpt lat="45.3456662" lon="7.9039831"><ele>226.33333333333331</ele><time>2026-04-25T16:13:32.654Z</time></trkpt><trkpt lat="45.3456994" lon="7.9040693"><ele>226.5</ele><time>2026-04-25T16:13:34.655Z</time></trkpt><trkpt lat="45.3457345" lon="7.9041546"><ele>226.66666666666669</ele><time>2026-04-25T16:13:36.654Z</time></trkpt><trkpt lat="45.3457724" lon="7.9042664"><ele>226.83333333333334</ele><time>2026-04-25T16:13:39.655Z</time></trkpt><trkpt lat="45.3458118" lon="7.9043793"><ele>227.0</ele><time>2026-04-25T16:13:42.654Z</time></trkpt><trkpt lat="45.3458405" lon="7.9044679"><ele>227.2857142857143</ele><time>2026-04-25T16:13:44.654Z</time></trkpt><trkpt lat="45.3458631" lon="7.9045609"><ele>227.5714285714286</ele><time>2026-04-25T16:13:46.654Z</time></trkpt><trkpt lat="45.3458867" lon="7.9046527"><ele>227.85714285714286</ele><time>2026-04-25T16:13:48.654Z</time></trkpt><trkpt lat="45.3459179" lon="7.9047416"><ele>228.14285714285717</ele><time>2026-04-25T16:13:50.654Z</time></trkpt><trkpt lat="45.3459453" lon="7.9048242"><ele>228.42857142857144</ele><time>2026-04-25T16:13:52.654Z</time></trkpt><trkpt lat="45.3459838" lon="7.904896"><ele>228.71428571428572</ele><time>2026-04-25T16:13:54.654Z</time></trkpt><trkpt lat="45.3460561" lon="7.9049752"><ele>229.0</ele><time>2026-04-25T16:13:57.655Z</time></trkpt><trkpt lat="45.3461435" lon="7.9050144"><ele>229.0</ele><time>2026-04-25T16:14:00.655Z</time></trkpt><trkpt lat="45.3462107" lon="7.9050085"><ele>229.0</ele><time>2026-04-25T16:14:02.654Z</time></trkpt><trkpt lat="45.3463068" lon="7.9049808"><ele>229.0</ele><time>2026-04-25T16:14:05.654Z</time></trkpt><trkpt lat="45.346373" lon="7.9049461"><ele>229.0</ele><time>2026-04-25T16:14:07.655Z</time></trkpt><trkpt lat="45.3464287" lon="7.9049031"><ele>229.0</ele><time>2026-04-25T16:14:09.654Z</time></trkpt><trkpt lat="45.3464931" lon="7.9048654"><ele>229.0</ele><time>2026-04-25T16:14:11.655Z</time></trkpt><trkpt lat="45.3465589" lon="7.9048323"><ele>229.0</ele><time>2026-04-25T16:14:13.654Z</time></trkpt><trkpt lat="45.3466271" lon="7.9048029"><ele>228.85714285714283</ele><time>2026-04-25T16:14:15.654Z</time></trkpt><trkpt lat="45.3466898" lon="7.9047612"><ele>228.71428571428572</ele><time>2026-04-25T16:14:17.654Z</time></trkpt><trkpt lat="45.3467567" lon="7.9047275"><ele>228.57142857142856</ele><time>2026-04-25T16:14:19.655Z</time></trkpt><trkpt lat="45.3468296" lon="7.9046959"><ele>228.42857142857142</ele><time>2026-04-25T16:14:21.655Z</time></trkpt><trkpt lat="45.3468944" lon="7.9046692"><ele>228.28571428571428</ele><time>2026-04-25T16:14:23.655Z</time></trkpt><trkpt lat="45.3469541" lon="7.9046386"><ele>228.14285714285714</ele><time>2026-04-25T16:14:25.655Z</time></trkpt><trkpt lat="45.3470347" lon="7.9046079"><ele>228.0</ele><time>2026-04-25T16:14:28.655Z</time></trkpt><trkpt lat="45.3471259" lon="7.9046135"><ele>228.0</ele><time>2026-04-25T16:14:31.655Z</time></trkpt><trkpt lat="45.3472021" lon="7.9047007"><ele>228.0</ele><time>2026-04-25T16:14:34.655Z</time></trkpt><trkpt lat="45.3472256" lon="7.9047997"><ele>228.0</ele><time>2026-04-25T16:14:36.655Z</time></trkpt><trkpt lat="45.347245" lon="7.9049014"><ele>228.0</ele><time>2026-04-25T16:14:38.655Z</time></trkpt><trkpt lat="45.3472737" lon="7.9049982"><ele>228.0</ele><time>2026-04-25T16:14:40.656Z</time></trkpt><trkpt lat="45.3473187" lon="7.9050798"><ele>228.0</ele><time>2026-04-25T16:14:42.655Z</time></trkpt><trkpt lat="45.3473806" lon="7.9051402"><ele>227.83333333333334</ele><time>2026-04-25T16:14:44.655Z</time></trkpt><trkpt lat="45.3474515" lon="7.9051716"><ele>227.66666666666669</ele><time>2026-04-25T16:14:46.655Z</time></trkpt><trkpt lat="45.3475285" lon="7.9051797"><ele>227.5</ele><time>2026-04-25T16:14:48.656Z</time></trkpt><trkpt lat="45.3476133" lon="7.9051758"><ele>227.33333333333334</ele><time>2026-04-25T16:14:50.655Z</time></trkpt><trkpt lat="45.3476966" lon="7.9051471"><ele>227.16666666666669</ele><time>2026-04-25T16:14:52.655Z</time></trkpt><trkpt lat="45.3477794" lon="7.9051187"><ele>227.0</ele><time>2026-04-25T16:14:54.655Z</time></trkpt><trkpt lat="45.3478644" lon="7.9050973"><ele>227.0</ele><time>2026-04-25T16:14:56.655Z</time></trkpt><trkpt lat="45.347957" lon="7.905079"><ele>227.0</ele><time>2026-04-25T16:14:58.655Z</time></trkpt><trkpt lat="45.3480463" lon="7.9050539"><ele>227.0</ele><time>2026-04-25T16:15:00.655Z</time></trkpt><trkpt lat="45.3481365" lon="7.9050295"><ele>227.0</ele><time>2026-04-25T16:15:02.655Z</time></trkpt><trkpt lat="45.3482253" lon="7.9049994"><ele>227.0</ele><time>2026-04-25T16:15:04.657Z</time></trkpt><trkpt lat="45.348317" lon="7.904977"><ele>227.0</ele><time>2026-04-25T16:15:06.657Z</time></trkpt><trkpt lat="45.3484011" lon="7.9049715"><ele>227.0</ele><time>2026-04-25T16:15:08.657Z</time></trkpt><trkpt lat="45.348487" lon="7.9049973"><ele>227.0</ele><time>2026-04-25T16:15:10.656Z</time></trkpt><trkpt lat="45.3485722" lon="7.9050585"><ele>227.0</ele><time>2026-04-25T16:15:12.656Z</time></trkpt><trkpt lat="45.3486464" lon="7.9051474"><ele>227.0</ele><time>2026-04-25T16:15:14.656Z</time></trkpt><trkpt lat="45.3487277" lon="7.905239"><ele>227.00000000000003</ele><time>2026-04-25T16:15:16.656Z</time></trkpt><trkpt lat="45.3488104" lon="7.9053121"><ele>227.0</ele><time>2026-04-25T16:15:18.656Z</time></trkpt><trkpt lat="45.3488925" lon="7.905359"><ele>227.0</ele><time>2026-04-25T16:15:20.657Z</time></trkpt><trkpt lat="45.3489737" lon="7.9053738"><ele>227.0</ele><time>2026-04-25T16:15:22.657Z</time></trkpt><trkpt lat="45.3490512" lon="7.9053626"><ele>227.00000000000003</ele><time>2026-04-25T16:15:24.657Z</time></trkpt><trkpt lat="45.3491367" lon="7.9053434"><ele>227.0</ele><time>2026-04-25T16:15:26.656Z</time></trkpt><trkpt lat="45.3492263" lon="7.9053352"><ele>227.2</ele><time>2026-04-25T16:15:28.657Z</time></trkpt><trkpt lat="45.3493147" lon="7.9053207"><ele>227.39999999999998</ele><time>2026-04-25T16:15:30.656Z</time></trkpt><trkpt lat="45.3493967" lon="7.9053041"><ele>227.60000000000002</ele><time>2026-04-25T16:15:32.656Z</time></trkpt><trkpt lat="45.3494876" lon="7.9052836"><ele>227.8</ele><time>2026-04-25T16:15:34.656Z</time></trkpt><trkpt lat="45.3495823" lon="7.9052598"><ele>228.0</ele><time>2026-04-25T16:15:36.656Z</time></trkpt><trkpt lat="45.3496731" lon="7.9052436"><ele>228.0</ele><time>2026-04-25T16:15:38.656Z</time></trkpt><trkpt lat="45.3497673" lon="7.9052311"><ele>228.0</ele><time>2026-04-25T16:15:40.656Z</time></trkpt><trkpt lat="45.3498577" lon="7.905241"><ele>228.0</ele><time>2026-04-25T16:15:42.657Z</time></trkpt><trkpt lat="45.3499406" lon="7.9052631"><ele>228.0</ele><time>2026-04-25T16:15:44.657Z</time></trkpt><trkpt lat="45.3500267" lon="7.9052931"><ele>228.0</ele><time>2026-04-25T16:15:46.657Z</time></trkpt><trkpt lat="45.3501155" lon="7.9053129"><ele>228.0</ele><time>2026-04-25T16:15:48.657Z</time></trkpt><trkpt lat="45.3501978" lon="7.9053191"><ele>228.0</ele><time>2026-04-25T16:15:50.657Z</time></trkpt><trkpt lat="45.3502843" lon="7.9053187"><ele>228.0</ele><time>2026-04-25T16:15:52.658Z</time></trkpt><trkpt lat="45.350373" lon="7.9053165"><ele>228.0</ele><time>2026-04-25T16:15:54.657Z</time></trkpt><trkpt lat="45.3504664" lon="7.9053092"><ele>228.0</ele><time>2026-04-25T16:15:56.657Z</time></trkpt><trkpt lat="45.3505629" lon="7.9052993"><ele>228.0</ele><time>2026-04-25T16:15:58.657Z</time></trkpt><trkpt lat="45.3506548" lon="7.9052861"><ele>228.16666666666666</ele><time>2026-04-25T16:16:00.657Z</time></trkpt><trkpt lat="45.3507362" lon="7.9052663"><ele>228.33333333333331</ele><time>2026-04-25T16:16:02.657Z</time></trkpt><trkpt lat="45.3508244" lon="7.9052455"><ele>228.5</ele><time>2026-04-25T16:16:04.657Z</time></trkpt><trkpt lat="45.3509104" lon="7.9052264"><ele>228.66666666666666</ele><time>2026-04-25T16:16:06.658Z</time></trkpt><trkpt lat="45.3509915" lon="7.9052098"><ele>228.83333333333331</ele><time>2026-04-25T16:16:08.658Z</time></trkpt><trkpt lat="45.3510703" lon="7.905209"><ele>229.0</ele><time>2026-04-25T16:16:10.657Z</time></trkpt><trkpt lat="45.3511524" lon="7.9052311"><ele>229.0</ele><time>2026-04-25T16:16:12.657Z</time></trkpt><trkpt lat="45.3512313" lon="7.9053048"><ele>228.99999999999997</ele><time>2026-04-25T16:16:14.657Z</time></trkpt><trkpt lat="45.3513079" lon="7.9053969"><ele>228.99999999999997</ele><time>2026-04-25T16:16:16.657Z</time></trkpt><trkpt lat="45.3513859" lon="7.905466"><ele>229.0</ele><time>2026-04-25T16:16:18.657Z</time></trkpt><trkpt lat="45.3514749" lon="7.9054977"><ele>229.0</ele><time>2026-04-25T16:16:20.657Z</time></trkpt><trkpt lat="45.3515589" lon="7.905503"><ele>228.99999999999997</ele><time>2026-04-25T16:16:22.657Z</time></trkpt><trkpt lat="45.3516473" lon="7.905494"><ele>229.0</ele><time>2026-04-25T16:16:24.657Z</time></trkpt><trkpt lat="45.3517458" lon="7.905474"><ele>229.0</ele><time>2026-04-25T16:16:26.657Z</time></trkpt><trkpt lat="45.351836" lon="7.9054682"><ele>229.0</ele><time>2026-04-25T16:16:28.657Z</time></trkpt><trkpt lat="45.3519227" lon="7.9054587"><ele>228.99999999999997</ele><time>2026-04-25T16:16:30.657Z</time></trkpt><trkpt lat="45.3519974" lon="7.9054461"><ele>229.0</ele><time>2026-04-25T16:16:32.657Z</time></trkpt><trkpt lat="45.3520768" lon="7.9054275"><ele>229.0</ele><time>2026-04-25T16:16:34.658Z</time></trkpt><trkpt lat="45.3521616" lon="7.9054139"><ele>229.0</ele><time>2026-04-25T16:16:36.658Z</time></trkpt><trkpt lat="45.352236" lon="7.9054187"><ele>229.0</ele><time>2026-04-25T16:16:38.658Z</time></trkpt><trkpt lat="45.3523063" lon="7.9054465"><ele>229.0</ele><time>2026-04-25T16:16:40.658Z</time></trkpt><trkpt lat="45.3523629" lon="7.9054996"><ele>229.0</ele><time>2026-04-25T16:16:42.658Z</time></trkpt><trkpt lat="45.3524196" lon="7.9055563"><ele>229.0</ele><time>2026-04-25T16:16:44.658Z</time></trkpt><trkpt lat="45.3524814" lon="7.9056186"><ele>229.0</ele><time>2026-04-25T16:16:46.658Z</time></trkpt><trkpt lat="45.352549" lon="7.9056658"><ele>228.85714285714283</ele><time>2026-04-25T16:16:48.658Z</time></trkpt><trkpt lat="45.3526235" lon="7.9057048"><ele>228.71428571428572</ele><time>2026-04-25T16:16:50.658Z</time></trkpt><trkpt lat="45.3527036" lon="7.9057291"><ele>228.57142857142856</ele><time>2026-04-25T16:16:52.659Z</time></trkpt><trkpt lat="45.3527757" lon="7.9057614"><ele>228.42857142857142</ele><time>2026-04-25T16:16:54.658Z</time></trkpt><trkpt lat="45.3528437" lon="7.905796"><ele>228.28571428571428</ele><time>2026-04-25T16:16:56.658Z</time></trkpt><trkpt lat="45.3529042" lon="7.9058376"><ele>228.14285714285714</ele><time>2026-04-25T16:16:58.658Z</time></trkpt><trkpt lat="45.352967" lon="7.9058854"><ele>228.0</ele><time>2026-04-25T16:17:00.658Z</time></trkpt><trkpt lat="45.3530354" lon="7.9059435"><ele>228.0</ele><time>2026-04-25T16:17:02.659Z</time></trkpt><trkpt lat="45.3531016" lon="7.9060035"><ele>228.0</ele><time>2026-04-25T16:17:04.658Z</time></trkpt><trkpt lat="45.3531669" lon="7.906072"><ele>228.0</ele><time>2026-04-25T16:17:06.658Z</time></trkpt><trkpt lat="45.3532284" lon="7.9061374"><ele>228.0</ele><time>2026-04-25T16:17:08.658Z</time></trkpt><trkpt lat="45.3532922" lon="7.9062007"><ele>228.0</ele><time>2026-04-25T16:17:10.658Z</time></trkpt><trkpt lat="45.3533675" lon="7.9062763"><ele>228.0</ele><time>2026-04-25T16:17:12.658Z</time></trkpt><trkpt lat="45.3534413" lon="7.9063424"><ele>228.0</ele><time>2026-04-25T16:17:14.659Z</time></trkpt><trkpt lat="45.3535304" lon="7.9063914"><ele>228.0</ele><time>2026-04-25T16:17:16.658Z</time></trkpt><trkpt lat="45.3536115" lon="7.9064424"><ele>228.0</ele><time>2026-04-25T16:17:18.658Z</time></trkpt><trkpt lat="45.3536896" lon="7.9064772"><ele>228.0</ele><time>2026-04-25T16:17:20.66Z</time></trkpt><trkpt lat="45.3537627" lon="7.9065096"><ele>228.0</ele><time>2026-04-25T16:17:22.689Z</time></trkpt><trkpt lat="45.3538302" lon="7.9065448"><ele>228.0</ele><time>2026-04-25T16:17:24.659Z</time></trkpt><trkpt lat="45.3538895" lon="7.9066086"><ele>228.0</ele><time>2026-04-25T16:17:26.66Z</time></trkpt><trkpt lat="45.3539451" lon="7.9067191"><ele>228.0</ele><time>2026-04-25T16:17:29.659Z</time></trkpt><trkpt lat="45.3539719" lon="7.9068041"><ele>228.0</ele><time>2026-04-25T16:17:31.659Z</time></trkpt><trkpt lat="45.3539997" lon="7.906899"><ele>228.0</ele><time>2026-04-25T16:17:33.659Z</time></trkpt><trkpt lat="45.3540135" lon="7.9070024"><ele>228.0</ele><time>2026-04-25T16:17:35.659Z</time></trkpt><trkpt lat="45.3540356" lon="7.9070974"><ele>228.0</ele><time>2026-04-25T16:17:37.659Z</time></trkpt><trkpt lat="45.3540579" lon="7.9071953"><ele>228.0</ele><time>2026-04-25T16:17:39.659Z</time></trkpt><trkpt lat="45.3540809" lon="7.9072882"><ele>228.0</ele><time>2026-04-25T16:17:41.659Z</time></trkpt><trkpt lat="45.3541" lon="7.9073827"><ele>228.0</ele><time>2026-04-25T16:17:43.659Z</time></trkpt><trkpt lat="45.3541397" lon="7.9074956"><ele>228.0</ele><time>2026-04-25T16:17:46.659Z</time></trkpt><trkpt lat="45.3542274" lon="7.9075387"><ele>228.0</ele><time>2026-04-25T16:17:49.659Z</time></trkpt><trkpt lat="45.3543013" lon="7.9075375"><ele>228.0</ele><time>2026-04-25T16:17:51.659Z</time></trkpt><trkpt lat="45.3543772" lon="7.907533"><ele>228.0</ele><time>2026-04-25T16:17:53.659Z</time></trkpt><trkpt lat="45.354456" lon="7.9075275"><ele>228.0</ele><time>2026-04-25T16:17:55.66Z</time></trkpt><trkpt lat="45.3545486" lon="7.9075216"><ele>228.0</ele><time>2026-04-25T16:17:57.659Z</time></trkpt><trkpt lat="45.3546423" lon="7.9075316"><ele>228.0</ele><time>2026-04-25T16:17:59.659Z</time></trkpt><trkpt lat="45.3547312" lon="7.9075353"><ele>228.0</ele><time>2026-04-25T16:18:01.659Z</time></trkpt><trkpt lat="45.3548225" lon="7.9075315"><ele>228.0</ele><time>2026-04-25T16:18:03.659Z</time></trkpt><trkpt lat="45.3549026" lon="7.9075311"><ele>227.8</ele><time>2026-04-25T16:18:05.66Z</time></trkpt><trkpt lat="45.354985" lon="7.907528"><ele>227.60000000000002</ele><time>2026-04-25T16:18:07.66Z</time></trkpt><trkpt lat="45.3550574" lon="7.9075209"><ele>227.39999999999998</ele><time>2026-04-25T16:18:09.662Z</time></trkpt><trkpt lat="45.3551676" lon="7.9075147"><ele>227.2</ele><time>2026-04-25T16:18:11.66Z</time></trkpt><trkpt lat="45.3552625" lon="7.9075142"><ele>227.0</ele><time>2026-04-25T16:18:13.66Z</time></trkpt><trkpt lat="45.3553562" lon="7.9075196"><ele>227.00000000000003</ele><time>2026-04-25T16:18:15.66Z</time></trkpt><trkpt lat="45.3554406" lon="7.9075174"><ele>227.0</ele><time>2026-04-25T16:18:17.66Z</time></trkpt><trkpt lat="45.3555296" lon="7.907512"><ele>227.0</ele><time>2026-04-25T16:18:19.66Z</time></trkpt><trkpt lat="45.3556254" lon="7.9075114"><ele>227.0</ele><time>2026-04-25T16:18:21.66Z</time></trkpt><trkpt lat="45.3556951" lon="7.9075306"><ele>227.00000000000003</ele><time>2026-04-25T16:18:23.708Z</time></trkpt><trkpt lat="45.3557669" lon="7.9075365"><ele>227.0</ele><time>2026-04-25T16:18:25.741Z</time></trkpt><trkpt lat="45.3558632" lon="7.9075356"><ele>227.14285714285717</ele><time>2026-04-25T16:18:27.809Z</time></trkpt><trkpt lat="45.3559371" lon="7.9075282"><ele>227.2857142857143</ele><time>2026-04-25T16:18:29.809Z</time></trkpt><trkpt lat="45.3560044" lon="7.9075151"><ele>227.42857142857144</ele><time>2026-04-25T16:18:31.725Z</time></trkpt><trkpt lat="45.356093" lon="7.907516"><ele>227.57142857142856</ele><time>2026-04-25T16:18:34.72Z</time></trkpt><trkpt lat="45.3561625" lon="7.9075123"><ele>227.7142857142857</ele><time>2026-04-25T16:18:36.756Z</time></trkpt><trkpt lat="45.356236" lon="7.9075139"><ele>227.85714285714283</ele><time>2026-04-25T16:18:38.792Z</time></trkpt><trkpt lat="45.3563038" lon="7.9074734"><ele>228.0</ele><time>2026-04-25T16:18:40.709Z</time></trkpt><trkpt lat="45.3563805" lon="7.9074377"><ele>228.33333333333334</ele><time>2026-04-25T16:18:42.745Z</time></trkpt><trkpt lat="45.3564586" lon="7.9073989"><ele>228.66666666666669</ele><time>2026-04-25T16:18:44.782Z</time></trkpt><trkpt lat="45.3565335" lon="7.9073781"><ele>229.0</ele><time>2026-04-25T16:18:46.818Z</time></trkpt><trkpt lat="45.3566113" lon="7.907348"><ele>229.33333333333334</ele><time>2026-04-25T16:18:48.734Z</time></trkpt><trkpt lat="45.3566919" lon="7.907306"><ele>229.66666666666669</ele><time>2026-04-25T16:18:50.771Z</time></trkpt><trkpt lat="45.3567647" lon="7.9072705"><ele>230.0</ele><time>2026-04-25T16:18:52.807Z</time></trkpt><trkpt lat="45.3568646" lon="7.9072154"><ele>230.00000000000003</ele><time>2026-04-25T16:18:54.661Z</time></trkpt><trkpt lat="45.356957" lon="7.9071786"><ele>230.0</ele><time>2026-04-25T16:18:56.661Z</time></trkpt><trkpt lat="45.3570489" lon="7.9071707"><ele>230.0</ele><time>2026-04-25T16:18:58.661Z</time></trkpt><trkpt lat="45.3571388" lon="7.9071394"><ele>230.0</ele><time>2026-04-25T16:19:00.661Z</time></trkpt><trkpt lat="45.3572165" lon="7.9071132"><ele>230.00000000000003</ele><time>2026-04-25T16:19:02.661Z</time></trkpt><trkpt lat="45.3572915" lon="7.9070818"><ele>230.0</ele><time>2026-04-25T16:19:04.661Z</time></trkpt><trkpt lat="45.3573735" lon="7.9070399"><ele>230.33333333333334</ele><time>2026-04-25T16:19:06.662Z</time></trkpt><trkpt lat="45.3574715" lon="7.9069899"><ele>230.66666666666669</ele><time>2026-04-25T16:19:08.662Z</time></trkpt><trkpt lat="45.3575524" lon="7.9069369"><ele>231.0</ele><time>2026-04-25T16:19:10.661Z</time></trkpt><trkpt lat="45.3576242" lon="7.9068866"><ele>231.33333333333331</ele><time>2026-04-25T16:19:12.661Z</time></trkpt><trkpt lat="45.3576949" lon="7.9068593"><ele>231.66666666666666</ele><time>2026-04-25T16:19:14.661Z</time></trkpt><trkpt lat="45.3577662" lon="7.9068311"><ele>232.0</ele><time>2026-04-25T16:19:16.661Z</time></trkpt><trkpt lat="45.3578459" lon="7.9067456"><ele>231.39999999999998</ele><time>2026-04-25T16:19:18.661Z</time></trkpt><trkpt lat="45.3578962" lon="7.9066367"><ele>230.79999999999998</ele><time>2026-04-25T16:19:20.661Z</time></trkpt><trkpt lat="45.357895" lon="7.906502"><ele>230.2</ele><time>2026-04-25T16:19:22.661Z</time></trkpt><trkpt lat="45.357878" lon="7.906378"><ele>229.6</ele><time>2026-04-25T16:19:24.662Z</time></trkpt><trkpt lat="45.3578587" lon="7.9062473"><ele>229.0</ele><time>2026-04-25T16:19:26.661Z</time></trkpt><trkpt lat="45.3578553" lon="7.9061218"><ele>228.99999999999997</ele><time>2026-04-25T16:19:28.661Z</time></trkpt><trkpt lat="45.3578617" lon="7.905996"><ele>229.0</ele><time>2026-04-25T16:19:30.661Z</time></trkpt><trkpt lat="45.357867" lon="7.9058768"><ele>229.0</ele><time>2026-04-25T16:19:32.661Z</time></trkpt><trkpt lat="45.357862" lon="7.9057609"><ele>229.0</ele><time>2026-04-25T16:19:34.661Z</time></trkpt><trkpt lat="45.357856" lon="7.90565"><ele>228.99999999999997</ele><time>2026-04-25T16:19:36.663Z</time></trkpt><trkpt lat="45.3578478" lon="7.9055286"><ele>229.0</ele><time>2026-04-25T16:19:38.662Z</time></trkpt><trkpt lat="45.3578475" lon="7.9053998"><ele>229.0</ele><time>2026-04-25T16:19:40.662Z</time></trkpt><trkpt lat="45.3578792" lon="7.9052827"><ele>228.99999999999997</ele><time>2026-04-25T16:19:42.662Z</time></trkpt><trkpt lat="45.3579599" lon="7.9052156"><ele>228.99999999999997</ele><time>2026-04-25T16:19:44.662Z</time></trkpt><trkpt lat="45.3580775" lon="7.9051846"><ele>229.0</ele><time>2026-04-25T16:19:46.662Z</time></trkpt><trkpt lat="45.3581418" lon="7.9051708"><ele>229.0</ele><time>2026-04-25T16:19:47.662Z</time></trkpt><trkpt lat="45.3582632" lon="7.9051507"><ele>229.0</ele><time>2026-04-25T16:19:49.662Z</time></trkpt><trkpt lat="45.3583745" lon="7.9051345"><ele>228.99999999999997</ele><time>2026-04-25T16:19:51.662Z</time></trkpt><trkpt lat="45.3584882" lon="7.9050986"><ele>228.99999999999997</ele><time>2026-04-25T16:19:53.663Z</time></trkpt><trkpt lat="45.3585849" lon="7.9050778"><ele>229.0</ele><time>2026-04-25T16:19:55.662Z</time></trkpt><trkpt lat="45.3586943" lon="7.9050439"><ele>229.0</ele><time>2026-04-25T16:19:57.662Z</time></trkpt><trkpt lat="45.3588058" lon="7.9050097"><ele>228.79999999999998</ele><time>2026-04-25T16:19:59.662Z</time></trkpt><trkpt lat="45.3589016" lon="7.9049884"><ele>228.59999999999997</ele><time>2026-04-25T16:20:01.662Z</time></trkpt><trkpt lat="45.3590147" lon="7.9049801"><ele>228.4</ele><time>2026-04-25T16:20:03.662Z</time></trkpt><trkpt lat="45.359115" lon="7.9049458"><ele>228.2</ele><time>2026-04-25T16:20:05.662Z</time></trkpt><trkpt lat="45.3592129" lon="7.9049362"><ele>228.0</ele><time>2026-04-25T16:20:07.662Z</time></trkpt><trkpt lat="45.359313" lon="7.9049264"><ele>228.0</ele><time>2026-04-25T16:20:09.663Z</time></trkpt><trkpt lat="45.3594285" lon="7.9048928"><ele>228.0</ele><time>2026-04-25T16:20:11.663Z</time></trkpt><trkpt lat="45.3595345" lon="7.9048702"><ele>228.0</ele><time>2026-04-25T16:20:13.662Z</time></trkpt><trkpt lat="45.3596302" lon="7.9048288"><ele>228.0</ele><time>2026-04-25T16:20:15.662Z</time></trkpt><trkpt lat="45.3597266" lon="7.9048"><ele>228.0</ele><time>2026-04-25T16:20:17.662Z</time></trkpt><trkpt lat="45.3598312" lon="7.9047552"><ele>228.0</ele><time>2026-04-25T16:20:19.662Z</time></trkpt><trkpt lat="45.359918" lon="7.9046888"><ele>228.0</ele><time>2026-04-25T16:20:21.663Z</time></trkpt><trkpt lat="45.3599913" lon="7.9046228"><ele>228.0</ele><time>2026-04-25T16:20:23.664Z</time></trkpt><trkpt lat="45.3600541" lon="7.9045567"><ele>228.0</ele><time>2026-04-25T16:20:25.663Z</time></trkpt><trkpt lat="45.3601244" lon="7.9044957"><ele>228.0</ele><time>2026-04-25T16:20:27.663Z</time></trkpt><trkpt lat="45.3602161" lon="7.904457"><ele>228.0</ele><time>2026-04-25T16:20:29.663Z</time></trkpt><trkpt lat="45.3603004" lon="7.904429"><ele>228.0</ele><time>2026-04-25T16:20:31.663Z</time></trkpt><trkpt lat="45.3603812" lon="7.9044034"><ele>227.99999999999997</ele><time>2026-04-25T16:20:33.664Z</time></trkpt><trkpt lat="45.3604575" lon="7.904384"><ele>228.0</ele><time>2026-04-25T16:20:35.664Z</time></trkpt><trkpt lat="45.360528" lon="7.9043703"><ele>228.0</ele><time>2026-04-25T16:20:37.664Z</time></trkpt><trkpt lat="45.3605923" lon="7.9043524"><ele>227.99999999999997</ele><time>2026-04-25T16:20:39.664Z</time></trkpt><trkpt lat="45.3606583" lon="7.904333"><ele>228.0</ele><time>2026-04-25T16:20:41.663Z</time></trkpt><trkpt lat="45.3607348" lon="7.9043239"><ele>228.0</ele><time>2026-04-25T16:20:43.664Z</time></trkpt><trkpt lat="45.3608145" lon="7.904307"><ele>228.0</ele><time>2026-04-25T16:20:45.663Z</time></trkpt><trkpt lat="45.3608929" lon="7.9042954"><ele>228.0</ele><time>2026-04-25T16:20:47.663Z</time></trkpt><trkpt lat="45.3609862" lon="7.9042782"><ele>228.0</ele><time>2026-04-25T16:20:49.663Z</time></trkpt><trkpt lat="45.361095" lon="7.904253"><ele>228.0</ele><time>2026-04-25T16:20:51.663Z</time></trkpt><trkpt lat="45.3612129" lon="7.9042285"><ele>228.0</ele><time>2026-04-25T16:20:53.663Z</time></trkpt><trkpt lat="45.36133" lon="7.9042023"><ele>228.0</ele><time>2026-04-25T16:20:55.663Z</time></trkpt><trkpt lat="45.3614368" lon="7.90418"><ele>228.0</ele><time>2026-04-25T16:20:57.663Z</time></trkpt><trkpt lat="45.36154" lon="7.9041558"><ele>228.0</ele><time>2026-04-25T16:20:59.663Z</time></trkpt><trkpt lat="45.3616283" lon="7.9041384"><ele>228.0</ele><time>2026-04-25T16:21:01.663Z</time></trkpt><trkpt lat="45.3617036" lon="7.9041272"><ele>228.0</ele><time>2026-04-25T16:21:03.663Z</time></trkpt><trkpt lat="45.3617784" lon="7.9041156"><ele>228.0</ele><time>2026-04-25T16:21:05.665Z</time></trkpt><trkpt lat="45.3618775" lon="7.9041212"><ele>228.0</ele><time>2026-04-25T16:21:07.664Z</time></trkpt><trkpt lat="45.3619756" lon="7.9041288"><ele>228.0</ele><time>2026-04-25T16:21:09.664Z</time></trkpt><trkpt lat="45.3620646" lon="7.9041394"><ele>228.0</ele><time>2026-04-25T16:21:11.664Z</time></trkpt><trkpt lat="45.3621635" lon="7.9041607"><ele>228.0</ele><time>2026-04-25T16:21:13.664Z</time></trkpt><trkpt lat="45.3622664" lon="7.904206"><ele>228.2</ele><time>2026-04-25T16:21:15.665Z</time></trkpt><trkpt lat="45.3623669" lon="7.9042584"><ele>228.4</ele><time>2026-04-25T16:21:17.664Z</time></trkpt><trkpt lat="45.3624544" lon="7.9043274"><ele>228.59999999999997</ele><time>2026-04-25T16:21:19.664Z</time></trkpt><trkpt lat="45.3625358" lon="7.9043957"><ele>228.79999999999998</ele><time>2026-04-25T16:21:21.664Z</time></trkpt><trkpt lat="45.362613" lon="7.9044554"><ele>229.0</ele><time>2026-04-25T16:21:23.665Z</time></trkpt><trkpt lat="45.3626824" lon="7.9045149"><ele>228.99999999999997</ele><time>2026-04-25T16:21:25.664Z</time></trkpt><trkpt lat="45.3627443" lon="7.9045656"><ele>229.0</ele><time>2026-04-25T16:21:27.664Z</time></trkpt><trkpt lat="45.3628071" lon="7.9046299"><ele>229.0</ele><time>2026-04-25T16:21:29.665Z</time></trkpt><trkpt lat="45.3628829" lon="7.9047128"><ele>229.0</ele><time>2026-04-25T16:21:31.664Z</time></trkpt><trkpt lat="45.362949" lon="7.9047912"><ele>228.99999999999997</ele><time>2026-04-25T16:21:33.664Z</time></trkpt><trkpt lat="45.3630127" lon="7.9048173"><ele>229.0</ele><time>2026-04-25T16:21:35.664Z</time></trkpt><trkpt lat="45.3630826" lon="7.9048026"><ele>228.79999999999998</ele><time>2026-04-25T16:21:37.664Z</time></trkpt><trkpt lat="45.3631558" lon="7.9047025"><ele>228.59999999999997</ele><time>2026-04-25T16:21:39.664Z</time></trkpt><trkpt lat="45.3632145" lon="7.9045707"><ele>228.4</ele><time>2026-04-25T16:21:41.664Z</time></trkpt><trkpt lat="45.3632644" lon="7.9044445"><ele>228.2</ele><time>2026-04-25T16:21:43.664Z</time></trkpt><trkpt lat="45.3633233" lon="7.9042988"><ele>228.0</ele><time>2026-04-25T16:21:45.664Z</time></trkpt><trkpt lat="45.3633823" lon="7.9041454"><ele>227.75</ele><time>2026-04-25T16:21:47.664Z</time></trkpt><trkpt lat="45.3634423" lon="7.9040048"><ele>227.5</ele><time>2026-04-25T16:21:49.664Z</time></trkpt><trkpt lat="45.3634999" lon="7.9038602"><ele>227.25</ele><time>2026-04-25T16:21:51.665Z</time></trkpt><trkpt lat="45.3635586" lon="7.9037076"><ele>227.0</ele><time>2026-04-25T16:21:53.665Z</time></trkpt><trkpt lat="45.3636263" lon="7.9035625"><ele>227.0</ele><time>2026-04-25T16:21:55.665Z</time></trkpt><trkpt lat="45.3636946" lon="7.9034186"><ele>227.0</ele><time>2026-04-25T16:21:57.665Z</time></trkpt><trkpt lat="45.363771" lon="7.9032791"><ele>227.0</ele><time>2026-04-25T16:21:59.666Z</time></trkpt><trkpt lat="45.3638512" lon="7.90314"><ele>227.0</ele><time>2026-04-25T16:22:01.666Z</time></trkpt><trkpt lat="45.3639362" lon="7.9030095"><ele>227.25</ele><time>2026-04-25T16:22:03.665Z</time></trkpt><trkpt lat="45.3640175" lon="7.9028823"><ele>227.5</ele><time>2026-04-25T16:22:05.665Z</time></trkpt><trkpt lat="45.3641027" lon="7.9027672"><ele>227.75</ele><time>2026-04-25T16:22:07.665Z</time></trkpt><trkpt lat="45.3641873" lon="7.9026607"><ele>228.0</ele><time>2026-04-25T16:22:09.665Z</time></trkpt><trkpt lat="45.3642822" lon="7.9025523"><ele>228.0</ele><time>2026-04-25T16:22:11.665Z</time></trkpt><trkpt lat="45.3643353" lon="7.902495"><ele>228.0</ele><time>2026-04-25T16:22:12.665Z</time></trkpt><trkpt lat="45.3643873" lon="7.9024434"><ele>228.0</ele><time>2026-04-25T16:22:13.665Z</time></trkpt><trkpt lat="45.3644401" lon="7.9023901"><ele>228.0</ele><time>2026-04-25T16:22:14.665Z</time></trkpt><trkpt lat="45.3645434" lon="7.9022934"><ele>228.0</ele><time>2026-04-25T16:22:16.665Z</time></trkpt><trkpt lat="45.364646" lon="7.9022079"><ele>228.0</ele><time>2026-04-25T16:22:18.665Z</time></trkpt><trkpt lat="45.3647415" lon="7.9021318"><ele>228.16666666666666</ele><time>2026-04-25T16:22:20.666Z</time></trkpt><trkpt lat="45.3648367" lon="7.9020631"><ele>228.33333333333331</ele><time>2026-04-25T16:22:22.665Z</time></trkpt><trkpt lat="45.3649441" lon="7.9019871"><ele>228.5</ele><time>2026-04-25T16:22:24.666Z</time></trkpt><trkpt lat="45.3650033" lon="7.901947"><ele>228.66666666666666</ele><time>2026-04-25T16:22:25.665Z</time></trkpt><trkpt lat="45.3650618" lon="7.9019114"><ele>228.83333333333331</ele><time>2026-04-25T16:22:26.665Z</time></trkpt><trkpt lat="45.3651197" lon="7.9018742"><ele>229.0</ele><time>2026-04-25T16:22:27.665Z</time></trkpt><trkpt lat="45.3651776" lon="7.9018351"><ele>229.0</ele><time>2026-04-25T16:22:28.665Z</time></trkpt><trkpt lat="45.3652341" lon="7.9017946"><ele>228.99999999999997</ele><time>2026-04-25T16:22:29.665Z</time></trkpt><trkpt lat="45.3653454" lon="7.9017217"><ele>228.99999999999997</ele><time>2026-04-25T16:22:31.665Z</time></trkpt><trkpt lat="45.365454" lon="7.9016547"><ele>229.0</ele><time>2026-04-25T16:22:33.665Z</time></trkpt><trkpt lat="45.3655542" lon="7.901587"><ele>229.0</ele><time>2026-04-25T16:22:35.666Z</time></trkpt><trkpt lat="45.3656505" lon="7.901524"><ele>229.0</ele><time>2026-04-25T16:22:37.666Z</time></trkpt><trkpt lat="45.3657476" lon="7.9014614"><ele>229.0</ele><time>2026-04-25T16:22:39.666Z</time></trkpt><trkpt lat="45.3658562" lon="7.9013885"><ele>229.0</ele><time>2026-04-25T16:22:41.666Z</time></trkpt><trkpt lat="45.365969" lon="7.9013186"><ele>229.0</ele><time>2026-04-25T16:22:43.666Z</time></trkpt><trkpt lat="45.3660661" lon="7.9012469"><ele>229.0</ele><time>2026-04-25T16:22:45.667Z</time></trkpt><trkpt lat="45.3661597" lon="7.9011865"><ele>228.99999999999997</ele><time>2026-04-25T16:22:47.666Z</time></trkpt><trkpt lat="45.3662504" lon="7.9011232"><ele>228.99999999999997</ele><time>2026-04-25T16:22:49.667Z</time></trkpt><trkpt lat="45.3663432" lon="7.9010674"><ele>229.0</ele><time>2026-04-25T16:22:51.666Z</time></trkpt><trkpt lat="45.3664531" lon="7.9010102"><ele>229.0</ele><time>2026-04-25T16:22:53.666Z</time></trkpt><trkpt lat="45.366569" lon="7.9009454"><ele>229.25</ele><time>2026-04-25T16:22:55.666Z</time></trkpt><trkpt lat="45.3666814" lon="7.9008854"><ele>229.5</ele><time>2026-04-25T16:22:57.666Z</time></trkpt><trkpt lat="45.3667941" lon="7.9008343"><ele>229.75</ele><time>2026-04-25T16:22:59.667Z</time></trkpt><trkpt lat="45.3669002" lon="7.9007743"><ele>230.0</ele><time>2026-04-25T16:23:01.666Z</time></trkpt><trkpt lat="45.3670022" lon="7.9007307"><ele>230.0</ele><time>2026-04-25T16:23:03.667Z</time></trkpt><trkpt lat="45.3671232" lon="7.9006886"><ele>230.0</ele><time>2026-04-25T16:23:05.666Z</time></trkpt><trkpt lat="45.36724" lon="7.9006361"><ele>230.0</ele><time>2026-04-25T16:23:07.666Z</time></trkpt><trkpt lat="45.367353" lon="7.9005871"><ele>230.0</ele><time>2026-04-25T16:23:09.666Z</time></trkpt><trkpt lat="45.3674586" lon="7.9005468"><ele>230.2</ele><time>2026-04-25T16:23:11.666Z</time></trkpt><trkpt lat="45.3675574" lon="7.9004993"><ele>230.4</ele><time>2026-04-25T16:23:13.666Z</time></trkpt><trkpt lat="45.3676543" lon="7.900459"><ele>230.60000000000002</ele><time>2026-04-25T16:23:15.667Z</time></trkpt><trkpt lat="45.3677498" lon="7.9004173"><ele>230.8</ele><time>2026-04-25T16:23:17.667Z</time></trkpt><trkpt lat="45.3678649" lon="7.9003669"><ele>231.0</ele><time>2026-04-25T16:23:19.666Z</time></trkpt><trkpt lat="45.3679842" lon="7.9003162"><ele>230.75</ele><time>2026-04-25T16:23:21.668Z</time></trkpt><trkpt lat="45.3681018" lon="7.900271"><ele>230.5</ele><time>2026-04-25T16:23:23.668Z</time></trkpt><trkpt lat="45.3682168" lon="7.9002175"><ele>230.25</ele><time>2026-04-25T16:23:25.668Z</time></trkpt><trkpt lat="45.368328" lon="7.9001738"><ele>230.0</ele><time>2026-04-25T16:23:27.667Z</time></trkpt><trkpt lat="45.3684411" lon="7.9001191"><ele>230.0</ele><time>2026-04-25T16:23:29.667Z</time></trkpt><trkpt lat="45.3685472" lon="7.9000763"><ele>230.0</ele><time>2026-04-25T16:23:31.667Z</time></trkpt><trkpt lat="45.368646" lon="7.9000314"><ele>230.0</ele><time>2026-04-25T16:23:33.667Z</time></trkpt><trkpt lat="45.3687398" lon="7.8999927"><ele>230.0</ele><time>2026-04-25T16:23:35.667Z</time></trkpt><trkpt lat="45.3688279" lon="7.899952"><ele>230.0</ele><time>2026-04-25T16:23:37.667Z</time></trkpt><trkpt lat="45.368914" lon="7.8999113"><ele>230.0</ele><time>2026-04-25T16:23:39.668Z</time></trkpt><trkpt lat="45.3689937" lon="7.8998782"><ele>230.0</ele><time>2026-04-25T16:23:41.668Z</time></trkpt><trkpt lat="45.3690685" lon="7.8998506"><ele>230.0</ele><time>2026-04-25T16:23:43.667Z</time></trkpt><trkpt lat="45.3691434" lon="7.8998173"><ele>230.0</ele><time>2026-04-25T16:23:45.668Z</time></trkpt><trkpt lat="45.3692405" lon="7.8997724"><ele>230.0</ele><time>2026-04-25T16:23:47.668Z</time></trkpt><trkpt lat="45.3693559" lon="7.8997155"><ele>230.00000000000003</ele><time>2026-04-25T16:23:49.668Z</time></trkpt><trkpt lat="45.3694179" lon="7.8996863"><ele>230.0</ele><time>2026-04-25T16:23:50.667Z</time></trkpt><trkpt lat="45.369479" lon="7.8996612"><ele>230.0</ele><time>2026-04-25T16:23:51.667Z</time></trkpt><trkpt lat="45.3695913" lon="7.899611"><ele>230.0</ele><time>2026-04-25T16:23:53.667Z</time></trkpt><trkpt lat="45.369691" lon="7.8995669"><ele>230.00000000000003</ele><time>2026-04-25T16:23:55.667Z</time></trkpt><trkpt lat="45.3697845" lon="7.8995254"><ele>230.0</ele><time>2026-04-25T16:23:57.668Z</time></trkpt><trkpt lat="45.3698705" lon="7.8994748"><ele>230.16666666666669</ele><time>2026-04-25T16:23:59.668Z</time></trkpt><trkpt lat="45.3699535" lon="7.8994316"><ele>230.33333333333334</ele><time>2026-04-25T16:24:01.667Z</time></trkpt><trkpt lat="45.3700273" lon="7.899388"><ele>230.5</ele><time>2026-04-25T16:24:03.667Z</time></trkpt><trkpt lat="45.3701027" lon="7.8993535"><ele>230.66666666666669</ele><time>2026-04-25T16:24:05.668Z</time></trkpt><trkpt lat="45.3701697" lon="7.8993004"><ele>230.83333333333334</ele><time>2026-04-25T16:24:07.669Z</time></trkpt><trkpt lat="45.3702414" lon="7.8992516"><ele>231.0</ele><time>2026-04-25T16:24:09.668Z</time></trkpt><trkpt lat="45.3703216" lon="7.899202"><ele>231.0</ele><time>2026-04-25T16:24:11.669Z</time></trkpt><trkpt lat="45.3704012" lon="7.8991413"><ele>231.0</ele><time>2026-04-25T16:24:13.668Z</time></trkpt><trkpt lat="45.3704731" lon="7.899073"><ele>231.0</ele><time>2026-04-25T16:24:15.669Z</time></trkpt><trkpt lat="45.3705399" lon="7.8990135"><ele>231.0</ele><time>2026-04-25T16:24:17.668Z</time></trkpt><trkpt lat="45.3706026" lon="7.898956"><ele>231.0</ele><time>2026-04-25T16:24:19.668Z</time></trkpt><trkpt lat="45.3706745" lon="7.8989026"><ele>231.0</ele><time>2026-04-25T16:24:21.668Z</time></trkpt><trkpt lat="45.3707489" lon="7.8988477"><ele>231.0</ele><time>2026-04-25T16:24:23.668Z</time></trkpt><trkpt lat="45.370827" lon="7.8987671"><ele>231.0</ele><time>2026-04-25T16:24:25.668Z</time></trkpt><trkpt lat="45.3708985" lon="7.8986929"><ele>231.0</ele><time>2026-04-25T16:24:27.668Z</time></trkpt><trkpt lat="45.3709662" lon="7.8986213"><ele>231.0</ele><time>2026-04-25T16:24:29.668Z</time></trkpt><trkpt lat="45.3710293" lon="7.8985554"><ele>231.0</ele><time>2026-04-25T16:24:31.668Z</time></trkpt><trkpt lat="45.3711025" lon="7.8984871"><ele>231.0</ele><time>2026-04-25T16:24:33.668Z</time></trkpt><trkpt lat="45.3711799" lon="7.8983951"><ele>231.0</ele><time>2026-04-25T16:24:35.668Z</time></trkpt><trkpt lat="45.3712502" lon="7.8982945"><ele>231.00000000000003</ele><time>2026-04-25T16:24:37.668Z</time></trkpt><trkpt lat="45.37132" lon="7.8982106"><ele>231.00000000000003</ele><time>2026-04-25T16:24:39.668Z</time></trkpt><trkpt lat="45.3713857" lon="7.8981349"><ele>231.0</ele><time>2026-04-25T16:24:41.668Z</time></trkpt><trkpt lat="45.3714477" lon="7.8980538"><ele>231.0</ele><time>2026-04-25T16:24:43.669Z</time></trkpt><trkpt lat="45.3715227" lon="7.8979491"><ele>231.16666666666666</ele><time>2026-04-25T16:24:45.669Z</time></trkpt><trkpt lat="45.371589" lon="7.8978438"><ele>231.33333333333331</ele><time>2026-04-25T16:24:47.668Z</time></trkpt><trkpt lat="45.3716515" lon="7.8977566"><ele>231.5</ele><time>2026-04-25T16:24:49.67Z</time></trkpt><trkpt lat="45.3717038" lon="7.8976699"><ele>231.66666666666666</ele><time>2026-04-25T16:24:51.669Z</time></trkpt><trkpt lat="45.3717559" lon="7.8975738"><ele>231.83333333333331</ele><time>2026-04-25T16:24:53.67Z</time></trkpt><trkpt lat="45.371815" lon="7.8974854"><ele>232.0</ele><time>2026-04-25T16:24:55.669Z</time></trkpt><trkpt lat="45.3718732" lon="7.8974215"><ele>231.99999999999997</ele><time>2026-04-25T16:24:57.67Z</time></trkpt><trkpt lat="45.3719257" lon="7.8973413"><ele>232.0</ele><time>2026-04-25T16:24:59.669Z</time></trkpt><trkpt lat="45.3719817" lon="7.8972681"><ele>232.0</ele><time>2026-04-25T16:25:01.669Z</time></trkpt><trkpt lat="45.3720408" lon="7.8972013"><ele>232.0</ele><time>2026-04-25T16:25:03.669Z</time></trkpt><trkpt lat="45.3720885" lon="7.8971294"><ele>231.99999999999997</ele><time>2026-04-25T16:25:05.669Z</time></trkpt><trkpt lat="45.3721492" lon="7.8970687"><ele>232.0</ele><time>2026-04-25T16:25:07.669Z</time></trkpt><trkpt lat="45.3722169" lon="7.8969983"><ele>231.99999999999997</ele><time>2026-04-25T16:25:09.669Z</time></trkpt><trkpt lat="45.3722864" lon="7.896914"><ele>232.0</ele><time>2026-04-25T16:25:11.669Z</time></trkpt><trkpt lat="45.3723523" lon="7.8968419"><ele>232.0</ele><time>2026-04-25T16:25:13.669Z</time></trkpt><trkpt lat="45.3724218" lon="7.8967786"><ele>232.0</ele><time>2026-04-25T16:25:15.669Z</time></trkpt><trkpt lat="45.3724942" lon="7.8967114"><ele>231.99999999999997</ele><time>2026-04-25T16:25:17.669Z</time></trkpt><trkpt lat="45.3725784" lon="7.8966232"><ele>232.0</ele><time>2026-04-25T16:25:19.669Z</time></trkpt><trkpt lat="45.3726685" lon="7.8965398"><ele>232.0</ele><time>2026-04-25T16:25:21.669Z</time></trkpt><trkpt lat="45.3727594" lon="7.8964662"><ele>232.0</ele><time>2026-04-25T16:25:23.669Z</time></trkpt><trkpt lat="45.3728446" lon="7.8963985"><ele>232.0</ele><time>2026-04-25T16:25:25.67Z</time></trkpt><trkpt lat="45.3729275" lon="7.8963316"><ele>232.0</ele><time>2026-04-25T16:25:27.669Z</time></trkpt><trkpt lat="45.3730104" lon="7.8962779"><ele>232.0</ele><time>2026-04-25T16:25:29.669Z</time></trkpt><trkpt lat="45.3730891" lon="7.8962228"><ele>232.0</ele><time>2026-04-25T16:25:31.669Z</time></trkpt><trkpt lat="45.3731609" lon="7.8961697"><ele>232.0</ele><time>2026-04-25T16:25:33.669Z</time></trkpt><trkpt lat="45.3732484" lon="7.896122"><ele>232.0</ele><time>2026-04-25T16:25:35.671Z</time></trkpt><trkpt lat="45.3733459" lon="7.8960736"><ele>232.0</ele><time>2026-04-25T16:25:37.67Z</time></trkpt><trkpt lat="45.3734389" lon="7.8960274"><ele>232.0</ele><time>2026-04-25T16:25:39.67Z</time></trkpt><trkpt lat="45.3735284" lon="7.8959837"><ele>232.0</ele><time>2026-04-25T16:25:41.67Z</time></trkpt><trkpt lat="45.37362" lon="7.8959391"><ele>232.0</ele><time>2026-04-25T16:25:43.67Z</time></trkpt><trkpt lat="45.3737189" lon="7.8958927"><ele>232.0</ele><time>2026-04-25T16:25:45.67Z</time></trkpt><trkpt lat="45.3738213" lon="7.8958531"><ele>232.0</ele><time>2026-04-25T16:25:47.67Z</time></trkpt><trkpt lat="45.3739225" lon="7.8958141"><ele>232.0</ele><time>2026-04-25T16:25:49.67Z</time></trkpt><trkpt lat="45.3740332" lon="7.8957732"><ele>232.0</ele><time>2026-04-25T16:25:51.67Z</time></trkpt><trkpt lat="45.3741392" lon="7.8957444"><ele>232.0</ele><time>2026-04-25T16:25:53.67Z</time></trkpt><trkpt lat="45.3742337" lon="7.895715"><ele>232.0</ele><time>2026-04-25T16:25:55.671Z</time></trkpt><trkpt lat="45.3743222" lon="7.8956848"><ele>232.0</ele><time>2026-04-25T16:25:57.67Z</time></trkpt><trkpt lat="45.3744278" lon="7.8956501"><ele>232.0</ele><time>2026-04-25T16:25:59.67Z</time></trkpt><trkpt lat="45.3745294" lon="7.8956136"><ele>232.0</ele><time>2026-04-25T16:26:01.67Z</time></trkpt><trkpt lat="45.3746256" lon="7.8955781"><ele>232.0</ele><time>2026-04-25T16:26:03.67Z</time></trkpt><trkpt lat="45.3747316" lon="7.895532"><ele>232.0</ele><time>2026-04-25T16:26:05.67Z</time></trkpt><trkpt lat="45.3748402" lon="7.8954859"><ele>232.0</ele><time>2026-04-25T16:26:07.67Z</time></trkpt><trkpt lat="45.3749404" lon="7.8954442"><ele>232.0</ele><time>2026-04-25T16:26:09.67Z</time></trkpt><trkpt lat="45.3750394" lon="7.8953964"><ele>232.0</ele><time>2026-04-25T16:26:11.67Z</time></trkpt><trkpt lat="45.3751321" lon="7.8953531"><ele>232.0</ele><time>2026-04-25T16:26:13.67Z</time></trkpt><trkpt lat="45.3752229" lon="7.8953013"><ele>232.0</ele><time>2026-04-25T16:26:15.67Z</time></trkpt><trkpt lat="45.3753192" lon="7.8952458"><ele>232.0</ele><time>2026-04-25T16:26:17.671Z</time></trkpt><trkpt lat="45.3754096" lon="7.8951934"><ele>232.0</ele><time>2026-04-25T16:26:19.672Z</time></trkpt><trkpt lat="45.3754943" lon="7.8951375"><ele>232.16666666666666</ele><time>2026-04-25T16:26:21.671Z</time></trkpt><trkpt lat="45.3755774" lon="7.8950837"><ele>232.33333333333331</ele><time>2026-04-25T16:26:23.671Z</time></trkpt><trkpt lat="45.3756584" lon="7.8950278"><ele>232.5</ele><time>2026-04-25T16:26:25.671Z</time></trkpt><trkpt lat="45.3757386" lon="7.8949707"><ele>232.66666666666669</ele><time>2026-04-25T16:26:27.671Z</time></trkpt><trkpt lat="45.3758209" lon="7.8949191"><ele>232.83333333333334</ele><time>2026-04-25T16:26:29.671Z</time></trkpt><trkpt lat="45.3758956" lon="7.8948633"><ele>233.0</ele><time>2026-04-25T16:26:31.671Z</time></trkpt><trkpt lat="45.375974" lon="7.8948111"><ele>233.00000000000003</ele><time>2026-04-25T16:26:33.671Z</time></trkpt><trkpt lat="45.3760481" lon="7.8947633"><ele>233.0</ele><time>2026-04-25T16:26:35.671Z</time></trkpt><trkpt lat="45.3761211" lon="7.8947094"><ele>233.0</ele><time>2026-04-25T16:26:37.671Z</time></trkpt><trkpt lat="45.3761973" lon="7.8946605"><ele>233.0</ele><time>2026-04-25T16:26:39.671Z</time></trkpt><trkpt lat="45.3762626" lon="7.8946204"><ele>233.00000000000003</ele><time>2026-04-25T16:26:41.671Z</time></trkpt><trkpt lat="45.3763317" lon="7.894587"><ele>233.0</ele><time>2026-04-25T16:26:43.671Z</time></trkpt><trkpt lat="45.3764147" lon="7.894587"><ele>232.60000000000002</ele><time>2026-04-25T16:26:45.671Z</time></trkpt><trkpt lat="45.3765035" lon="7.8946265"><ele>232.20000000000002</ele><time>2026-04-25T16:26:47.671Z</time></trkpt><trkpt lat="45.3766124" lon="7.8946529"><ele>231.8</ele><time>2026-04-25T16:26:49.672Z</time></trkpt><trkpt lat="45.3767249" lon="7.8945963"><ele>231.4</ele><time>2026-04-25T16:26:51.671Z</time></trkpt><trkpt lat="45.376812" lon="7.8944857"><ele>231.0</ele><time>2026-04-25T16:26:53.671Z</time></trkpt><trkpt lat="45.3768993" lon="7.894367"><ele>231.0</ele><time>2026-04-25T16:26:55.671Z</time></trkpt><trkpt lat="45.3770014" lon="7.8942962"><ele>231.0</ele><time>2026-04-25T16:26:57.671Z</time></trkpt><trkpt lat="45.3771114" lon="7.8942601"><ele>231.0</ele><time>2026-04-25T16:26:59.671Z</time></trkpt><trkpt lat="45.3772237" lon="7.8942416"><ele>231.0</ele><time>2026-04-25T16:27:01.671Z</time></trkpt><trkpt lat="45.3773333" lon="7.8942247"><ele>231.75</ele><time>2026-04-25T16:27:03.671Z</time></trkpt><trkpt lat="45.3774504" lon="7.8942164"><ele>232.5</ele><time>2026-04-25T16:27:05.673Z</time></trkpt><trkpt lat="45.377569" lon="7.8942159"><ele>233.25</ele><time>2026-04-25T16:27:07.672Z</time></trkpt><trkpt lat="45.3776902" lon="7.8942002"><ele>234.0</ele><time>2026-04-25T16:27:09.672Z</time></trkpt><trkpt lat="45.3778109" lon="7.8941928"><ele>234.0</ele><time>2026-04-25T16:27:11.672Z</time></trkpt><trkpt lat="45.3779295" lon="7.8941806"><ele>234.0</ele><time>2026-04-25T16:27:13.672Z</time></trkpt><trkpt lat="45.3780478" lon="7.8941647"><ele>234.0</ele><time>2026-04-25T16:27:15.672Z</time></trkpt><trkpt lat="45.3781609" lon="7.8941521"><ele>234.0</ele><time>2026-04-25T16:27:17.672Z</time></trkpt><trkpt lat="45.3782747" lon="7.8941212"><ele>233.6</ele><time>2026-04-25T16:27:19.672Z</time></trkpt><trkpt lat="45.3783779" lon="7.8940817"><ele>233.2</ele><time>2026-04-25T16:27:21.672Z</time></trkpt><trkpt lat="45.3784794" lon="7.8940404"><ele>232.79999999999998</ele><time>2026-04-25T16:27:23.672Z</time></trkpt><trkpt lat="45.3785794" lon="7.8939803"><ele>232.39999999999998</ele><time>2026-04-25T16:27:25.672Z</time></trkpt><trkpt lat="45.3786488" lon="7.8939351"><ele>232.0</ele><time>2026-04-25T16:27:27.672Z</time></trkpt><trkpt lat="45.3787112" lon="7.8939003"><ele>231.99999999999997</ele><time>2026-04-25T16:27:50.673Z</time></trkpt><trkpt lat="45.3787808" lon="7.893859"><ele>232.0</ele><time>2026-04-25T16:27:53.674Z</time></trkpt><trkpt lat="45.3788401" lon="7.8938031"><ele>232.0</ele><time>2026-04-25T16:27:55.673Z</time></trkpt><trkpt lat="45.378902" lon="7.8937561"><ele>232.0</ele><time>2026-04-25T16:27:57.673Z</time></trkpt><trkpt lat="45.3789711" lon="7.8937184"><ele>231.99999999999997</ele><time>2026-04-25T16:27:59.673Z</time></trkpt><trkpt lat="45.379044" lon="7.8936667"><ele>232.0</ele><time>2026-04-25T16:28:01.673Z</time></trkpt><trkpt lat="45.3791188" lon="7.8936276"><ele>232.33333333333331</ele><time>2026-04-25T16:28:03.673Z</time></trkpt><trkpt lat="45.3792077" lon="7.8935803"><ele>232.66666666666666</ele><time>2026-04-25T16:28:05.673Z</time></trkpt><trkpt lat="45.3792885" lon="7.893527"><ele>233.0</ele><time>2026-04-25T16:28:07.674Z</time></trkpt><trkpt lat="45.3793713" lon="7.8934821"><ele>233.33333333333331</ele><time>2026-04-25T16:28:09.673Z</time></trkpt><trkpt lat="45.3794542" lon="7.8934394"><ele>233.66666666666666</ele><time>2026-04-25T16:28:11.673Z</time></trkpt><trkpt lat="45.3795335" lon="7.8933856"><ele>234.0</ele><time>2026-04-25T16:28:13.673Z</time></trkpt><trkpt lat="45.3796174" lon="7.8933172"><ele>234.16666666666666</ele><time>2026-04-25T16:28:15.673Z</time></trkpt><trkpt lat="45.3797016" lon="7.8932505"><ele>234.33333333333331</ele><time>2026-04-25T16:28:17.673Z</time></trkpt><trkpt lat="45.3797796" lon="7.8931841"><ele>234.5</ele><time>2026-04-25T16:28:19.674Z</time></trkpt><trkpt lat="45.3798311" lon="7.8931081"><ele>234.66666666666666</ele><time>2026-04-25T16:28:21.673Z</time></trkpt><trkpt lat="45.3798962" lon="7.8930473"><ele>234.83333333333331</ele><time>2026-04-25T16:28:23.673Z</time></trkpt><trkpt lat="45.3799577" lon="7.8929905"><ele>235.0</ele><time>2026-04-25T16:28:25.674Z</time></trkpt><trkpt lat="45.3800247" lon="7.8929285"><ele>234.99999999999997</ele><time>2026-04-25T16:28:27.673Z</time></trkpt><trkpt lat="45.3800958" lon="7.8928636"><ele>235.0</ele><time>2026-04-25T16:28:29.673Z</time></trkpt><trkpt lat="45.3801658" lon="7.8928125"><ele>235.0</ele><time>2026-04-25T16:28:31.673Z</time></trkpt><trkpt lat="45.3802347" lon="7.8927998"><ele>235.0</ele><time>2026-04-25T16:28:33.673Z</time></trkpt><trkpt lat="45.3803013" lon="7.8927928"><ele>234.99999999999997</ele><time>2026-04-25T16:28:35.675Z</time></trkpt><trkpt lat="45.3803714" lon="7.8927337"><ele>235.0</ele><time>2026-04-25T16:28:37.674Z</time></trkpt><trkpt lat="45.380427" lon="7.8926198"><ele>234.8</ele><time>2026-04-25T16:28:39.674Z</time></trkpt><trkpt lat="45.3804626" lon="7.8924888"><ele>234.6</ele><time>2026-04-25T16:28:41.674Z</time></trkpt><trkpt lat="45.3804947" lon="7.892365"><ele>234.39999999999998</ele><time>2026-04-25T16:28:43.674Z</time></trkpt><trkpt lat="45.3805325" lon="7.8922419"><ele>234.2</ele><time>2026-04-25T16:28:45.674Z</time></trkpt><trkpt lat="45.3805685" lon="7.8921253"><ele>234.0</ele><time>2026-04-25T16:28:47.674Z</time></trkpt><trkpt lat="45.3805912" lon="7.8919998"><ele>234.16666666666666</ele><time>2026-04-25T16:28:49.674Z</time></trkpt><trkpt lat="45.3806084" lon="7.8918824"><ele>234.33333333333331</ele><time>2026-04-25T16:28:51.674Z</time></trkpt><trkpt lat="45.3806242" lon="7.8917536"><ele>234.5</ele><time>2026-04-25T16:28:53.674Z</time></trkpt><trkpt lat="45.3806337" lon="7.8916283"><ele>234.66666666666666</ele><time>2026-04-25T16:28:55.675Z</time></trkpt><trkpt lat="45.3806453" lon="7.8914953"><ele>234.83333333333331</ele><time>2026-04-25T16:28:57.674Z</time></trkpt><trkpt lat="45.3806463" lon="7.8913756"><ele>235.0</ele><time>2026-04-25T16:28:59.674Z</time></trkpt><trkpt lat="45.3806467" lon="7.8912371"><ele>235.0</ele><time>2026-04-25T16:29:01.674Z</time></trkpt><trkpt lat="45.3806529" lon="7.8911097"><ele>235.0</ele><time>2026-04-25T16:29:03.674Z</time></trkpt><trkpt lat="45.3806576" lon="7.8909863"><ele>235.0</ele><time>2026-04-25T16:29:05.674Z</time></trkpt><trkpt lat="45.3806672" lon="7.890849"><ele>235.0</ele><time>2026-04-25T16:29:07.675Z</time></trkpt><trkpt lat="45.3806812" lon="7.8907004"><ele>235.0</ele><time>2026-04-25T16:29:09.674Z</time></trkpt><trkpt lat="45.380683" lon="7.8905478"><ele>234.6</ele><time>2026-04-25T16:29:11.674Z</time></trkpt><trkpt lat="45.3806885" lon="7.8903966"><ele>234.2</ele><time>2026-04-25T16:29:13.674Z</time></trkpt><trkpt lat="45.3806892" lon="7.8902425"><ele>233.8</ele><time>2026-04-25T16:29:15.675Z</time></trkpt><trkpt lat="45.3807006" lon="7.8901004"><ele>233.4</ele><time>2026-04-25T16:29:17.674Z</time></trkpt><trkpt lat="45.38071" lon="7.8899537"><ele>233.0</ele><time>2026-04-25T16:29:19.675Z</time></trkpt><trkpt lat="45.3807179" lon="7.8898001"><ele>233.0</ele><time>2026-04-25T16:29:21.675Z</time></trkpt><trkpt lat="45.3807244" lon="7.8896524"><ele>233.0</ele><time>2026-04-25T16:29:23.675Z</time></trkpt><trkpt lat="45.3807314" lon="7.8895037"><ele>233.0</ele><time>2026-04-25T16:29:25.675Z</time></trkpt><trkpt lat="45.3807376" lon="7.8893392"><ele>233.0</ele><time>2026-04-25T16:29:27.675Z</time></trkpt><trkpt lat="45.3807568" lon="7.8891729"><ele>233.0</ele><time>2026-04-25T16:29:29.675Z</time></trkpt><trkpt lat="45.3807751" lon="7.8890205"><ele>233.0</ele><time>2026-04-25T16:29:31.676Z</time></trkpt><trkpt lat="45.3807826" lon="7.8888769"><ele>233.0</ele><time>2026-04-25T16:29:33.675Z</time></trkpt><trkpt lat="45.3807911" lon="7.8887418"><ele>233.0</ele><time>2026-04-25T16:29:35.675Z</time></trkpt><trkpt lat="45.3807969" lon="7.8885965"><ele>233.0</ele><time>2026-04-25T16:29:37.676Z</time></trkpt><trkpt lat="45.3807983" lon="7.8884563"><ele>233.0</ele><time>2026-04-25T16:29:39.676Z</time></trkpt><trkpt lat="45.3807977" lon="7.8883357"><ele>233.00000000000003</ele><time>2026-04-25T16:29:41.675Z</time></trkpt><trkpt lat="45.3808018" lon="7.8882111"><ele>233.0</ele><time>2026-04-25T16:29:43.676Z</time></trkpt><trkpt lat="45.3808041" lon="7.8880832"><ele>233.0</ele><time>2026-04-25T16:29:45.675Z</time></trkpt><trkpt lat="45.3808167" lon="7.8879823"><ele>233.0</ele><time>2026-04-25T16:29:47.675Z</time></trkpt><trkpt lat="45.3808218" lon="7.887884"><ele>233.00000000000003</ele><time>2026-04-25T16:29:51.675Z</time></trkpt><trkpt lat="45.3808485" lon="7.8878013"><ele>233.0</ele><time>2026-04-25T16:30:47.676Z</time></trkpt><trkpt lat="45.3808464" lon="7.8876907"><ele>233.00000000000003</ele><time>2026-04-25T16:30:51.677Z</time></trkpt><trkpt lat="45.380859" lon="7.8876011"><ele>233.0</ele><time>2026-04-25T16:30:54.677Z</time></trkpt><trkpt lat="45.3808708" lon="7.8874806"><ele>233.0</ele><time>2026-04-25T16:30:57.678Z</time></trkpt><trkpt lat="45.3808805" lon="7.8873649"><ele>233.0</ele><time>2026-04-25T16:31:00.677Z</time></trkpt><trkpt lat="45.3808914" lon="7.8872437"><ele>233.00000000000003</ele><time>2026-04-25T16:31:03.678Z</time></trkpt><trkpt lat="45.3808987" lon="7.887111"><ele>233.0</ele><time>2026-04-25T16:31:06.677Z</time></trkpt><trkpt lat="45.3809139" lon="7.88698"><ele>233.16666666666669</ele><time>2026-04-25T16:31:09.678Z</time></trkpt><trkpt lat="45.3809342" lon="7.8868477"><ele>233.33333333333334</ele><time>2026-04-25T16:31:12.678Z</time></trkpt><trkpt lat="45.3809595" lon="7.8867206"><ele>233.5</ele><time>2026-04-25T16:31:15.678Z</time></trkpt><trkpt lat="45.38099" lon="7.8865984"><ele>233.66666666666669</ele><time>2026-04-25T16:31:18.678Z</time></trkpt><trkpt lat="45.3810243" lon="7.8864813"><ele>233.83333333333334</ele><time>2026-04-25T16:31:21.678Z</time></trkpt><trkpt lat="45.3810461" lon="7.8863971"><ele>234.0</ele><time>2026-04-25T16:31:23.678Z</time></trkpt><trkpt lat="45.381085" lon="7.8863221"><ele>234.33333333333334</ele><time>2026-04-25T16:31:25.677Z</time></trkpt><trkpt lat="45.3811359" lon="7.8862142"><ele>234.66666666666669</ele><time>2026-04-25T16:31:28.677Z</time></trkpt><trkpt lat="45.3811992" lon="7.8861252"><ele>235.0</ele><time>2026-04-25T16:31:31.677Z</time></trkpt><trkpt lat="45.3812438" lon="7.8860556"><ele>235.33333333333334</ele><time>2026-04-25T16:31:33.677Z</time></trkpt><trkpt lat="45.3812895" lon="7.8859875"><ele>235.66666666666669</ele><time>2026-04-25T16:31:35.678Z</time></trkpt><trkpt lat="45.3813193" lon="7.8858719"><ele>236.0</ele><time>2026-04-25T16:31:37.678Z</time></trkpt><trkpt lat="45.3813357" lon="7.8857585"><ele>236.33333333333334</ele><time>2026-04-25T16:31:39.678Z</time></trkpt><trkpt lat="45.3813619" lon="7.8856725"><ele>236.66666666666669</ele><time>2026-04-25T16:31:41.678Z</time></trkpt><trkpt lat="45.3813949" lon="7.885554"><ele>237.0</ele><time>2026-04-25T16:31:44.678Z</time></trkpt><trkpt lat="45.3814305" lon="7.8854472"><ele>237.33333333333331</ele><time>2026-04-25T16:31:47.678Z</time></trkpt><trkpt lat="45.3814602" lon="7.8853488"><ele>237.66666666666666</ele><time>2026-04-25T16:31:50.678Z</time></trkpt><trkpt lat="45.3814949" lon="7.885226"><ele>238.0</ele><time>2026-04-25T16:31:53.678Z</time></trkpt><trkpt lat="45.3815133" lon="7.8851283"><ele>238.33333333333331</ele><time>2026-04-25T16:31:55.679Z</time></trkpt><trkpt lat="45.3815309" lon="7.8850349"><ele>238.66666666666666</ele><time>2026-04-25T16:31:57.679Z</time></trkpt><trkpt lat="45.3815638" lon="7.8849149"><ele>239.0</ele><time>2026-04-25T16:32:00.679Z</time></trkpt><trkpt lat="45.3815924" lon="7.8847927"><ele>239.33333333333331</ele><time>2026-04-25T16:32:03.679Z</time></trkpt><trkpt lat="45.3816174" lon="7.8847044"><ele>239.66666666666666</ele><time>2026-04-25T16:32:05.679Z</time></trkpt><trkpt lat="45.3816451" lon="7.8846144"><ele>240.0</ele><time>2026-04-25T16:32:07.678Z</time></trkpt><trkpt lat="45.3816736" lon="7.8845008"><ele>240.0</ele><time>2026-04-25T16:32:10.678Z</time></trkpt><trkpt lat="45.3816959" lon="7.8844132"><ele>240.0</ele><time>2026-04-25T16:32:12.679Z</time></trkpt><trkpt lat="45.3817137" lon="7.8843248"><ele>240.0</ele><time>2026-04-25T16:32:14.678Z</time></trkpt><trkpt lat="45.381719" lon="7.8842226"><ele>240.0</ele><time>2026-04-25T16:32:16.678Z</time></trkpt><trkpt lat="45.3817192" lon="7.8841107"><ele>240.0</ele><time>2026-04-25T16:32:18.678Z</time></trkpt><trkpt lat="45.3817359" lon="7.883997"><ele>240.0</ele><time>2026-04-25T16:32:20.679Z</time></trkpt><trkpt lat="45.3817406" lon="7.8838959"><ele>240.0</ele><time>2026-04-25T16:32:22.68Z</time></trkpt><trkpt lat="45.3817587" lon="7.8838035"><ele>239.83333333333334</ele><time>2026-04-25T16:32:24.679Z</time></trkpt><trkpt lat="45.3817703" lon="7.8837123"><ele>239.66666666666669</ele><time>2026-04-25T16:32:26.679Z</time></trkpt><trkpt lat="45.3817796" lon="7.8836223"><ele>239.5</ele><time>2026-04-25T16:32:28.679Z</time></trkpt><trkpt lat="45.3818265" lon="7.8835269"><ele>239.33333333333334</ele><time>2026-04-25T16:32:31.679Z</time></trkpt><trkpt lat="45.3818853" lon="7.8834431"><ele>239.16666666666669</ele><time>2026-04-25T16:32:34.679Z</time></trkpt><trkpt lat="45.3819324" lon="7.8833777"><ele>239.0</ele><time>2026-04-25T16:32:36.679Z</time></trkpt><trkpt lat="45.3819915" lon="7.8832752"><ele>239.50000000000003</ele><time>2026-04-25T16:32:39.679Z</time></trkpt><trkpt lat="45.3820323" lon="7.8832002"><ele>240.0</ele><time>2026-04-25T16:32:41.679Z</time></trkpt><trkpt lat="45.3820828" lon="7.8830942"><ele>240.5</ele><time>2026-04-25T16:32:44.679Z</time></trkpt><trkpt lat="45.3820786" lon="7.8829814"><ele>241.0</ele><time>2026-04-25T16:32:47.679Z</time></trkpt><trkpt lat="45.3820469" lon="7.8829017"><ele>241.50000000000003</ele><time>2026-04-25T16:32:49.68Z</time></trkpt><trkpt lat="45.382026" lon="7.8827925"><ele>242.0</ele><time>2026-04-25T16:32:51.679Z</time></trkpt><trkpt lat="45.3820125" lon="7.8826857"><ele>242.33333333333334</ele><time>2026-04-25T16:32:53.679Z</time></trkpt><trkpt lat="45.3819951" lon="7.8825974"><ele>242.66666666666669</ele><time>2026-04-25T16:32:55.679Z</time></trkpt><trkpt lat="45.3819682" lon="7.8825055"><ele>243.0</ele><time>2026-04-25T16:32:57.679Z</time></trkpt><trkpt lat="45.3819381" lon="7.8824117"><ele>243.33333333333331</ele><time>2026-04-25T16:32:59.679Z</time></trkpt><trkpt lat="45.3819046" lon="7.8822889"><ele>243.66666666666666</ele><time>2026-04-25T16:33:02.68Z</time></trkpt><trkpt lat="45.3818932" lon="7.8821778"><ele>244.0</ele><time>2026-04-25T16:33:05.681Z</time></trkpt><trkpt lat="45.3819771" lon="7.8821413"><ele>243.99999999999997</ele><time>2026-04-25T16:33:09.68Z</time></trkpt><trkpt lat="45.3820544" lon="7.8821212"><ele>244.0</ele><time>2026-04-25T16:33:11.68Z</time></trkpt><trkpt lat="45.3821417" lon="7.8821091"><ele>244.0</ele><time>2026-04-25T16:33:13.68Z</time></trkpt><trkpt lat="45.3822051" lon="7.8820815"><ele>244.0</ele><time>2026-04-25T16:33:15.68Z</time></trkpt><trkpt lat="45.382293" lon="7.882076"><ele>243.99999999999997</ele><time>2026-04-25T16:33:18.68Z</time></trkpt><trkpt lat="45.3823549" lon="7.8820495"><ele>244.0</ele><time>2026-04-25T16:33:21.68Z</time></trkpt><trkpt lat="45.3823719" lon="7.8819516"><ele>244.1428571428571</ele><time>2026-04-25T16:33:24.68Z</time></trkpt><trkpt lat="45.3823802" lon="7.8818366"><ele>244.28571428571428</ele><time>2026-04-25T16:33:28.68Z</time></trkpt><trkpt lat="45.3823788" lon="7.8817433"><ele>244.42857142857142</ele><time>2026-04-25T16:33:32.68Z</time></trkpt><trkpt lat="45.3823782" lon="7.8816528"><ele>244.57142857142856</ele><time>2026-04-25T16:34:02.681Z</time></trkpt><trkpt lat="45.3823838" lon="7.8815547"><ele>244.71428571428572</ele><time>2026-04-25T16:34:06.682Z</time></trkpt><trkpt lat="45.3823885" lon="7.8814586"><ele>244.85714285714286</ele><time>2026-04-25T16:34:09.681Z</time></trkpt><trkpt lat="45.382394" lon="7.8813516"><ele>245.0</ele><time>2026-04-25T16:37:38.778Z</time></trkpt><trkpt lat="45.3823874" lon="7.8812205"><ele>245.0</ele><time>2026-04-25T16:37:41.773Z</time></trkpt><trkpt lat="45.3823551" lon="7.881107"><ele>245.0</ele><time>2026-04-25T16:37:44.768Z</time></trkpt><trkpt lat="45.3823751" lon="7.8810049"><ele>245.0</ele><time>2026-04-25T16:37:48.84Z</time></trkpt><trkpt lat="45.3823855" lon="7.8809009"><ele>245.0</ele><time>2026-04-25T16:37:51.835Z</time></trkpt><trkpt lat="45.3823892" lon="7.8807945"><ele>245.0</ele><time>2026-04-25T16:37:53.867Z</time></trkpt><trkpt lat="45.3823973" lon="7.8806957"><ele>245.0</ele><time>2026-04-25T16:37:55.783Z</time></trkpt><trkpt lat="45.3824065" lon="7.880599"><ele>245.0</ele><time>2026-04-25T16:37:58.763Z</time></trkpt><trkpt lat="45.3824107" lon="7.8804878"><ele>244.85714285714286</ele><time>2026-04-25T16:38:06.789Z</time></trkpt><trkpt lat="45.3824016" lon="7.8803882"><ele>244.71428571428572</ele><time>2026-04-25T16:38:09.783Z</time></trkpt><trkpt lat="45.3823891" lon="7.8802777"><ele>244.57142857142856</ele><time>2026-04-25T16:38:12.778Z</time></trkpt><trkpt lat="45.3823808" lon="7.8801882"><ele>244.42857142857142</ele><time>2026-04-25T16:38:14.815Z</time></trkpt><trkpt lat="45.3823669" lon="7.880078"><ele>244.28571428571428</ele><time>2026-04-25T16:38:16.851Z</time></trkpt><trkpt lat="45.3823682" lon="7.8799675"><ele>244.1428571428571</ele><time>2026-04-25T16:38:18.858Z</time></trkpt><trkpt lat="45.3823855" lon="7.8798721"><ele>243.99999999999997</ele><time>2026-04-25T16:38:20.809Z</time></trkpt><trkpt lat="45.382386" lon="7.8797739"><ele>243.99999999999997</ele><time>2026-04-25T16:38:22.846Z</time></trkpt><trkpt lat="45.382383" lon="7.8796818"><ele>244.0</ele><time>2026-04-25T16:38:24.762Z</time></trkpt><trkpt lat="45.3823719" lon="7.8795923"><ele>243.99999999999997</ele><time>2026-04-25T16:38:26.799Z</time></trkpt><trkpt lat="45.3823797" lon="7.8794786"><ele>243.99999999999997</ele><time>2026-04-25T16:38:29.794Z</time></trkpt><trkpt lat="45.3823655" lon="7.8793692"><ele>244.0</ele><time>2026-04-25T16:38:32.788Z</time></trkpt><trkpt lat="45.3824178" lon="7.8793038"><ele>243.99999999999997</ele><time>2026-04-25T16:38:35.783Z</time></trkpt><trkpt lat="45.3824765" lon="7.8792654"><ele>243.99999999999997</ele><time>2026-04-25T16:38:38.777Z</time></trkpt><trkpt lat="45.3824773" lon="7.8791593"><ele>243.85714285714283</ele><time>2026-04-25T16:38:41.772Z</time></trkpt><trkpt lat="45.3824592" lon="7.879054"><ele>243.71428571428572</ele><time>2026-04-25T16:38:46.687Z</time></trkpt><trkpt lat="45.3825079" lon="7.8789709"><ele>243.57142857142856</ele><time>2026-04-25T16:38:49.687Z</time></trkpt><trkpt lat="45.3825667" lon="7.8789373"><ele>243.42857142857142</ele><time>2026-04-25T16:38:51.687Z</time></trkpt><trkpt lat="45.3826346" lon="7.8789213"><ele>243.28571428571428</ele><time>2026-04-25T16:38:53.687Z</time></trkpt><trkpt lat="45.3826987" lon="7.8789235"><ele>243.14285714285714</ele><time>2026-04-25T16:38:55.687Z</time></trkpt><trkpt lat="45.3827787" lon="7.878904"><ele>243.0</ele><time>2026-04-25T16:38:57.687Z</time></trkpt><trkpt lat="45.3828456" lon="7.8789045"><ele>243.0</ele><time>2026-04-25T16:38:59.687Z</time></trkpt><trkpt lat="45.3829169" lon="7.8788945"><ele>243.0</ele><time>2026-04-25T16:39:01.687Z</time></trkpt><trkpt lat="45.3829981" lon="7.8788709"><ele>243.0</ele><time>2026-04-25T16:39:03.687Z</time></trkpt><trkpt lat="45.3830679" lon="7.8788499"><ele>243.0</ele><time>2026-04-25T16:39:05.687Z</time></trkpt><trkpt lat="45.3831345" lon="7.878832"><ele>243.0</ele><time>2026-04-25T16:39:07.687Z</time></trkpt><trkpt lat="45.3832028" lon="7.8788156"><ele>243.0</ele><time>2026-04-25T16:39:09.687Z</time></trkpt><trkpt lat="45.3832683" lon="7.8788156"><ele>243.0</ele><time>2026-04-25T16:39:11.687Z</time></trkpt><trkpt lat="45.3833344" lon="7.8788136"><ele>243.28571428571428</ele><time>2026-04-25T16:39:13.688Z</time></trkpt><trkpt lat="45.383401" lon="7.8788045"><ele>243.57142857142858</ele><time>2026-04-25T16:39:15.688Z</time></trkpt><trkpt lat="45.3834651" lon="7.8788049"><ele>243.85714285714286</ele><time>2026-04-25T16:39:17.688Z</time></trkpt><trkpt lat="45.3835332" lon="7.8788059"><ele>244.14285714285714</ele><time>2026-04-25T16:39:19.688Z</time></trkpt><trkpt lat="45.3836052" lon="7.8788022"><ele>244.42857142857144</ele><time>2026-04-25T16:39:21.688Z</time></trkpt><trkpt lat="45.3836737" lon="7.8788047"><ele>244.71428571428572</ele><time>2026-04-25T16:39:23.688Z</time></trkpt><trkpt lat="45.3837453" lon="7.8787716"><ele>245.0</ele><time>2026-04-25T16:39:27.689Z</time></trkpt><trkpt lat="45.3837514" lon="7.878646"><ele>245.00000000000003</ele><time>2026-04-25T16:39:30.688Z</time></trkpt><trkpt lat="45.3837166" lon="7.8785474"><ele>245.0</ele><time>2026-04-25T16:39:32.689Z</time></trkpt><trkpt lat="45.3837109" lon="7.878425"><ele>245.0</ele><time>2026-04-25T16:39:35.689Z</time></trkpt><trkpt lat="45.3836776" lon="7.8783013"><ele>245.0</ele><time>2026-04-25T16:39:37.688Z</time></trkpt><trkpt lat="45.3836706" lon="7.878179"><ele>245.00000000000003</ele><time>2026-04-25T16:39:39.688Z</time></trkpt><trkpt lat="45.383664" lon="7.8780595"><ele>245.0</ele><time>2026-04-25T16:39:42.688Z</time></trkpt><trkpt lat="45.3837069" lon="7.8779625"><ele>245.00000000000003</ele><time>2026-04-25T16:39:46.689Z</time></trkpt><trkpt lat="45.3836946" lon="7.8778552"><ele>245.0</ele><time>2026-04-25T16:39:48.688Z</time></trkpt><trkpt lat="45.3836742" lon="7.8777184"><ele>245.0</ele><time>2026-04-25T16:39:50.688Z</time></trkpt><trkpt lat="45.3836705" lon="7.8775886"><ele>245.0</ele><time>2026-04-25T16:39:52.688Z</time></trkpt><trkpt lat="45.3836765" lon="7.8774726"><ele>245.00000000000003</ele><time>2026-04-25T16:39:54.688Z</time></trkpt><trkpt lat="45.3836737" lon="7.8773559"><ele>245.0</ele><time>2026-04-25T16:39:56.688Z</time></trkpt><trkpt lat="45.3836704" lon="7.8772574"><ele>245.00000000000003</ele><time>2026-04-25T16:39:58.689Z</time></trkpt><trkpt lat="45.383648" lon="7.8771273"><ele>245.0</ele><time>2026-04-25T16:40:00.689Z</time></trkpt><trkpt lat="45.3836312" lon="7.87701"><ele>245.0</ele><time>2026-04-25T16:40:02.69Z</time></trkpt><trkpt lat="45.3836178" lon="7.8768976"><ele>245.0</ele><time>2026-04-25T16:40:04.69Z</time></trkpt><trkpt lat="45.3836153" lon="7.8767871"><ele>245.00000000000003</ele><time>2026-04-25T16:40:06.689Z</time></trkpt><trkpt lat="45.3836119" lon="7.8766654"><ele>245.0</ele><time>2026-04-25T16:40:08.689Z</time></trkpt><trkpt lat="45.3836012" lon="7.8765368"><ele>245.16666666666669</ele><time>2026-04-25T16:40:10.689Z</time></trkpt><trkpt lat="45.3835906" lon="7.8764126"><ele>245.33333333333334</ele><time>2026-04-25T16:40:12.689Z</time></trkpt><trkpt lat="45.3835812" lon="7.8762976"><ele>245.5</ele><time>2026-04-25T16:40:14.69Z</time></trkpt><trkpt lat="45.3835778" lon="7.8761737"><ele>245.66666666666669</ele><time>2026-04-25T16:40:16.689Z</time></trkpt><trkpt lat="45.3835764" lon="7.8760372"><ele>245.83333333333334</ele><time>2026-04-25T16:40:18.689Z</time></trkpt><trkpt lat="45.3835781" lon="7.8759209"><ele>246.0</ele><time>2026-04-25T16:40:20.689Z</time></trkpt><trkpt lat="45.3835705" lon="7.8758158"><ele>245.71428571428575</ele><time>2026-04-25T16:40:22.689Z</time></trkpt><trkpt lat="45.3835657" lon="7.8757205"><ele>245.42857142857144</ele><time>2026-04-25T16:40:24.689Z</time></trkpt><trkpt lat="45.3835671" lon="7.8756221"><ele>245.14285714285714</ele><time>2026-04-25T16:40:26.689Z</time></trkpt><trkpt lat="45.3835661" lon="7.8755295"><ele>244.85714285714286</ele><time>2026-04-25T16:40:28.689Z</time></trkpt><trkpt lat="45.3835646" lon="7.875408"><ele>244.57142857142856</ele><time>2026-04-25T16:40:31.69Z</time></trkpt><trkpt lat="45.3835579" lon="7.8753138"><ele>244.28571428571425</ele><time>2026-04-25T16:40:38.689Z</time></trkpt><trkpt lat="45.3836268" lon="7.87526"><ele>243.99999999999997</ele><time>2026-04-25T16:40:42.689Z</time></trkpt><trkpt lat="45.3837227" lon="7.8752541"><ele>243.99999999999997</ele><time>2026-04-25T16:40:45.691Z</time></trkpt><trkpt lat="45.3837863" lon="7.8752532"><ele>244.0</ele><time>2026-04-25T16:40:47.69Z</time></trkpt><trkpt lat="45.3838603" lon="7.8752483"><ele>243.99999999999997</ele><time>2026-04-25T16:40:49.69Z</time></trkpt><trkpt lat="45.3839306" lon="7.8752564"><ele>243.99999999999997</ele><time>2026-04-25T16:40:51.69Z</time></trkpt><trkpt lat="45.3840013" lon="7.8752658"><ele>244.0</ele><time>2026-04-25T16:40:54.69Z</time></trkpt><trkpt lat="45.3840748" lon="7.8752072"><ele>243.99999999999997</ele><time>2026-04-25T16:41:35.691Z</time></trkpt><trkpt lat="45.3841321" lon="7.8751427"><ele>243.99999999999997</ele><time>2026-04-25T16:41:37.691Z</time></trkpt><trkpt lat="45.3841694" lon="7.8750264"><ele>244.6</ele><time>2026-04-25T16:41:39.692Z</time></trkpt><trkpt lat="45.3841811" lon="7.8748789"><ele>245.2</ele><time>2026-04-25T16:41:41.691Z</time></trkpt><trkpt lat="45.3841744" lon="7.8747369"><ele>245.79999999999998</ele><time>2026-04-25T16:41:43.691Z</time></trkpt><trkpt lat="45.3841648" lon="7.8746052"><ele>246.39999999999998</ele><time>2026-04-25T16:41:45.691Z</time></trkpt><trkpt lat="45.3841617" lon="7.8744807"><ele>247.0</ele><time>2026-04-25T16:41:47.692Z</time></trkpt><trkpt lat="45.3841462" lon="7.8743571"><ele>246.83333333333331</ele><time>2026-04-25T16:41:49.691Z</time></trkpt><trkpt lat="45.3841331" lon="7.8742431"><ele>246.66666666666666</ele><time>2026-04-25T16:41:51.691Z</time></trkpt><trkpt lat="45.3841251" lon="7.8741328"><ele>246.5</ele><time>2026-04-25T16:41:53.692Z</time></trkpt><trkpt lat="45.384112" lon="7.874011"><ele>246.33333333333331</ele><time>2026-04-25T16:41:55.691Z</time></trkpt><trkpt lat="45.3841061" lon="7.8738985"><ele>246.16666666666666</ele><time>2026-04-25T16:41:57.691Z</time></trkpt><trkpt lat="45.3840987" lon="7.8737794"><ele>246.0</ele><time>2026-04-25T16:41:59.691Z</time></trkpt><trkpt lat="45.3840901" lon="7.8736538"><ele>246.0</ele><time>2026-04-25T16:42:01.691Z</time></trkpt><trkpt lat="45.3840983" lon="7.873553"><ele>246.0</ele><time>2026-04-25T16:42:03.692Z</time></trkpt><trkpt lat="45.3841394" lon="7.873449"><ele>246.0</ele><time>2026-04-25T16:42:05.691Z</time></trkpt><trkpt lat="45.3841728" lon="7.87335"><ele>246.0</ele><time>2026-04-25T16:42:07.691Z</time></trkpt><trkpt lat="45.3841844" lon="7.8732309"><ele>246.0</ele><time>2026-04-25T16:42:09.691Z</time></trkpt><trkpt lat="45.3841795" lon="7.8731241"><ele>246.0</ele><time>2026-04-25T16:42:11.691Z</time></trkpt><trkpt lat="45.3841723" lon="7.8730078"><ele>246.0</ele><time>2026-04-25T16:42:13.691Z</time></trkpt><trkpt lat="45.3841593" lon="7.8728967"><ele>246.0</ele><time>2026-04-25T16:42:15.692Z</time></trkpt><trkpt lat="45.384155" lon="7.872777"><ele>246.0</ele><time>2026-04-25T16:42:17.692Z</time></trkpt><trkpt lat="45.3841541" lon="7.8726541"><ele>246.0</ele><time>2026-04-25T16:42:19.692Z</time></trkpt><trkpt lat="45.3841367" lon="7.8725524"><ele>246.0</ele><time>2026-04-25T16:42:21.692Z</time></trkpt><trkpt lat="45.3840986" lon="7.8724652"><ele>246.0</ele><time>2026-04-25T16:42:23.692Z</time></trkpt><trkpt lat="45.3840399" lon="7.872378"><ele>245.8571428571429</ele><time>2026-04-25T16:42:26.693Z</time></trkpt><trkpt lat="45.3840212" lon="7.8722784"><ele>245.71428571428572</ele><time>2026-04-25T16:42:28.692Z</time></trkpt><trkpt lat="45.3840058" lon="7.8721815"><ele>245.57142857142858</ele><time>2026-04-25T16:42:30.692Z</time></trkpt><trkpt lat="45.384004" lon="7.8720781"><ele>245.42857142857144</ele><time>2026-04-25T16:42:32.692Z</time></trkpt><trkpt lat="45.3839966" lon="7.8719763"><ele>245.28571428571428</ele><time>2026-04-25T16:42:34.692Z</time></trkpt><trkpt lat="45.3839966" lon="7.8718785"><ele>245.14285714285714</ele><time>2026-04-25T16:42:36.692Z</time></trkpt><trkpt lat="45.383993" lon="7.8717873"><ele>245.0</ele><time>2026-04-25T16:42:38.692Z</time></trkpt><trkpt lat="45.3840045" lon="7.8716661"><ele>245.00000000000003</ele><time>2026-04-25T16:42:41.692Z</time></trkpt><trkpt lat="45.3840582" lon="7.8715781"><ele>245.0</ele><time>2026-04-25T16:42:44.693Z</time></trkpt><trkpt lat="45.3841148" lon="7.8715232"><ele>245.0</ele><time>2026-04-25T16:42:46.693Z</time></trkpt><trkpt lat="45.3841824" lon="7.8714981"><ele>245.0</ele><time>2026-04-25T16:42:48.692Z</time></trkpt><trkpt lat="45.3842494" lon="7.8714779"><ele>245.00000000000003</ele><time>2026-04-25T16:42:50.692Z</time></trkpt><trkpt lat="45.3843181" lon="7.8714627"><ele>245.0</ele><time>2026-04-25T16:42:52.692Z</time></trkpt><trkpt lat="45.3844097" lon="7.8714553"><ele>245.00000000000003</ele><time>2026-04-25T16:42:55.692Z</time></trkpt><trkpt lat="45.3844932" lon="7.8714403"><ele>245.0</ele><time>2026-04-25T16:42:58.692Z</time></trkpt><trkpt lat="45.3845636" lon="7.8714221"><ele>245.0</ele><time>2026-04-25T16:43:00.692Z</time></trkpt><trkpt lat="45.3846579" lon="7.8713915"><ele>245.0</ele><time>2026-04-25T16:43:03.693Z</time></trkpt><trkpt lat="45.384725" lon="7.8713671"><ele>245.00000000000003</ele><time>2026-04-25T16:43:05.693Z</time></trkpt><trkpt lat="45.3848189" lon="7.8713307"><ele>245.0</ele><time>2026-04-25T16:43:08.693Z</time></trkpt><trkpt lat="45.3848892" lon="7.8713198"><ele>245.42857142857144</ele><time>2026-04-25T16:43:10.693Z</time></trkpt><trkpt lat="45.3849587" lon="7.8713123"><ele>245.85714285714286</ele><time>2026-04-25T16:43:12.693Z</time></trkpt><trkpt lat="45.3850301" lon="7.8712889"><ele>246.28571428571428</ele><time>2026-04-25T16:43:14.693Z</time></trkpt><trkpt lat="45.385097" lon="7.8712729"><ele>246.71428571428572</ele><time>2026-04-25T16:43:16.694Z</time></trkpt><trkpt lat="45.3851754" lon="7.87125"><ele>247.14285714285717</ele><time>2026-04-25T16:43:18.693Z</time></trkpt><trkpt lat="45.3852519" lon="7.8712288"><ele>247.57142857142858</ele><time>2026-04-25T16:43:20.693Z</time></trkpt><trkpt lat="45.3853246" lon="7.8712055"><ele>248.0</ele><time>2026-04-25T16:43:22.693Z</time></trkpt><trkpt lat="45.3854027" lon="7.8711833"><ele>248.00000000000003</ele><time>2026-04-25T16:43:24.693Z</time></trkpt><trkpt lat="45.3854867" lon="7.871164"><ele>248.0</ele><time>2026-04-25T16:43:26.693Z</time></trkpt><trkpt lat="45.3855661" lon="7.8711588"><ele>248.0</ele><time>2026-04-25T16:43:28.693Z</time></trkpt><trkpt lat="45.3856396" lon="7.8711442"><ele>248.0</ele><time>2026-04-25T16:43:30.693Z</time></trkpt><trkpt lat="45.3857088" lon="7.8711238"><ele>248.00000000000003</ele><time>2026-04-25T16:43:32.693Z</time></trkpt><trkpt lat="45.3857764" lon="7.8710721"><ele>248.0</ele><time>2026-04-25T16:43:34.693Z</time></trkpt><trkpt lat="45.3858141" lon="7.8709973"><ele>248.00000000000003</ele><time>2026-04-25T16:43:36.693Z</time></trkpt><trkpt lat="45.3858456" lon="7.8708859"><ele>248.0</ele><time>2026-04-25T16:43:38.693Z</time></trkpt><trkpt lat="45.3858776" lon="7.87076"><ele>248.0</ele><time>2026-04-25T16:43:40.693Z</time></trkpt><trkpt lat="45.3859071" lon="7.8706443"><ele>248.0</ele><time>2026-04-25T16:43:42.694Z</time></trkpt><trkpt lat="45.3859346" lon="7.8705421"><ele>248.00000000000003</ele><time>2026-04-25T16:43:44.693Z</time></trkpt><trkpt lat="45.3859584" lon="7.8704509"><ele>248.0</ele><time>2026-04-25T16:43:46.694Z</time></trkpt><trkpt lat="45.3859756" lon="7.8703636"><ele>248.0</ele><time>2026-04-25T16:43:48.694Z</time></trkpt><trkpt lat="45.3859763" lon="7.8702275"><ele>248.0</ele><time>2026-04-25T16:43:51.694Z</time></trkpt><trkpt lat="45.3859075" lon="7.8701429"><ele>248.0</ele><time>2026-04-25T16:43:53.694Z</time></trkpt><trkpt lat="45.385799" lon="7.8701156"><ele>248.0</ele><time>2026-04-25T16:43:55.694Z</time></trkpt><trkpt lat="45.3856903" lon="7.8701217"><ele>248.0</ele><time>2026-04-25T16:43:57.695Z</time></trkpt><trkpt lat="45.385589" lon="7.8701321"><ele>248.16666666666669</ele><time>2026-04-25T16:43:59.694Z</time></trkpt><trkpt lat="45.385495" lon="7.8701426"><ele>248.33333333333334</ele><time>2026-04-25T16:44:01.695Z</time></trkpt><trkpt lat="45.3854095" lon="7.8701592"><ele>248.5</ele><time>2026-04-25T16:44:03.694Z</time></trkpt><trkpt lat="45.3853213" lon="7.8701547"><ele>248.66666666666669</ele><time>2026-04-25T16:44:05.694Z</time></trkpt><trkpt lat="45.3852375" lon="7.8701577"><ele>248.83333333333334</ele><time>2026-04-25T16:44:07.694Z</time></trkpt><trkpt lat="45.3851549" lon="7.8701664"><ele>249.0</ele><time>2026-04-25T16:44:09.694Z</time></trkpt><trkpt lat="45.3850799" lon="7.8701716"><ele>249.0</ele><time>2026-04-25T16:44:11.694Z</time></trkpt><trkpt lat="45.3850079" lon="7.8701763"><ele>249.0</ele><time>2026-04-25T16:44:13.694Z</time></trkpt><trkpt lat="45.38494" lon="7.8701814"><ele>249.0</ele><time>2026-04-25T16:44:15.694Z</time></trkpt><trkpt lat="45.3848758" lon="7.870184"><ele>249.0</ele><time>2026-04-25T16:44:17.694Z</time></trkpt><trkpt lat="45.3847823" lon="7.8701935"><ele>249.0</ele><time>2026-04-25T16:44:20.694Z</time></trkpt><trkpt lat="45.3846805" lon="7.8701996"><ele>249.0</ele><time>2026-04-25T16:44:23.694Z</time></trkpt><trkpt lat="45.384603" lon="7.8702134"><ele>248.83333333333334</ele><time>2026-04-25T16:44:25.694Z</time></trkpt><trkpt lat="45.3845287" lon="7.8702212"><ele>248.66666666666669</ele><time>2026-04-25T16:44:27.694Z</time></trkpt><trkpt lat="45.3844624" lon="7.8702226"><ele>248.5</ele><time>2026-04-25T16:44:29.694Z</time></trkpt><trkpt lat="45.3843825" lon="7.8702309"><ele>248.33333333333334</ele><time>2026-04-25T16:44:31.695Z</time></trkpt><trkpt lat="45.3842962" lon="7.8702226"><ele>248.16666666666669</ele><time>2026-04-25T16:44:33.695Z</time></trkpt><trkpt lat="45.3842158" lon="7.8702259"><ele>248.0</ele><time>2026-04-25T16:44:35.695Z</time></trkpt><trkpt lat="45.3841399" lon="7.8702373"><ele>248.00000000000003</ele><time>2026-04-25T16:44:37.695Z</time></trkpt><trkpt lat="45.3840687" lon="7.8702327"><ele>248.0</ele><time>2026-04-25T16:44:39.696Z</time></trkpt><trkpt lat="45.3839772" lon="7.8702457"><ele>248.0</ele><time>2026-04-25T16:44:42.695Z</time></trkpt><trkpt lat="45.3839097" lon="7.8702514"><ele>248.0</ele><time>2026-04-25T16:44:59.695Z</time></trkpt><trkpt lat="45.3838369" lon="7.8702391"><ele>248.00000000000003</ele><time>2026-04-25T16:45:03.695Z</time></trkpt><trkpt lat="45.3837432" lon="7.8702449"><ele>248.0</ele><time>2026-04-25T16:45:05.695Z</time></trkpt><trkpt lat="45.3836612" lon="7.8702804"><ele>247.71428571428572</ele><time>2026-04-25T16:45:07.695Z</time></trkpt><trkpt lat="45.3835968" lon="7.8702941"><ele>247.42857142857144</ele><time>2026-04-25T16:45:09.695Z</time></trkpt><trkpt lat="45.3835314" lon="7.8703229"><ele>247.14285714285717</ele><time>2026-04-25T16:45:11.695Z</time></trkpt><trkpt lat="45.3834642" lon="7.8703368"><ele>246.8571428571429</ele><time>2026-04-25T16:45:13.695Z</time></trkpt><trkpt lat="45.3833967" lon="7.8703452"><ele>246.57142857142858</ele><time>2026-04-25T16:45:15.695Z</time></trkpt><trkpt lat="45.3833378" lon="7.8703914"><ele>246.28571428571433</ele><time>2026-04-25T16:45:17.696Z</time></trkpt><trkpt lat="45.3833032" lon="7.8704787"><ele>246.00000000000003</ele><time>2026-04-25T16:45:19.697Z</time></trkpt><trkpt lat="45.3832889" lon="7.8705863"><ele>246.00000000000003</ele><time>2026-04-25T16:45:22.696Z</time></trkpt><trkpt lat="45.3832987" lon="7.870688"><ele>246.0</ele><time>2026-04-25T16:45:26.696Z</time></trkpt><trkpt lat="45.3832742" lon="7.8707787"><ele>246.00000000000003</ele><time>2026-04-25T16:47:13.782Z</time></trkpt><trkpt lat="45.383312" lon="7.870707"><ele>246.00000000000003</ele><time>2026-04-25T16:47:34.863Z</time></trkpt><trkpt lat="45.3833773" lon="7.8707"><ele>246.0</ele><time>2026-04-25T16:50:03.87Z</time></trkpt><trkpt lat="45.3834435" lon="7.8706799"><ele>246.00000000000003</ele><time>2026-04-25T16:50:37.769Z</time></trkpt><trkpt lat="45.3834165" lon="7.8705771"><ele>246.00000000000003</ele><time>2026-04-25T16:50:55.855Z</time></trkpt><trkpt lat="45.3834134" lon="7.8704638"><ele>246.00000000000003</ele><time>2026-04-25T16:50:58.849Z</time></trkpt><trkpt lat="45.3834575" lon="7.8703935"><ele>246.0</ele><time>2026-04-25T16:51:01.844Z</time></trkpt><trkpt lat="45.3835212" lon="7.870356"><ele>246.00000000000003</ele><time>2026-04-25T16:51:05.797Z</time></trkpt><trkpt lat="45.3835915" lon="7.8703415"><ele>246.00000000000003</ele><time>2026-04-25T16:51:11.704Z</time></trkpt><trkpt lat="45.3836627" lon="7.8703431"><ele>246.0</ele><time>2026-04-25T16:51:13.703Z</time></trkpt><trkpt lat="45.3837296" lon="7.8703254"><ele>246.00000000000003</ele><time>2026-04-25T16:51:15.703Z</time></trkpt><trkpt lat="45.3837984" lon="7.8702951"><ele>246.00000000000003</ele><time>2026-04-25T16:51:17.704Z</time></trkpt><trkpt lat="45.3838653" lon="7.8702837"><ele>246.28571428571433</ele><time>2026-04-25T16:51:19.703Z</time></trkpt><trkpt lat="45.3839374" lon="7.8702778"><ele>246.57142857142858</ele><time>2026-04-25T16:51:21.703Z</time></trkpt><trkpt lat="45.384013" lon="7.8702718"><ele>246.8571428571429</ele><time>2026-04-25T16:51:23.703Z</time></trkpt><trkpt lat="45.3840866" lon="7.87027"><ele>247.14285714285717</ele><time>2026-04-25T16:51:25.703Z</time></trkpt><trkpt lat="45.3841572" lon="7.8702588"><ele>247.42857142857144</ele><time>2026-04-25T16:51:27.704Z</time></trkpt><trkpt lat="45.3842256" lon="7.8702495"><ele>247.71428571428572</ele><time>2026-04-25T16:51:29.703Z</time></trkpt><trkpt lat="45.3842998" lon="7.8702201"><ele>248.0</ele><time>2026-04-25T16:51:31.703Z</time></trkpt><trkpt lat="45.3843823" lon="7.8701867"><ele>248.00000000000003</ele><time>2026-04-25T16:51:33.703Z</time></trkpt><trkpt lat="45.3844621" lon="7.8701892"><ele>248.0</ele><time>2026-04-25T16:51:35.704Z</time></trkpt><trkpt lat="45.384541" lon="7.8702001"><ele>248.0</ele><time>2026-04-25T16:51:37.704Z</time></trkpt><trkpt lat="45.384612" lon="7.8702035"><ele>248.0</ele><time>2026-04-25T16:51:39.704Z</time></trkpt><trkpt lat="45.3846774" lon="7.8702203"><ele>248.00000000000003</ele><time>2026-04-25T16:51:41.705Z</time></trkpt><trkpt lat="45.3847522" lon="7.8702301"><ele>248.0</ele><time>2026-04-25T16:51:43.704Z</time></trkpt><trkpt lat="45.3848307" lon="7.8702287"><ele>248.16666666666669</ele><time>2026-04-25T16:51:45.704Z</time></trkpt><trkpt lat="45.3849092" lon="7.8702153"><ele>248.33333333333334</ele><time>2026-04-25T16:51:47.704Z</time></trkpt><trkpt lat="45.3849785" lon="7.8702156"><ele>248.5</ele><time>2026-04-25T16:51:49.705Z</time></trkpt><trkpt lat="45.3850769" lon="7.8702008"><ele>248.66666666666669</ele><time>2026-04-25T16:51:52.704Z</time></trkpt><trkpt lat="45.3851558" lon="7.8701933"><ele>248.83333333333334</ele><time>2026-04-25T16:51:54.704Z</time></trkpt><trkpt lat="45.385241" lon="7.8701845"><ele>249.0</ele><time>2026-04-25T16:51:56.705Z</time></trkpt><trkpt lat="45.385333" lon="7.870177"><ele>249.0</ele><time>2026-04-25T16:51:58.704Z</time></trkpt><trkpt lat="45.3854243" lon="7.87017"><ele>249.0</ele><time>2026-04-25T16:52:00.704Z</time></trkpt><trkpt lat="45.3855111" lon="7.8701628"><ele>249.0</ele><time>2026-04-25T16:52:02.705Z</time></trkpt><trkpt lat="45.385594" lon="7.8701536"><ele>249.0</ele><time>2026-04-25T16:52:04.704Z</time></trkpt><trkpt lat="45.3856674" lon="7.8701502"><ele>249.0</ele><time>2026-04-25T16:52:06.704Z</time></trkpt><trkpt lat="45.3857332" lon="7.8701531"><ele>249.0</ele><time>2026-04-25T16:52:08.704Z</time></trkpt><trkpt lat="45.3858239" lon="7.8701654"><ele>248.83333333333334</ele><time>2026-04-25T16:52:11.704Z</time></trkpt><trkpt lat="45.3859073" lon="7.8701904"><ele>248.66666666666669</ele><time>2026-04-25T16:52:14.705Z</time></trkpt><trkpt lat="45.3859817" lon="7.8702367"><ele>248.5</ele><time>2026-04-25T16:52:17.704Z</time></trkpt><trkpt lat="45.3859835" lon="7.8703673"><ele>248.33333333333334</ele><time>2026-04-25T16:52:20.705Z</time></trkpt><trkpt lat="45.3859569" lon="7.8704521"><ele>248.16666666666669</ele><time>2026-04-25T16:52:22.705Z</time></trkpt><trkpt lat="45.3859251" lon="7.870552"><ele>248.0</ele><time>2026-04-25T16:52:24.705Z</time></trkpt><trkpt lat="45.3858944" lon="7.8706432"><ele>248.00000000000003</ele><time>2026-04-25T16:52:26.705Z</time></trkpt><trkpt lat="45.3858735" lon="7.8707293"><ele>248.0</ele><time>2026-04-25T16:52:28.705Z</time></trkpt><trkpt lat="45.3858408" lon="7.8708507"><ele>248.0</ele><time>2026-04-25T16:52:31.705Z</time></trkpt><trkpt lat="45.3858208" lon="7.8709647"><ele>248.0</ele><time>2026-04-25T16:52:34.705Z</time></trkpt><trkpt lat="45.3858294" lon="7.8710714"><ele>248.00000000000003</ele><time>2026-04-25T16:52:36.706Z</time></trkpt><trkpt lat="45.385827" lon="7.8711952"><ele>248.0</ele><time>2026-04-25T16:52:38.705Z</time></trkpt><trkpt lat="45.3858064" lon="7.8713383"><ele>248.00000000000003</ele><time>2026-04-25T16:52:40.706Z</time></trkpt><trkpt lat="45.3857802" lon="7.871471"><ele>248.0</ele><time>2026-04-25T16:52:42.705Z</time></trkpt><trkpt lat="45.3857581" lon="7.8716008"><ele>248.0</ele><time>2026-04-25T16:52:44.705Z</time></trkpt><trkpt lat="45.3857504" lon="7.8717093"><ele>248.0</ele><time>2026-04-25T16:52:46.705Z</time></trkpt><trkpt lat="45.3857221" lon="7.8718184"><ele>248.00000000000003</ele><time>2026-04-25T16:52:48.705Z</time></trkpt><trkpt lat="45.3856888" lon="7.8719307"><ele>248.0</ele><time>2026-04-25T16:52:50.705Z</time></trkpt><trkpt lat="45.3856614" lon="7.8720577"><ele>248.00000000000003</ele><time>2026-04-25T16:52:52.705Z</time></trkpt><trkpt lat="45.3856346" lon="7.8721752"><ele>248.0</ele><time>2026-04-25T16:52:54.705Z</time></trkpt><trkpt lat="45.3856004" lon="7.8722928"><ele>248.0</ele><time>2026-04-25T16:52:56.705Z</time></trkpt><trkpt lat="45.385569" lon="7.8724051"><ele>248.0</ele><time>2026-04-25T16:52:58.705Z</time></trkpt><trkpt lat="45.3855358" lon="7.8725123"><ele>248.00000000000003</ele><time>2026-04-25T16:53:00.706Z</time></trkpt><trkpt lat="45.3855158" lon="7.8726047"><ele>248.0</ele><time>2026-04-25T16:53:02.706Z</time></trkpt><trkpt lat="45.3854849" lon="7.8727068"><ele>247.83333333333334</ele><time>2026-04-25T16:53:05.705Z</time></trkpt><trkpt lat="45.3854461" lon="7.8728041"><ele>247.66666666666669</ele><time>2026-04-25T16:53:09.705Z</time></trkpt><trkpt lat="45.3854351" lon="7.8729011"><ele>247.5</ele><time>2026-04-25T16:53:11.706Z</time></trkpt><trkpt lat="45.3854277" lon="7.8730208"><ele>247.33333333333331</ele><time>2026-04-25T16:53:13.706Z</time></trkpt><trkpt lat="45.3854064" lon="7.8731326"><ele>247.16666666666666</ele><time>2026-04-25T16:53:15.706Z</time></trkpt><trkpt lat="45.3853913" lon="7.8732386"><ele>247.0</ele><time>2026-04-25T16:53:17.706Z</time></trkpt><trkpt lat="45.3853729" lon="7.8733547"><ele>247.14285714285717</ele><time>2026-04-25T16:53:19.706Z</time></trkpt><trkpt lat="45.3853474" lon="7.8734455"><ele>247.28571428571428</ele><time>2026-04-25T16:53:21.706Z</time></trkpt><trkpt lat="45.3853178" lon="7.8735429"><ele>247.42857142857144</ele><time>2026-04-25T16:53:23.706Z</time></trkpt><trkpt lat="45.3852806" lon="7.8736425"><ele>247.57142857142858</ele><time>2026-04-25T16:53:25.706Z</time></trkpt><trkpt lat="45.3852576" lon="7.8737449"><ele>247.71428571428572</ele><time>2026-04-25T16:53:27.706Z</time></trkpt><trkpt lat="45.3852299" lon="7.873847"><ele>247.85714285714286</ele><time>2026-04-25T16:53:29.707Z</time></trkpt><trkpt lat="45.3852101" lon="7.8739486"><ele>248.0</ele><time>2026-04-25T16:53:31.706Z</time></trkpt><trkpt lat="45.3851899" lon="7.8740388"><ele>248.0</ele><time>2026-04-25T16:53:33.706Z</time></trkpt><trkpt lat="45.3851697" lon="7.8741255"><ele>248.00000000000003</ele><time>2026-04-25T16:53:35.706Z</time></trkpt><trkpt lat="45.3851459" lon="7.8742169"><ele>248.0</ele><time>2026-04-25T16:53:37.706Z</time></trkpt><trkpt lat="45.38512" lon="7.8743243"><ele>248.0</ele><time>2026-04-25T16:53:39.706Z</time></trkpt><trkpt lat="45.3850924" lon="7.8744269"><ele>248.00000000000003</ele><time>2026-04-25T16:53:41.706Z</time></trkpt><trkpt lat="45.3850729" lon="7.87452"><ele>248.0</ele><time>2026-04-25T16:53:43.706Z</time></trkpt><trkpt lat="45.385049" lon="7.8746089"><ele>248.0</ele><time>2026-04-25T16:53:45.706Z</time></trkpt><trkpt lat="45.3850301" lon="7.8746968"><ele>248.33333333333334</ele><time>2026-04-25T16:53:47.707Z</time></trkpt><trkpt lat="45.3850008" lon="7.8748077"><ele>248.66666666666669</ele><time>2026-04-25T16:53:50.707Z</time></trkpt><trkpt lat="45.3849909" lon="7.8749219"><ele>249.0</ele><time>2026-04-25T16:53:53.706Z</time></trkpt><trkpt lat="45.3849533" lon="7.8750361"><ele>249.33333333333331</ele><time>2026-04-25T16:53:56.707Z</time></trkpt><trkpt lat="45.3849393" lon="7.8751528"><ele>249.66666666666666</ele><time>2026-04-25T16:53:59.707Z</time></trkpt><trkpt lat="45.3849161" lon="7.8752541"><ele>250.0</ele><time>2026-04-25T16:54:01.708Z</time></trkpt><trkpt lat="45.3849018" lon="7.8753434"><ele>253.0</ele><time>2026-04-25T16:54:03.707Z</time></trkpt><trkpt lat="45.3848758" lon="7.8754591"><ele>253.0</ele><time>2026-04-25T16:54:06.707Z</time></trkpt><trkpt lat="45.3848868" lon="7.8755607"><ele>253.0</ele><time>2026-04-25T16:54:10.707Z</time></trkpt><trkpt lat="45.3849636" lon="7.875604"><ele>253.0</ele><time>2026-04-25T16:54:14.707Z</time></trkpt><trkpt lat="45.3850181" lon="7.8756512"><ele>253.0</ele><time>2026-04-25T16:54:18.707Z</time></trkpt><trkpt lat="45.3851297" lon="7.875638"><ele>253.0</ele><time>2026-04-25T16:55:05.708Z</time></trkpt></trkseg></trk></gpx>